     2.11           OBSERVATION DATA    G (GPS)             RINEX VERSION / TYPE
teqc 2010Oct21 OPUS Account 20111027 15:20:11UTC            PGM / RUN BY / DATE
H 1524                                                      MARKER NAME
1212                                                        MARKER NUMBER
CSMIDDLETON NGS                                             OBSERVER / AGENCY
0220390627 TRIMBLE R7 2.32                                  REC # / TYPE / VERS
60124849 TRM41249.00 NONE                                   ANT # / TYPE
  -756951.4804 -5528159.9303  3079642.9987                  APPROX POSITION XYZ
        2.0010        0.0000        0.0000                  ANTENNA: DELTA H/E/N
     1     1                                                WAVELENGTH FACT L1/2
     5    L1    L2    C1    P1    P2                        # / TYPES OF OBSERV
    15                                                      LEAP SECONDS
  2011     8    15     0     0   30.0000000     GPS         TIME OF FIRST OBS
                                                            END OF HEADER
 11  8 15  0  0 30.0000000  0  8G10G28G12G17G05G04G09G02
 -28423470.10258 -22116862.26656  21252160.8914                   21252159.6954
 -50769201.62956 -39553081.93053  23797029.8364                   23797031.2584
 -16913396.43057 -13145041.67255  22502842.8204                   22502841.5514
 -48366399.13357 -37678235.58655  22380429.7114                   22380428.1954
  -8817333.23057  -6833045.86354  23510450.3754                   23510450.7544
 -45194435.82458 -35184912.14856  20571368.0944                   20571366.6054
 -23547101.10557 -18312088.98054  22578154.0474                   22578154.1684
 -35198351.73058 -27417199.40256  20766307.2034                   20766303.3134
 11  8 15  0  1  0.0000000  0  8G10G28G12G17G05G04G09G02
 -28519864.28548 -22191974.58646  21233817.8834                   21233816.5234
 -50719596.26646 -39514428.50043  23806469.4454                   23806470.3954
 -17046537.34847 -13248787.80545  22477506.6024                   22477505.2664
 -48370960.77747 -37681790.14845  22379561.5164                   22379559.8834
  -8969701.93447  -6951774.58244  23481455.6254                   23481455.8554
 -45183939.62148 -35176733.32446  20573365.1954                   20573363.7974
 -23539290.69947 -18306003.00445  22579640.6254                   22579640.1214
 -35273219.31248 -27475537.75046  20752060.2424                   20752056.7734
 11  8 15  0  1 30.0000000  0  8G10G28G12G17G05G04G09G02
 -28615671.74648 -22266629.71546  21215586.0634                   21215584.6844
 -50669682.14146 -39475534.48842  23815968.2664                   23815968.5434
 -17179376.70347 -13352298.98445  22452227.9924                   22452226.7774
 -48375341.51247 -37685203.72345  22378728.1174                   22378726.5864
  -9121938.29347  -7070400.16845  23452485.5164                   23452486.0124
 -45173047.03948 -35168245.61746  20575438.4614                   20575436.6174
 -23530979.47347 -18299526.76244  22581222.7274                   22581221.9104
 -35347655.70348 -27533540.10546  20737895.1804                   20737891.4964
 11  8 15  0  2  0.0000000  0  8G10G28G12G17G05G04G09G02
 -28710896.66848 -22340830.93046  21197465.6724                   21197464.2384
 -50619467.59446 -39436406.40243  23825524.4454                   23825524.6214
 -17311918.52747 -13455578.31245  22427006.5394                   22427005.0004
 -48379547.28147 -37688480.96145  22377927.8524                   22377926.2934
  -9274046.15647  -7188925.63744  23423540.8054                   23423540.7074
 -45161767.25448 -35159456.19546  20577584.7344                   20577583.0204
 -23522176.88347 -18292667.66044  22582897.2814                   22582896.7854
 -35421667.98048 -27591211.98046  20723811.0084                   20723807.7194
 11  8 15  0  2 30.0000000  0  8G10G28G12G17G05G04G09G02
 -28805541.48848 -22414580.10946  21179455.3364                   21179453.8094
 -50568959.71546 -39397049.69543  23835135.9694                   23835135.4804
 -17444164.98847 -13558627.48845  22401840.6884                   22401839.1174
 -48383582.41847 -37691625.23845  22377159.4844                   22377158.0204
  -9426027.11747  -7307352.22344  23394618.8754                   23394619.4804
 -45150107.39148 -35150370.60946  20579803.5234                   20579801.9024
 -23512890.66847 -18285431.68745  22584664.3834                   22584664.0084
 -35495261.26648 -27648557.36346  20709806.8204                   20709803.1334
 11  8 15  0  3  0.0000000  0  8G10G28G12G17G05G04G09G02
 -28899590.02748 -22487864.65646  21161558.2114                   21161556.4144
 -50518146.51246 -39357455.10943  23844805.2194                   23844805.3984
 -17576099.58247 -13661433.63745  22376734.5704                   22376733.1764
 -48387432.50447 -37694625.31645  22376427.0704                   22376425.8094
  -9577864.69947  -7425667.08244  23365725.3284                   23365725.6054
 -45138056.05948 -35140979.97746  20582096.8914                   20582095.1804
 -23503110.64547 -18277810.92644  22586525.5394                   22586525.8014
 -35568422.53148 -27705566.12146  20695884.3754                   20695881.1374
 11  8 15  0  3 30.0000000  0  8G10G28G12G17G05G04G09G02
 -28993048.28948 -22560689.25446  21143773.7034                   21143772.4414
 -50467038.23446 -39317630.56643  23854530.6334                   23854531.5594
 -17707728.37947 -13764001.51245  22351686.0234                   22351684.0944
 -48391105.40247 -37697487.33645  22375728.1954                   22375727.2544
  -9729564.42247  -7543874.52344  23336857.4304                   23336858.0664
 -45125624.18048 -35131292.82446  20584462.5394                   20584461.0904
 -23492848.14847 -18269814.22744  22588478.4454                   22588478.1564
 -35641160.75048 -27762245.22346  20682042.9384                   20682039.4774
 11  8 15  0  4  0.0000000  0  8G10G28G12G17G05G04G09G02
 -29085916.89848 -22633054.37546  21126101.6024                   21126100.1134
 -50415640.07446 -39277580.15643  23864311.4774                   23864312.5124
 -17839052.09447 -13866331.65245  22326695.9774                   22326694.5164
 -48394603.95347 -37700213.49245  22375062.7344                   22375061.6564
  -9881126.64847  -7661974.80144  23308016.2974                   23308016.3874
 -45112817.19548 -35121313.37146  20586899.4694                   20586898.2544
 -23482109.10547 -18261446.17244  22590521.9304                   22590521.9454
 -35713479.27048 -27818597.28546  20668281.3134                   20668277.6214
 11  8 15  0  4 30.0000000  0  8G10G28G12G17G05G04G09G02
 -29178194.16048 -22704958.71546  21108541.2894                   21108540.0744
 -50363954.12146 -39237305.52743  23874147.4774                   23874147.7304
 -17970068.31247 -13968422.18745  22301764.4454                   22301762.6914
 -48397927.78147 -37702803.51645  22374430.2114                   22374428.5944
 -10032548.52047  -7779965.69944  23279201.1724                   23279201.7974
 -45099637.89148 -35111043.80146  20589407.6644                   20589405.8874
 -23470897.10947 -18252709.59845  22592655.7734                   22592655.3204
 -35785378.98848 -27874623.02346  20654599.1414                   20654595.3244
 11  8 15  0  5  0.0000000  0  8G10G28G12G17G05G04G09G02
 -29269872.37548 -22776396.25846  21091095.8204                   21091094.3014
 -50311976.67646 -39196803.75443  23884038.5004                   23884038.9104
 -18100768.90247 -14070266.77745  22276893.1644                   22276890.9884
 -48401070.55547 -37705252.45345  22373832.1884                   22373830.0744
 -10183821.94147  -7897840.93744  23250415.1024                   23250415.1454
 -45086083.15248 -35100481.68446  20591987.1484                   20591985.5474
 -23459209.87147 -18243602.69944  22594879.5084                   22594879.8484
 -35856855.04348 -27930318.62946  20640997.8754                   20640994.3134
 11  8 15  0  5 30.0000000  0  8G10G28G12G17G05G04G09G02
 -29360946.51248 -22847363.09846  21073764.9224                   21073763.4344
 -50259707.31646 -39156074.45743  23893985.1484                   23893986.0354
 -18231148.54748 -14171861.27345  22252082.3524                   22252080.7194
 -48404029.43047 -37707558.08645  22373268.8674                   22373267.2194
 -10334941.33247  -8015596.19144  23221657.5784                   23221657.8874
 -45072152.49248 -35089626.64146  20594637.9454                   20594636.3594
 -23447047.82447 -18234125.80944  22597193.9144                   22597193.8794
 -35927905.27048 -27985682.41446  20627477.4534                   20627473.6914
 11  8 15  0  6  0.0000000  0  8G10G28G12G17G05G04G09G02
 -29451421.02048 -22917862.68746  21056547.9224                   21056546.9884
 -50207154.13346 -39115124.03943  23903985.6484                   23903986.6414
 -18361211.58247 -14273209.06645  22227332.6254                   22227330.2424
 -48406810.30947 -37709725.03145  22372740.1174                   22372738.6054
 -10485909.77747  -8133233.80544  23192929.2974                   23192930.1174
 -45057854.84848 -35078485.64146  20597359.1174                   20597357.4534
 -23434420.57047 -18224286.43044  22599597.5704                   22599597.1134
 -35998536.96548 -28040720.08246  20614036.5554                   20614032.9224
 11  8 15  0  6 30.0000000  0  8G10G28G12G17G05G04G09G02
 -27965863.88748 -21760285.67645  21339240.1334                   21339239.0744
 -48578894.07446 -37846350.09443  24213833.2814                   24213834.3714
 -16915524.17648 -13146699.34845  22502437.6804                   22502435.6054
 -46833985.35247 -36484147.16845  22672038.4774                   22672036.7344
  -9061293.52047  -7023143.10244  23464024.5554                   23464025.4454
 -43467766.49648 -33839455.77746  20899942.5554                   20899940.7304
 -21845904.91447 -16986482.03944  22901881.5784                   22901881.6954
 -34493321.16848 -26867824.63746  20900469.7974                   20900465.8954
 11  8 15  0  7  0.0000000  0  8G10G28G12G17G05G04G09G02
 -28055123.92248 -21829838.93446  21322255.1174                   21322253.4884
 -48525771.04346 -37804955.63344  24223942.0164                   24223943.3324
 -17044937.52748 -13247540.89846  22477811.0164                   22477808.9884
 -46836399.85947 -36486028.63345  22671579.0004                   22671577.5744
  -9211943.97347  -7140532.94144  23435356.9384                   23435356.9064
 -43452734.01648 -33827742.16846  20902803.0554                   20902801.6884
 -21832348.07447 -16975918.30945  22904461.5784                   22904461.3134
 -34563108.76648 -26922204.55946  20887189.5084                   20887185.6524
 11  8 15  0  7 30.0000000  0  8G10G28G12G17G05G04G09G02
 -28143772.25448 -21898915.52746  21305385.3204                   21305384.0594
 -48472365.12946 -37763340.76243  24234104.7274                   24234106.2774
 -17174020.97347 -13348125.34446  22453247.3364                   22453245.7704
 -46838629.38347 -36487765.96945  22671154.8914                   22671153.5354
  -9362429.44547  -7257794.24644  23406720.2034                   23406720.3404
 -43437336.35248 -33815744.00446  20905733.1644                   20905731.8244
 -21818330.20747 -16964995.32844  22907129.4144                   22907128.8984
 -34632474.00848 -26976255.38746  20873989.6954                   20873985.9964
 11  8 15  0  8  0.0000000  0  8G10G28G12G17G05G04G09G02
 -28231785.77748 -21967497.47746  21288637.0164                   21288635.5864
 -48418656.94146 -37721490.35243  24244324.8914                   24244326.4654
 -17302751.10948 -13448434.50446  22428750.8364                   22428748.6724
 -46840652.21147 -36489342.23445  22670769.8524                   22670768.5824
  -9512726.76647  -7374908.94544  23378119.5864                   23378119.5164
 -43421555.06248 -33803446.90246  20908736.5634                   20908734.7034
 -21803833.41447 -16953699.17245  22909887.5394                   22909887.5744
 -34701396.73848 -27029961.39146  20860874.0944                   20860870.4574
 11  8 15  0  8 30.0000000  0  8G10G28G12G17G05G04G09G02
 -28319172.07848 -22035590.68446  21272007.9924                   21272006.1604
 -48364658.58246 -37679413.84843  24254600.8364                   24254602.4414
 -17431134.96547 -13548473.79746  22404320.4224                   22404318.1914
 -46842477.89547 -36490764.86745  22670422.8524                   22670421.0044
  -9662842.47347  -7491882.10945  23349553.3134                   23349553.3754
 -43405402.37148 -33790860.40646  20911809.9844                   20911808.0274
 -21788870.55547 -16942039.84044  22912735.3594                   22912734.7544
 -34769887.34448 -27083330.68746  20847841.0394                   20847837.2194
 11  8 15  0  9  0.0000000  0  8G10G28G12G17G05G04G09G02
 -28405940.15648 -22103202.14846  21255496.5634                   21255495.1884
 -48310382.78545 -37637121.12143  24264928.1644                   24264931.0314
 -17559180.85247 -13648249.78146  22379952.9694                   22379951.3444
 -46844116.10547 -36492041.44545  22670110.8444                   22670109.1644
  -9812784.03547  -7608719.62944  23321020.0784                   23321020.3164
 -43388891.42648 -33777994.75046  20914952.1254                   20914950.2504
 -21773455.51247 -16930028.16844  22915668.4224                   22915667.5944
 -34837956.98848 -27136371.94946  20834887.8524                   20834883.8634
 11  8 15  0  9 30.0000000  0  8G10G28G12G17G05G04G09G02
 -28492094.75448 -22170335.58246  21239101.8834                   21239100.5474
 -48255838.34845 -37594619.13743  24275308.6334                   24275310.0984
 -17686893.32848 -13747765.93745  22355650.2504                   22355648.6604
 -46845573.57847 -36493177.19145  22669833.4064                   22669832.0824
  -9962556.04347  -7725424.96944  23292519.9224                   23292519.3554
 -43372031.45748 -33764857.12946  20918160.4304                   20918158.8914
 -21757598.64847 -16917672.20344  22918685.8914                   22918685.4104
 -34905613.48448 -27189091.28946  20822013.0234                   20822009.2074
 11  8 15  0 10  0.0000000  0  8G10G28G12G17G05G04G09G02
 -28577617.55148 -22236976.70746  21222827.6484                   21222826.4264
 -48201010.71945 -37551896.39543  24285742.2114                   24285743.7974
 -17814253.17648 -13847007.34445  22331414.7194                   22331412.5554
 -46846833.21147 -36494158.77045  22669594.0634                   22669592.7584
 -10112138.78547  -7841982.82045  23264055.1094                   23264054.8134
 -43354808.48448 -33751436.64846  20921437.7194                   20921436.3054
 -21741286.89147 -16904961.79745  22921790.6954                   22921790.1174
 -34972840.98848 -27241476.34846  20809219.8524                   20809216.2504
 11  8 15  0 10 30.0000000  0  8G10G28G12G17G05G04G09G02
 -28662516.54348 -22303131.74246  21206671.6254                   21206670.5594
 -48145912.34845 -37508962.77343  24296227.4694                   24296229.1724
 -17941268.31647 -13945980.16445  22307244.7194                   22307243.2934
 -46847904.73447 -36494993.77745  22669389.8834                   22669388.7464
 -10261539.74647  -7958399.05945  23235625.0634                   23235624.8094
 -43337235.10548 -33737743.12146  20924781.8754                   20924780.3594
 -21724533.27047 -16891907.07844  22924978.1484                   22924978.2664
 -35039650.48848 -27293535.68746  20796506.4304                   20796502.3484
 11  8 15  0 11  0.0000000  0  8G10G28G12G17G05G04G09G02
 -28746793.83248 -22368802.32846  21190634.0784                   21190632.6564
 -48090549.41045 -37465822.93043  24306763.4694                   24306764.0234
 -18067940.31648 -14044685.57445  22283140.1414                   22283137.5864
 -46848791.50447 -36495684.81645  22669221.2894                   22669219.8874
 -10410760.12547  -8074674.56245  23207228.9774                   23207229.3954
 -43319318.01648 -33723781.77046  20928191.1884                   20928190.3524
 -21707345.53547 -16878514.11344  22928248.4304                   22928248.7584
 -35106046.82048 -27345273.07446  20783871.9454                   20783867.8794
 11  8 15  0 11 30.0000000  0  8G10G28G12G17G05G04G09G02
 -28830437.68048 -22433979.33246  21174717.5474                   21174715.5594
 -48034913.96146 -37422470.71143  24317350.0234                   24317351.0044
 -18194256.39848 -14143113.68445  22259102.2114                   22259100.2424
 -46849483.27747 -36496223.91445  22669089.8594                   22669088.4304
 -10559787.06247  -8190799.34045  23178869.9614                   23178870.3874
 -43301049.52048 -33709546.59446  20931667.8284                   20931665.9654
 -21689716.97747 -16864777.62945  22931603.3364                   22931603.8594
 -35172020.75448 -27396681.31646  20771317.6724                   20771313.7974
 11  8 15  0 12  0.0000000  0  8G10G28G12G17G05G04G09G02
 -28913443.85548 -22498659.45746  21158921.9774                   21158920.7344
 -47979005.87946 -37378906.07442  24327989.1644                   24327990.6564
 -18320212.16848 -14241261.02346  22235133.9384                   22235131.9574
 -46849977.61347 -36496609.16845  22668996.0164                   22668994.3364
 -10708615.44547  -8306769.39845  23150548.8054                   23150549.4414
 -43282429.66048 -33695037.63346  20935211.0554                   20935209.2424
 -21671648.65247 -16850698.49245  22935041.7344                   22935042.0554
 -35237570.68448 -27447759.18046  20758843.5864                   20758839.6214
 11  8 15  0 12 30.0000000  0  8G10G28G12G17G05G04G09G02
 -28995804.90648 -22562836.87946  21143249.1644                   21143247.3634
 -47922820.98846 -37335125.73443  24338680.1884                   24338682.3954
 -18445798.70348 -14339120.64846  22211235.6174                   22211234.1454
 -46850267.57447 -36496835.16445  22668940.7584                   22668939.0124
 -10857236.43047  -8422577.84445  23122267.1024                   23122267.5204
 -43263454.89848 -33680252.12546  20938821.5394                   20938820.5314
 -21653137.96547 -16836274.64544  22938564.2114                   22938564.7504
 -35302691.33648 -27498502.52346  20746451.7194                   20746447.9064
 11  8 15  0 13  0.0000000  0  8G10G28G12G17G05G04G09G02
 -29077530.60948 -22626519.22746  21127697.0394                   21127695.7034
 -47866373.71946 -37291140.92243  24349422.6094                   24349424.5044
 -18571025.32048 -14436699.81646  22187406.0164                   22187403.8954
 -46850364.42247 -36496910.67645  22668922.1564                   22668920.9884
 -11005658.37547  -8538231.20745  23094023.9144                   23094023.8794
 -43244139.57848 -33665201.24646  20942497.2424                   20942495.9414
 -21634199.76647 -16821517.67645  22942168.7274                   22942168.4454
 -35367395.28148 -27548921.16046  20734138.8754                   20734134.9144
 11  8 15  0 13 30.0000000  0  7G10G12G17G05G04G09G02
 -29158616.20348 -22689702.79346  21112267.0554                   21112265.2814
 -18695887.30548 -14533994.84446  22163645.2274                   22163643.3954
 -46850264.98047 -36496833.24645  22668941.2974                   22668939.9384
 -11153876.23047  -8653725.52745  23065818.2584                   23065818.3554
 -43224483.58648 -33649884.90646  20946238.0634                   20946236.5394
 -21614834.93047 -16806428.25844  22945853.2734                   22945853.5474
 -35431680.91848 -27599013.85246  20721905.5394                   20721901.9774
 11  8 15  0 14  0.0000000  0  7G10G12G17G05G04G09G02
 -29239058.18048 -22752384.82446  21096958.9304                   21096958.1094
 -18820379.97748 -14631002.12546  22139955.1884                   22139953.0434
 -46849967.00447 -36496601.09845  22668998.1644                   22668996.7194
 -11301885.48047  -8769057.30145  23037652.8284                   23037653.0204
 -43204487.40648 -33634303.49246  20950042.9224                   20950041.9534
 -21595044.94147 -16791007.56644  22949619.4064                   22949619.5594
 -35495547.01648 -27648779.62546  20709752.3444                   20709748.1604
 11  8 15  0 14 30.0000000  0  7G10G12G17G05G04G09G02
 -29318851.19548 -22814561.18746  21081775.2814                   21081773.7384
 -18944497.21948 -14727716.82846  22116336.4614                   22116334.7234
 -46849466.53547 -36496211.16445  22669093.1334                   22669091.5944
 -11449679.46947  -8884221.34045  23009528.6414                   23009528.8754
 -43184149.79348 -33618456.02046  20953913.5314                   20953912.1764
 -21574829.54747 -16775255.38344  22953465.7814                   22953465.8094
 -35558990.73848 -27698216.27746  20697679.4454                   20697675.4264
 11  8 15  0 15  0.0000000  0  7G10G12G17G05G04G09G02
 -29397978.99648 -22876219.19546  21066717.7424                   21066716.9614
 -19068222.05548 -14824125.77046  22092792.5784                   22092790.5234
 -46848748.05947 -36495651.34045  22669229.7734                   22669228.3324
 -11597240.64847  -8999203.96945  22981448.4534                   22981448.5234
 -43163458.75448 -33602333.15646  20957850.7974                   20957849.2114
 -21554177.65847 -16759163.07444  22957395.3284                   22957396.3834
 -35621998.42248 -27747313.16046  20685689.4384                   20685685.4024
 11  8 15  0 15 30.0000000  0  7G10G12G17G05G04G09G02
 -29476462.06648 -22937374.82046  21051782.6954                   21051781.3594
 -19191574.10947 -14920244.23846  22069319.6414                   22069317.3404
 -46847833.89147 -36494939.03945  22669404.2424                   22669402.4774
 -11744588.49247  -9114020.37945  22953409.3284                   22953409.3524
 -43142438.98448 -33585954.12946  20961850.5944                   20961848.8554
 -21533114.92247 -16742750.62144  22961404.5084                   22961404.3014
 -35684593.02348 -27796088.14846  20673778.2894                   20673774.1844
 11  8 15  0 16  0.0000000  0  7G10G12G17G05G04G09G02
 -29554280.86748 -22998012.82846  21036974.6884                   21036972.9804
 -19314533.27348 -15016056.57046  22045920.9304                   22045919.1334
 -46846704.98047 -36494059.41045  22669619.4774                   22669617.3524
 -11891702.05947  -9228654.23045  22925414.1954                   22925414.1914
 -43121074.68748 -33569306.64546  20965915.9304                   20965914.5124
 -21511626.54747 -16726006.49244  22965493.4224                   22965493.3794
 -35746757.57848 -27844528.03947  20661948.4224                   20661944.4804
 11  8 15  0 16 30.0000000  0  7G10G12G17G05G04G09G02
 -29631434.70348 -23058132.68046  21022292.1804                   21022290.9774
 -19437097.98048 -15111561.53545  22022597.3364                   22022595.6804
 -46845362.53147 -36493013.36745  22669874.6484                   22669872.7894
 -12038579.70747  -9343104.27345  22897464.6414                   22897464.1094
 -43099369.70748 -33552393.69146  20970046.5394                   20970044.8134
 -21489717.33647 -16708934.44544  22969662.5784                   22969662.5554
 -35808494.08648 -27892634.39546  20650200.3754                   20650196.8554
 11  8 15  0 17  0.0000000  0  7G10G12G17G05G04G09G02
 -29707937.88748 -23117745.54746  21007734.6334                   21007732.9964
 -19559281.62948 -15206769.56246  21999346.6564                   21999345.0864
 -46843821.60547 -36491812.66845  22670167.6484                   22670166.4734
 -12185234.27347  -9457380.48045  22869556.6724                   22869556.2074
 -43077342.12148 -33535229.35546  20974238.0474                   20974236.8794
 -21467406.29747 -16691549.28544  22973908.2344                   22973908.6054
 -35869819.23448 -27940420.20346  20638530.6644                   20638526.5514
 11  8 15  0 17 30.0000000  0  7G10G12G17G05G04G09G02
 -29783788.59848 -23176849.96946  20993300.1564                   20993298.9304
 -19681081.18048 -15301678.29346  21976169.2664                   21976167.1414
 -46842081.52047 -36490456.79345  22670498.6954                   22670496.9774
 -12331662.71147  -9571480.46145  22841692.4924                   22841692.0514
 -43054994.18448 -33517815.39846  20978490.7664                   20978489.1374
 -21444696.62147 -16673853.49644  22978230.7114                   22978229.9184
 -35930733.67648 -27987885.98846  20626938.8984                   20626934.7974
 11  8 15  0 18  0.0000000  0  7G10G12G17G05G04G09G02
 -29858971.72348 -23235434.20746  20978993.2424                   20978992.3594
 -19802481.23048 -15396275.73046  21953067.7504                   21953065.1844
 -46840128.19947 -36488934.76245  22670870.2274                   22670869.1804
 -12477848.75847  -9685391.57445  22813873.8524                   22813873.4414
 -43032314.79348 -33500143.16046  20982806.2814                   20982805.2234
 -21421578.18047 -16655839.18044  22982629.4614                   22982629.2154
 -35991224.69148 -28035021.83246  20615427.8914                   20615423.7664
 11  8 15  0 18 30.0000000  0  7G10G12G17G05G04G09G02
 -29933498.85948 -23293507.27346  20964811.7274                   20964810.3054
 -19923491.98048 -15490569.80146  21930040.1174                   21930037.5474
 -46837974.25447 -36487256.37145  22671280.5164                   22671278.7854
 -12623802.25847  -9799121.48445  22786099.8834                   22786099.7344
 -43009319.44548 -33482224.72346  20987182.3204                   20987181.0784
 -21398067.90647 -16637519.53144  22987103.5164                   22987103.4884
 -36051306.54348 -28081838.84046  20603994.9144                   20603990.9654
 11  8 15  0 19  0.0000000  0  7G10G12G17G05G04G09G02
 -30007377.53548 -23351075.06646  20950753.0084                   20950751.4844
 -20044120.20348 -15584565.80546  21907084.8754                   21907082.8444
 -46835628.20747 -36485428.29345  22671727.1644                   22671724.9344
 -12769529.78947  -9912675.32045  22758368.6564                   22758368.6024
 -42986019.33648 -33464068.80546  20991616.3914                   20991614.9844
 -21374177.91847 -16618904.02344  22991649.0234                   22991649.8484
 -36110988.76248 -28128344.45346  20592637.4694                   20592633.8164
 11  8 15  0 19 30.0000000  0  7G10G12G17G05G04G09G02
 -30080599.22347 -23408130.90246  20936818.9224                   20936817.8484
 -20164356.11748 -15678256.10546  21884205.4694                   21884202.7154
 -46833082.52747 -36483444.67245  22672211.2424                   22672209.8674
 -12915021.15647 -10026045.13745  22730682.7584                   22730682.1884
 -42962410.32448 -33445672.17646  20996108.9224                   20996107.5314
 -21349904.80147 -16599989.96944  22996268.2664                   22996268.9104
 -36170265.23448 -28174533.89846  20581357.8284                   20581353.6644
 11  8 15  0 20  0.0000000  0  7G10G12G17G05G04G09G02
 -30153154.65248 -23464667.57846  20923012.5314                   20923010.4924
 -20284189.53548 -15771632.78546  21861401.0164                   21861398.9384
 -46830328.80547 -36481298.93745  22672735.3284                   22672734.0514
 -13060265.52047 -10139222.47345  22703043.4534                   22703043.5044
 -42938486.57448 -33427030.30146  21000661.6884                   21000659.8794
 -21325244.03547 -16580773.84844  23000961.2114                   23000961.7544
 -36229129.87948 -28220402.44946  20570155.8134                   20570151.8874
 11  8 15  0 20 30.0000000  0  7G10G12G17G05G04G09G02
 -30225050.92648 -23520690.62946  20909331.0864                   20909329.7034
 -20403626.66448 -15864700.67246  21838673.3364                   21838671.3674
 -46827375.11747 -36478997.39845  22673297.7424                   22673296.4264
 -13205268.67647 -10252211.85945  22675450.0704                   22675450.0984
 -42914259.16848 -33408151.80546  21005271.7894                   21005270.5944
 -21300207.63747 -16561265.03544  23005725.0234                   23005725.6764
 -36287591.19548 -28265956.71146  20559031.1254                   20559027.4534
 11  8 15  0 21  0.0000000  0  7G10G12G17G05G04G09G02
 -30296274.81248 -23576189.74246  20895777.2424                   20895775.7384
 -20522653.10548 -15957448.52746  21816023.3754                   21816021.2194
 -46824209.30147 -36476530.56245  22673900.3284                   22673898.7194
 -13350015.96947 -10365001.88345  22647905.6174                   22647905.7344
 -42889718.59048 -33389029.28946  21009941.8984                   21009940.5944
 -21274787.13347 -16541456.91444  23010563.1414                   23010563.3554
 -36345638.39848 -28311188.29346  20547985.1954                   20547981.5044
 11  8 15  0 21 30.0000000  0  7G10G12G17G05G04G09G02
 -30366844.34448 -23631178.95746  20882348.5164                   20882347.0944
 -20641285.84448 -16049889.58646  21793448.4064                   21793446.2154
 -46820850.53947 -36473913.38745  22674538.9534                   22674537.4414
 -13494524.33647 -10477605.72345  22620406.6804                   22620406.4654
 -42864886.97348 -33369679.97346  21014666.9304                   21014665.5274
 -21249005.77047 -16521367.59044  23015468.9694                   23015469.9064
 -36403292.04348 -28356113.21146  20537014.1174                   20537010.1884
 11  8 15  0 22  0.0000000  0  7G10G12G17G05G04G09G02
 -30436751.14548 -23685651.77046  20869045.6884                   20869044.0274
 -20759515.38748 -16142016.50046  21770949.3984                   21770947.4734
 -46817290.64147 -36471139.47345  22675215.9924                   22675215.1684
 -13638783.37547 -10590015.28145  22592954.8444                   22592954.1484
 -42839759.28548 -33350099.96146  21019448.8524                   21019447.4534
 -21222859.19147 -16500993.69544  23020444.3134                   23020445.0944
 -36460546.24248 -28400726.86346  20526119.0474                   20526114.8404
 11  8 15  0 22 30.0000000  0  7G10G12G17G05G04G09G02
 -30506002.56248 -23739613.89846  20855867.5234                   20855866.0274
 -20877348.28547 -16233834.32446  21748527.2424                   21748525.2424
 -46813538.21147 -36468215.54745  22675930.3444                   22675929.1524
 -13782799.14547 -10702235.28145  22565549.6414                   22565549.4264
 -42814347.02748 -33330298.21146  21024284.3204                   21024283.1914
 -21196360.27047 -16480345.23844  23025487.5704                   23025487.5394
 -36517410.59448 -28445036.75046  20515297.8204                   20515293.8914
 11  8 15  0 23  0.0000000  0  7G10G12G17G05G04G09G02
 -30574581.28148 -23793051.85246  20842817.3364                   20842816.1024
 -20994765.78948 -16325328.46546  21726183.2114                   21726181.5514
 -46809577.07847 -36465129.00445  22676684.6024                   22676682.6764
 -13926552.70347 -10814250.97345  22538194.4534                   22538193.8244
 -42788636.59048 -33310264.11746  21029177.0944                   21029175.5594
 -21169496.55547 -16459412.52044  23030599.3914                   23030599.1524
 -36573870.27748 -28489031.31246  20504554.1414                   20504550.1374
 11  8 15  0 23 30.0000000  0  7G10G12G17G05G04G09G02
 -30642497.36748 -23845973.46146  20829893.6884                   20829892.0514
 -21111776.55148 -16416505.64546  21703916.9774                   21703915.0354
 -46805417.31647 -36461887.68045  22677476.2814                   22677475.2344
 -14070052.46547 -10926068.88745  22510887.4774                   22510886.6174
 -42762641.20748 -33290007.97746  21034123.6954                   21034122.3754
 -21142282.72347 -16438207.01644  23035778.0944                   23035777.9654
 -36629937.32448 -28532719.92646  20493884.9304                   20493880.9064
 11  8 15  0 24  0.0000000  0  7G10G12G17G05G04G09G02
 -29134331.77748 -22670779.47746  21116888.0164                   21116886.5354
 -19652959.12148 -15279764.77746  21981520.6174                   21981518.3794
 -45225643.59847 -35230895.21545  22978096.8914                   22978095.8484
 -12637874.92247  -9810086.30945  22783421.4774                   22783420.5784
 -41160948.79748 -32041935.98046  21338915.6414                   21338914.1454
 -19539307.49247 -15189135.45344  23340814.4384                   23340814.7234
 -35110195.17248 -27348505.25446  20783082.4064                   20783078.3094
 11  8 15  0 24 30.0000000  0  7G10G12G17G05G04G09G02
 -29200919.93748 -22722666.33646  21104216.5704                   21104215.0164
 -19769150.53148 -15370303.52746  21959410.0474                   21959407.8554
 -45221086.94547 -35227344.62945  22978963.8444                   22978962.8984
 -12780859.04747  -9921502.44145  22756212.4534                   22756211.9964
 -41134391.96948 -32021242.35946  21343969.3674                   21343968.0164
 -19511404.44347 -15167392.89244  23346123.9614                   23346124.7814
 -35165480.77748 -27391584.94946  20772561.6564                   20772557.5744
 11  8 15  0 25  0.0000000  0  7G10G12G17G05G04G09G02
 -29266841.57448 -22774033.82846  21091672.1414                   21091670.4844
 -19884928.48847 -15460520.09846  21937378.0944                   21937376.2734
 -45216330.60247 -35223638.43745  22979869.2814                   22979868.0594
 -12923581.02747 -10032714.29745  22729053.3204                   22729053.1684
 -41107557.46548 -32000332.36746  21349075.5314                   21349074.3324
 -19483161.77347 -15145385.68444  23351498.1254                   23351498.6914
 -35220376.78948 -27434361.05947  20762115.6024                   20762111.5514
 11  8 15  0 25 30.0000000  0  7G10G12G17G05G04G09G02
 -29332090.01248 -22824876.76646  21079255.7344                   21079254.4964
 -20000284.25848 -15550407.68446  21915427.0004                   21915424.4574
 -45211368.20847 -35219771.67145  22980813.6414                   22980812.5044
 -13066031.91047 -10143714.91045  22701945.8054                   22701945.3324
 -41080441.84848 -31979203.33246  21354235.6174                   21354234.0204
 -19454577.15647 -15123112.02744  23356937.6174                   23356938.9964
 -35274878.47748 -27476829.90646  20751743.7894                   20751739.7194
 11  8 15  0 26  0.0000000  0  7G10G12G17G05G04G09G02
 -29396672.95348 -22875201.12946  21066965.9774                   21066964.2814
 -20115224.45748 -15639971.46146  21893554.4694                   21893552.1094
 -45206208.21547 -35215750.93745  22981795.4694                   22981794.4964
 -13208217.54347 -10254508.85245  22674888.3364                   22674887.7894
 -41053056.56248 -31957864.16446  21359446.8594                   21359445.7854
 -19425663.14847 -15100581.71544  23362439.8284                   23362440.5704
 -35328995.84048 -27518999.27046  20741445.8914                   20741442.2304
 11  8 15  0 26 30.0000000  0  7G10G12G17G05G04G09G02
 -29460583.09848 -22925001.22746  21054804.2894                   21054802.8134
 -20229740.31648 -15729204.59446  21871762.7424                   21871760.8094
 -45200843.87547 -35211570.97745  22982816.2504                   22982815.3914
 -13350129.09047 -10365089.20745  22647883.5084                   22647883.3634
 -41025397.43448 -31936311.61746  21364710.3284                   21364709.3204
 -19396416.72747 -15077792.36744  23368005.5634                   23368006.2464
 -35382723.28948 -27560864.81646  20731221.9384                   20731217.9064
 11  8 15  0 27  0.0000000  0  8G10G25G12G17G05G04G09G02
 -29523815.13748 -22974272.93746  21042771.6334                   21042770.2154
   2936598.12956   2318062.78953  24739825.4924                   24739827.7934
 -20343825.09848 -15818101.79346  21850052.9844                   21850051.5824
 -45195270.29747 -35207227.95745  22983877.0164                   22983875.7584
 -13491759.06247 -10475450.16045  22620932.4694                   22620931.7544
 -40997462.34848 -31914544.03546  21370026.2814                   21370024.9414
 -19366837.11747 -15054743.37944  23373634.6644                   23373635.5824
 -35436057.59848 -27602424.01646  20721072.8984                   20721068.6294
 11  8 15  0 27 30.0000000  0  8G10G25G12G17G05G04G09G02
 -29586398.59848 -23023039.25846  21030862.3594                   21030860.8404
   2789781.70746   2203660.43443  24711887.4534                   24711889.3714
 -20457507.23448 -15906685.26246  21828420.0634                   21828417.7074
 -45189517.76247 -35202745.51245  22984971.5864                   22984970.4804
 -13633135.44547 -10585613.50045  22594028.9304                   22594028.7194
 -40969284.47748 -31892587.28146  21375388.2034                   21375386.7974
 -19336958.16847 -15031461.14844  23379320.1804                   23379321.2154
 -35489030.59448 -27643701.66846  20710992.3204                   20710988.4024
 11  8 15  0 28  0.0000000  0  8G10G25G12G17G05G04G09G02
 -29648315.18448 -23071285.93746  21019079.8834                   21019078.4414
   2643127.52046   2089384.49244  24683979.8834                   24683982.3204
 -20570767.30548 -15994939.85246  21806867.3984                   21806865.3204
 -45183568.73847 -35198109.93445  22986103.7114                   22986102.5394
 -13774238.15247 -10695563.60945  22567178.5084                   22567177.6454
 -40940849.09448 -31870429.85946  21380799.5164                   21380797.9614
 -19306766.73047 -15007935.42244  23385065.4384                   23385066.2704
 -35541626.21148 -27684685.26646  20700983.5944                   20700979.5274
 11  8 15  0 28 30.0000000  0  8G10G25G12G17G05G04G09G02
 -29709567.81648 -23119015.26246  21007424.2894                   21007422.2894
   2496634.06346   1975233.81344  24656103.4694                   24656105.7464
 -20683606.68048 -16082866.62546  21785394.8834                   21785392.3094
 -45177426.55547 -35193323.85245  22987272.1804                   22987271.3244
 -13915068.28547 -10805301.31245  22540379.0314                   22540378.5044
 -40912162.52748 -31848076.71546  21386258.7424                   21386256.6334
 -19276270.03147 -14984171.82044  23390869.0234                   23390869.1764
 -35593849.54748 -27725378.76646  20691045.6484                   20691041.8674
 11  8 15  0 29  0.0000000  0  8G10G25G12G17G05G04G09G02
 -29770152.43448 -23166224.04346  20995895.0634                   20995893.4384
   2350306.86747   1861212.68444  24628258.1884                   24628260.4184
 -20796019.54348 -16170461.06246  21764003.3054                   21764001.2274
 -45171087.41447 -35188384.30545  22988479.0314                   22988478.0164
 -14055619.72747 -10914821.85945  22513633.1414                   22513632.3484
 -40883223.60248 -31825526.92646  21391765.3134                   21391764.0354
 -19245468.57847 -14960170.74644  23396729.7664                   23396730.4734
 -35645698.39848 -27765780.46146  20681179.3134                   20681175.5514
 11  8 15  0 29 30.0000000  0  8G10G25G12G17G05G04G09G02
 -29830065.57848 -23212909.59846  20984493.8754                   20984492.6174
   2204150.78147   1747324.87144  24600445.6174                   24600448.1644
 -20908001.20748 -16257719.48846  21742693.9454                   21742691.5864
 -45164548.27047 -35183288.91045  22989723.0784                   22989722.3094
 -14195887.03547 -11024121.00445  22486940.9534                   22486940.0314
 -40854032.23448 -31802780.43446  21397320.2034                   21397319.0044
 -19214363.31247 -14935932.94544  23402649.0234                   23402649.2584
 -35697171.19948 -27805889.12946  20671384.4774                   20671380.8364
 11  8 15  0 30  0.0000000  0  8G10G25G12G17G05G04G09G02
 -29889326.91448 -23259087.25846  20973216.9694                   20973215.3484
   2058147.75446   1633556.32043  24572661.6174                   24572664.1454
 -21019569.68048 -16344655.94946  21721463.4064                   21721461.1484
 -45157829.50847 -35178053.55145  22991001.7504                   22991000.7034
 -14335888.04747 -11133212.64145  22460299.7734                   22460298.6804
 -40824611.08248 -31779854.88746  21402918.8754                   21402917.5234
 -19182978.20347 -14911477.06644  23408622.2424                   23408621.9224
 -35748289.69948 -27845721.71946  20661656.8594                   20661652.8404
 11  8 15  0 30 30.0000000  0  8G10G25G12G17G05G04G09G02
 -29947918.98048 -23304743.40246  20962067.3674                   20962065.8244
   1912316.39546   1519921.55543  24544911.2424                   24544912.9264
 -21130706.36348 -16431255.95746  21700314.6174                   21700312.2734
 -45150914.14847 -35172664.98445  22992317.4144                   22992316.4304
 -14475603.47747 -11242081.75445  22433712.8284                   22433711.9574
 -40794946.31248 -31756739.51246  21408564.0554                   21408562.6804
 -19151300.35947 -14886793.09443  23414649.7194                   23414649.7424
 -35799038.70348 -27885266.38346  20651999.5394                   20651995.6764
 11  8 15  0 31  0.0000000  0  8G10G25G12G17G05G04G09G02
 -30005839.53548 -23349876.28546  20951045.4774                   20951043.6134
   1766660.71546   1406423.64843  24517194.0004                   24517195.7774
 -21241407.21948 -16517516.35946  21679248.9694                   21679246.3054
 -45143800.24647 -35167121.73445  22993671.8594                   22993670.7734
 -14615028.85947 -11350724.85545  22407180.4924                   22407180.0744
 -40765038.63748 -31733434.86346  21414255.2194                   21414253.5944
 -19119332.03147 -14861882.77344  23420733.3444                   23420734.0394
 -35849417.51248 -27924522.58246  20642412.7664                   20642408.9654
 11  8 15  0 31 30.0000000  0  8G10G25G12G17G05G04G09G02
 -30063091.53548 -23394488.23046  20940150.3594                   20940149.1214
   1621179.51646   1293061.67643  24489509.3444                   24489510.9654
 -21351673.57448 -16603438.18446  21658266.0634                   21658263.4964
 -45136490.81647 -35161426.10945  22995063.1644                   22995061.1844
 -14754164.95347 -11459142.53945  22380704.0164                   22380703.3834
 -40734893.66048 -31709945.29746  21419991.6954                   21419990.4024
 -19087080.32047 -14836751.62144  23426870.7974                   23426871.0354
 -35899430.61348 -27963493.81646  20632895.7974                   20632891.7344
 11  8 15  0 32  0.0000000  0  8G10G25G12G17G05G04G09G02
 -30119664.32848 -23438570.92646  20929385.2664                   20929383.5514
   1475884.89146   1179845.16843  24461861.2274                   24461862.2624
 -21461493.27348 -16689011.98446  21637367.8524                   21637365.1804
 -45128975.66047 -35155570.19545  22996492.3594                   22996491.9414
 -14892999.14147 -11567324.96545  22354284.3364                   22354283.5664
 -40704504.27748 -31686265.29746  21425774.4694                   21425773.2664
 -19054538.93747 -14811394.75444  23433063.4224                   23433063.6294
 -35949069.75448 -28002173.66046  20623450.0004                   20623445.8404
 11  8 15  0 32 30.0000000  0  8G10G25G12G17G05G04G09G02
 -30175561.89148 -23482127.44946  20918748.2814                   20918746.6094
   1330774.55546   1066772.20743  24434247.1024                   24434248.2664
 -21570868.67248 -16774239.54746  21616554.5004                   21616552.5274
 -45121259.12947 -35149557.34845  22997961.1174                   22997959.7544
 -15031533.51647 -11675273.77045  22327922.0004                   22327921.5864
 -40673877.32448 -31662400.16845  21431602.4614                   21431600.9144
 -19021715.77747 -14785818.33244  23439309.2894                   23439309.6954
 -35998340.66048 -28040566.55946  20614073.5944                   20614069.4534
 11  8 15  0 33  0.0000000  0  8G10G25G12G17G05G04G09G02
 -30230780.12148 -23525154.62546  20908240.6804                   20908238.7034
   1185854.31346    953847.40243  24406669.3754                   24406671.3324
 -21679794.24248 -16859116.60946  21595826.5474                   21595824.1764
 -45113337.03947 -35143384.32844  22999468.9224                   22999467.4264
 -15169761.58248 -11782983.89145  22301618.8444                   22301617.7344
 -40643011.57848 -31638348.96945  21437476.5634                   21437474.7854
 -18988611.12147 -14760022.56244  23445608.8054                   23445609.8284
 -36047241.14848 -28078670.84046  20604768.0634                   20604764.2734
 11  8 15  0 33 30.0000000  0  8G10G25G12G17G05G04G09G02
 -30285322.62148 -23567655.27046  20897861.4144                   20897860.1294
   1041122.16446    841069.16043  24379127.9144                   24379129.1724
 -21788271.81648 -16943644.57846  21575184.0234                   21575182.0084
 -45105213.40247 -35137054.28144  23001015.0634                   23001013.2194
 -15307684.89847 -11890456.54345  22275372.5084                   22275371.8284
 -40611913.59448 -31614116.82046  21443394.1254                   21443393.0004
 -18955232.83247 -14734013.53544  23451960.7584                   23451961.3874
 -36095776.95748 -28116490.94546  20595532.3364                   20595527.8794
 11  8 15  0 34  0.0000000  0  8G10G25G12G17G05G04G09G02
 -30339175.53148 -23609618.56246  20887613.5554                   20887611.7234
    896593.57846    728449.52343  24351625.1414                   24351626.6024
 -21896285.60248 -17027811.14546  21554629.3834                   21554627.8754
 -45096874.91047 -35130556.80144  23002601.3674                   23002600.4884
 -15445287.50447 -11997679.28545  22249187.4844                   22249187.0234
 -40580572.71948 -31589695.39545  21449358.0394                   21449356.7814
 -18921571.83647 -14707784.26244  23458366.5004                   23458366.9494
 -36143935.61348 -28154017.16046  20586367.9144                   20586364.0004
 11  8 15  0 34 30.0000000  0  8G10G25G12G17G05G04G09G02
 -30392368.89548 -23651067.92646  20877491.3444                   20877489.4774
    752240.23046    615966.42643  24324155.6884                   24324157.4614
 -22003864.48848 -17111638.83246  21534157.8594                   21534155.9024
 -45088351.92647 -35123915.57045  23004223.2584                   23004222.5044
 -15582597.60247 -12104674.10545  22223058.3364                   22223057.5234
 -40549022.00848 -31565110.45746  21455362.0314                   21455360.5664
 -18887662.07847 -14681361.12944  23464819.3914                   23464819.4224
 -36191749.21548 -28191274.50846  20577269.2734                   20577265.4614
 11  8 15  0 35  0.0000000  0  8G10G25G12G17G05G04G09G02
 -30444882.92648 -23691987.94146  20867498.0784                   20867496.8364
    608084.02346    503636.94944  24296723.3134                   24296725.0664
 -22110987.10548 -17195110.99246  21513773.0944                   21513771.1524
 -45079624.41847 -35117114.96144  23005884.2734                   23005882.9304
 -15719592.59047 -12211423.38745  22196989.0704                   22196988.3984
 -40517244.26648 -31540348.62946  21461408.9774                   21461408.0164
 -18853487.69947 -14654731.78944  23471322.4064                   23471322.8484
 -36239199.52348 -28228248.76646  20568239.6484                   20568235.9224
 11  8 15  0 35 30.0000000  0  8G10G25G12G17G05G04G09G02
 -30496725.28948 -23732384.57446  20857632.6884                   20857631.1174
    464119.02346    391456.45344  24269327.4694                   24269329.4064
 -22217659.07848 -17278231.99646  21493474.3594                   21493471.7464
 -45070700.10547 -35110161.00845  23007582.2194                   23007581.3134
 -15856278.26647 -12317931.65245  22170978.6334                   22170977.9414
 -40485249.79748 -31515417.90645  21467497.5784                   21467495.8204
 -18819060.66847 -14627905.58644  23477873.7344                   23477873.8444
 -36286295.86748 -28264947.21546  20559277.6804                   20559273.2704
 11  8 15  0 36  0.0000000  0  8G10G25G12G17G05G04G09G02
 -30547894.61348 -23772256.76246  20847895.8054                   20847894.2074
    320348.34047    279427.38344  24241969.2814                   24241971.4264
 -22323877.40248 -17360999.51246  21473261.5864                   21473259.4884
 -45061578.06247 -35103052.97345  23009318.2114                   23009317.5084
 -15992650.93747 -12424196.01645  22145027.6414                   22145026.7624
 -40453040.30548 -31490319.64845  21473626.8674                   21473625.5744
 -18784383.77047 -14600884.69544  23484472.6954                   23484472.7154
 -36333039.11748 -28301370.52046  20550382.8754                   20550378.9964
 11  8 15  0 36 30.0000000  0  8G10G25G12G17G05G04G09G02
 -30598396.07848 -23811608.53946  20838285.5704                   20838283.7974
    176768.89547    167547.32844  24214646.6414                   24214648.7074
 -22429645.30548 -17443416.04746  21453134.5634                   21453132.3554
 -45052263.24247 -35095794.71544  23011090.6254                   23011089.3324
 -16128713.24247 -12530218.53545  22119135.7344                   22119134.8984
 -40420623.71548 -31465060.00445  21479795.5704                   21479794.2814
 -18749465.95347 -14573676.06644  23491117.1884                   23491117.9384
 -36379435.67248 -28337523.68446  20541553.9614                   20541549.4964
 11  8 15  0 37  0.0000000  0  8G10G25G12G17G05G04G09G02
 -30648206.98048 -23850422.21546  20828806.6024                   20828804.7814
     33405.39847     55835.51244  24187365.2894                   24187367.2894
 -22534938.31648 -17525462.53546  21433098.2114                   21433095.8054
 -45042733.20347 -35088368.78145  23012904.3914                   23012903.5234
 -16264440.53947 -12635980.00845  22093307.3674                   22093306.7854
 -40387979.53948 -31439623.03145  21486007.4144                   21486006.0044
 -18714288.64547 -14546265.24244  23497811.3284                   23497811.8674
 -36425464.44548 -28373390.25847  20532794.8834                   20532791.1024
 11  8 15  0 37 30.0000000  0  8G10G25G12G17G05G04G09G02
 -30697339.67248 -23888707.41846  20819456.8834                   20819455.5434
   -109752.55547    -55716.12944  24160124.0084                   24160125.3554
 -22639766.96548 -17607147.18446  21413149.8364                   21413147.7854
 -45033000.12147 -35080784.61745  23014756.5234                   23014755.8594
 -16399842.37947 -12741487.87945  22067541.4384                   22067540.4454
 -40355123.14148 -31414020.68445  21492260.0634                   21492258.8634
 -18678868.39147 -14518665.10944  23504551.8444                   23504552.5704
 -36471139.39848 -28408981.12146  20524103.2274                   20524099.0864
 11  8 15  0 38  0.0000000  0  8G10G25G12G17G05G04G09G02
 -30745791.66048 -23926462.19946  20810236.8754                   20810235.4104
   -252700.49247   -167104.11744  24132921.7504                   24132923.2934
 -22744127.07447 -17688466.71946  21393290.3204                   21393288.6094
 -45023061.47347 -35073040.26245  23016648.1414                   23016646.7894
 -16534914.20347 -12846738.60245  22041837.7974                   22041836.9924
 -40322054.66848 -31388253.07445  21498552.4224                   21498551.6134
 -18643206.35947 -14490876.59444  23511337.7974                   23511338.9774
 -36516459.93448 -28444295.82446  20515479.0314                   20515474.5554
 11  8 15  0 38 30.0000000  0  8G10G25G12G17G05G04G09G02
 -30793566.82048 -23963689.58246  20801145.6024                   20801143.8874
   -395440.41447   -278329.99643  24105758.9224                   24105760.4264
 -22848020.82848 -17769422.87546  21373520.1414                   21373518.1454
 -45012921.52047 -35065139.04745  23018577.9774                   23018576.8754
 -16669657.66447 -12951733.45346  22016196.9454                   22016196.4104
 -40288780.58248 -31362325.25845  21504884.1804                   21504883.0664
 -18607310.57447 -14462905.93744  23518168.9224                   23518169.8524
 -36561431.57448 -28479338.66446  20506921.1884                   20506917.2894
 11  8 15  0 39  0.0000000  0  8G10G25G12G17G05G04G09G02
 -30840670.50847 -24000393.75846  20792182.3754                   20792180.8094
   -537975.48847   -389396.27343  24078635.2664                   24078636.5434
 -22951451.65647 -17850018.30946  21353838.2194                   21353835.7274
 -45002585.20747 -35057084.82445  23020544.7504                   23020543.3284
 -16804075.51247 -13056474.58245  21990618.3364                   21990617.7854
 -40255308.80148 -31336243.38345  21511254.0864                   21511252.2854
 -18571190.32047 -14434760.35544  23525042.3054                   23525043.3404
 -36606061.01648 -28514114.85247  20498428.5234                   20498424.9024
 11  8 15  0 39 30.0000000  0  8G10G25G12G17G05G04G09G02
 -30887083.24648 -24036559.51646  20783350.0084                   20783348.6954
   -680283.83646   -500285.83644  24051554.7034                   24051557.5664
 -23054397.68748 -17930235.96546  21334248.0784                   21334246.1644
 -44992032.78147 -35048862.21944  23022553.0784                   23022551.6374
 -16938145.46147 -13160944.61346  21965105.6884                   21965105.0274
 -40221622.11748 -31309994.06645  21517664.5234                   21517663.2664
 -18534829.80947 -14406427.58244  23531961.0554                   23531962.3754
 -36650330.05148 -28548610.19947  20490004.4924                   20490000.2774
 11  8 15  0 40  0.0000000  0  8G10G25G12G17G05G04G09G02
 -30932806.27747 -24072187.84046  20774649.3674                   20774647.6334
   -822364.71546   -610998.18743  24024517.7114                   24024519.5664
 -23156858.66048 -18010075.65646  21314750.0634                   21314748.0904
 -44981265.71547 -35040472.34845  23024601.3524                   23024600.5434
 -17071866.54347 -13265142.80146  21939659.1954                   21939658.1054
 -40187724.51248 -31283580.37945  21524114.9224                   21524113.9534
 -18498234.37147 -14377911.73844  23538924.6094                   23538926.6334
 -36694242.00048 -28582827.30146  20481648.1724                   20481644.1914
 11  8 15  0 40 30.0000000  0  8G10G25G12G17G05G04G09G02
 -30977855.62548 -24107291.22746  20766076.5634                   20766074.9614
   -964231.90646   -721543.96943  23997521.0164                   23997522.6884
 -23258848.28948 -18089548.07846  21295342.1484                   21295340.1054
 -44970299.66047 -35031927.43745  23026688.2584                   23026687.6254
 -17205252.38747 -13369079.77046  21914277.1564                   21914275.4774
 -40153634.23048 -31257016.55545  21530602.0944                   21530601.1024
 -18461423.60247 -14349228.09444  23545930.0394                   23545931.6294
 -36737813.92248 -28616779.44947  20473356.5394                   20473352.5274
 11  8 15  0 41  0.0000000  0  8G10G25G12G17G05G04G09G02
 -31022212.96948 -24141855.38346  20757635.9694                   20757633.9694
  -1105865.01247   -831907.41843  23970569.3834                   23970570.9184
 -23360347.14547 -18168638.07446  21276027.4454                   21276025.3984
 -44959116.31247 -35023213.18044  23028816.2424                   23028815.7304
 -17338282.22347 -13472739.31646  21888962.0394                   21888961.3324
 -40119335.57048 -31230290.35945  21537129.2344                   21537127.9024
 -18424383.19146 -14320365.53544  23552978.4224                   23552979.7114
 -36781029.30148 -28650453.77046  20465132.9614                   20465129.0554
 11  8 15  0 41 30.0000000  0  8G10G25G12G17G05G04G09G02
 -31065889.61348 -24175889.13346  20749324.6094                   20749323.0594
  -1247272.89847   -942095.34444  23943660.5634                   23943662.4654
 -23461363.71148 -18247352.25446  21256805.0314                   21256802.6954
 -44947726.76647 -35014338.25844  23030983.6094                   23030983.2544
 -17470964.44947 -13576128.00446  21863713.4614                   21863712.5594
 -40084842.11348 -31203412.37145  21543693.0944                   21543691.4494
 -18387127.98847 -14291335.57443  23560068.8754                   23560069.1294
 -36823900.68048 -28683860.04346  20456975.2034                   20456970.9144
 11  8 15  0 42  0.0000000  0  8G10G25G12G17G05G04G09G02
 -29533441.45747 -22981773.68746  21040939.7504                   21040937.9024
    186994.14147    175515.41444  24216592.8444                   24216594.2194
 -21986450.35947 -17098069.10546  21537471.1884                   21537469.3364
 -43360688.43447 -33777685.05145  23332987.1564                   23332986.7194
 -16027849.71147 -12451622.96546  22138329.2894                   22138327.8554
 -38474714.39548 -29948767.41845  21850090.1174                   21850089.3014
 -16774220.09047 -13034524.30943  23866994.6564                   23866995.6374
 -35290985.21548 -27489380.46546  20748679.0314                   20748674.4804
 11  8 15  0 42 30.0000000  0  8G10G25G12G17G05G04G09G02
 -29575727.50848 -23014723.84846  21032892.4454                   21032891.0354
     46072.74247     65706.58244  24189776.0704                   24189777.6254
 -22086467.87947 -17176004.82046  21518438.7974                   21518436.2504
 -43348856.57047 -33768465.46144  23335238.8754                   23335237.9494
 -16159800.20347 -12554441.48046  22113219.9304                   22113218.6564
 -38439808.67648 -29921568.19545  21856732.2424                   21856731.3094
 -16736516.98447 -13005145.34443  23874168.8754                   23874170.1414
 -35333143.37148 -27522230.97746  20740656.3594                   20740652.5124
 11  8 15  0 43  0.0000000  0  8G10G25G12G17G05G04G09G02
 -29617317.38348 -23047131.53146  21024978.3134                   21024976.7424
    -94601.29747    -43909.48844  24163006.2424                   24163008.3554
 -22185982.16048 -17253548.39846  21499501.7974                   21499499.4414
 -43336801.93447 -33759072.28145  23337532.8524                   23337531.8404
 -16291380.41847 -12656971.46546  22088180.5554                   22088179.7934
 -38404699.81648 -29894210.66845  21863413.5634                   21863412.0044
 -16698595.03547 -12975595.83243  23881385.6484                   23881386.5634
 -35374946.40648 -27554804.76646  20732701.9614                   20732697.9144
 11  8 15  0 43 30.0000000  0  8G10G25G12G17G05G04G09G02
 -29658221.42647 -23079004.80946  21017194.4454                   21017193.2304
   -235035.62947   -153338.78544  24136282.5784                   24136284.5274
 -22285001.34048 -17330706.18446  21480659.2894                   21480656.8834
 -43324535.12147 -33749513.76644  23339867.1414                   23339866.8014
 -16422597.72347 -12759218.67246  22063210.9144                   22063209.5784
 -38369399.89848 -29866704.25845  21870130.7274                   21870129.6524
 -16660467.87147 -12945886.43444  23888640.7274                   23888642.2384
 -35416406.00048 -27587110.94146  20724812.2194                   20724808.1954
 11  8 15  0 44  0.0000000  0  8G10G25G12G17G05G04G09G02
 -29698444.18047 -23110347.22346  21009540.7814                   21009539.0864
   -375232.57447   -262583.12144  24109603.9614                   24109605.6134
 -22383527.89147 -17407480.12146  21461909.9224                   21461907.5474
 -43312060.43747 -33739793.27344  23342241.2274                   23342240.4774
 -16553453.98847 -12861184.55146  22038309.2894                   22038308.8554
 -38333916.01248 -29839054.50845  21876883.1484                   21876882.3284
 -16622143.50447 -12916023.39144  23895933.9224                   23895935.4654
 -35457527.91048 -27619153.98046  20716987.1484                   20716983.3204
 11  8 15  0 44 30.0000000  0  8G10G25G12G17G05G04G09G02
 -29737963.47348 -23141141.47746  21002020.2814                   21002018.7384
   -515167.42247   -371623.20344  24082975.2734                   24082977.3874
 -22481537.59048 -17483851.30546  21443259.5944                   21443257.3404
 -43299354.92247 -33729892.89544  23344658.9774                   23344657.6644
 -16683924.37947 -12962849.74646  22013481.8914                   22013481.2734
 -38298227.98448 -29811245.68045  21883674.3834                   21883673.4264
 -16583603.67247 -12885992.42244  23903268.5004                   23903269.6214
 -35498291.19948 -27650917.58646  20709230.1334                   20709226.2854
 11  8 15  0 45  0.0000000  0  8G10G25G12G17G05G04G09G02
 -29776795.93748 -23171400.53946  20994630.6484                   20994629.1644
   -654853.95347   -480469.80144  24056393.7504                   24056395.4924
 -22579044.36748 -17559830.61746  21424704.4064                   21424702.4924
 -43286434.74247 -33719825.26244  23347117.5554                   23347116.7734
 -16814022.34047 -13064224.73046  21988725.2424                   21988724.2544
 -38262353.88348 -29783291.85945  21890501.0554                   21890499.6484
 -16544868.18047 -12855808.98844  23910639.3834                   23910640.9574
 -35538713.50048 -27682415.48446  20701537.7974                   20701533.8554
 11  8 15  0 45 30.0000000  0  8G10G25G12G17G05G04G09G02
 -29814929.41447 -23201114.93046  20987374.0084                   20987372.3484
   -794277.75847   -589111.66444  24029862.4924                   24029863.8874
 -22676034.66848 -17635407.47746  21406247.7274                   21406245.6094
 -43273287.63347 -33709580.80144  23349619.6724                   23349618.2774
 -16943733.30947 -13165298.17246  21964042.0784                   21964040.8834
 -38226284.25048 -29755185.67645  21897364.7424                   21897364.0904
 -16505928.57447 -12825466.51644  23918049.5004                   23918050.3164
 -35578783.87948 -27713639.15246  20693912.8754                   20693908.5824
 11  8 15  0 46  0.0000000  0  8G10G25G12G17G05G04G09G02
 -29852368.64848 -23230288.35246  20980249.8524                   20980248.3954
   -933440.89547   -697550.42644  24003380.6564                   24003381.8874
 -22772510.83248 -17710583.70746  21387889.4304                   21387887.3094
 -43259917.37547 -33699162.46144  23352163.7894                   23352162.7384
 -17073059.44947 -13266071.73446  21939431.5164                   21939430.7034
 -38190025.66447 -29726932.26645  21904264.5784                   21904263.5474
 -16466792.59046 -12794971.00844  23925496.8444                   23925498.0004
 -35618508.54348 -27744593.43446  20686353.5234                   20686349.0234
 11  8 15  0 46 30.0000000  0  8G10G25G12G17G05G04G09G02
 -29889114.80547 -23258921.71946  20973256.9064                   20973255.0474
  -1072341.92247   -805784.94144  23976948.3364                   23976950.2344
 -22868471.62148 -17785358.36346  21369628.2894                   21369626.1914
 -43246324.85247 -33688570.91844  23354750.2974                   23354749.4774
 -17201998.80947 -13366543.91846  21914895.2504                   21914894.0394
 -38153581.21148 -29698534.01645  21911199.5084                   21911198.2894
 -16427465.22347 -12764326.37144  23932980.4924                   23932981.6414
 -35657889.78148 -27775280.10946  20678859.1804                   20678855.1804
 11  8 15  0 47  0.0000000  0  8G10G25G12G17G05G04G09G02
 -29925160.58648 -23287009.33646  20966398.0164                   20966396.0314
  -1210971.19947   -913807.70344  23950567.7344                   23950569.4454
 -22963907.60548 -17859724.05546  21351467.5234                   21351465.5394
 -43232502.71147 -33677800.46144  23357381.4224                   23357379.9414
 -17330541.72347 -13466707.17646  21890434.4844                   21890433.5164
 -38116945.69548 -29669986.89145  21918171.8834                   21918170.4024
 -16387942.68447 -12733529.64544  23940501.1724                   23940502.4774
 -35696921.62548 -27805694.53546  20671431.9224                   20671427.6294
 11  8 15  0 47 30.0000000  0  8G10G25G12G17G05G04G09G02
 -29960517.86748 -23314560.46946  20959669.6954                   20959668.0234
  -1349337.85547  -1021625.82444  23924237.8524                   23924238.5984
 -23058829.01648 -17933688.81246  21333404.7894                   21333402.5944
 -43218462.00847 -33666859.69144  23360052.6804                   23360051.5824
 -17458697.02047 -13566568.39146  21866047.3754                   21866046.2424
 -38080132.90248 -29641301.62145  21925176.5944                   21925175.7234
 -16348240.03547 -12702592.59044  23948056.9064                   23948058.0124
 -35735616.87948 -27835846.68447  20664068.2584                   20664064.5824
 11  8 15  0 48  0.0000000  0  8G10G25G12G17G05G04G09G02
 -29995186.00848 -23341574.59846  20953072.2664                   20953070.7034
  -1487438.44947  -1129236.62544  23897958.0944                   23897959.5124
 -23153233.04348 -18007250.39846  21315440.0164                   21315437.8364
 -43204201.85947 -33655747.93444  23362765.8914                   23362765.4534
 -17586461.20747 -13666124.85546  21841734.7114                   21841734.0944
 -38043143.97748 -29612479.10545  21932215.3834                   21932213.9534
 -16308360.00046 -12671517.29344  23955645.2664                   23955647.1804
 -35773975.98448 -27865736.89846  20656768.9844                   20656764.7544
 11  8 15  0 48 30.0000000  0  8G10G25G12G17G05G04G09G02
 -30029175.00448 -23368059.52746  20946604.7034                   20946603.2424
  -1625280.29347  -1236645.82444  23871727.2344                   23871729.2544
 -23247126.98848 -18080414.52346  21297572.6024                   21297570.7974
 -43189731.59847 -33644472.46544  23365519.5634                   23365519.1134
 -17713841.65247 -13765382.29746  21817494.7894                   21817494.2114
 -38005990.67648 -29583528.50845  21939285.2424                   21939284.3674
 -16268315.86346 -12640314.14843  23963265.3984                   23963267.1094
 -35812010.15648 -27895373.90646  20649530.9614                   20649527.4344
 11  8 15  0 49  0.0000000  0  8G10G25G12G17G05G04G09G02
 -30062459.54348 -23393995.52746  20940270.9304                   20940268.6604
  -1762835.15247  -1343831.41044  23845551.7114                   23845553.7304
 -23340483.13748 -18153159.58646  21279807.3204                   21279805.4734
 -43175025.20747 -33633012.99644  23368319.0164                   23368318.0554
 -17840809.56247 -13864318.27746  21793333.6414                   21793332.6094
 -37968649.44548 -29554431.47345  21946391.4064                   21946390.3134
 -16228085.34046 -12608965.76244  23970921.1644                   23970922.7774
 -35849694.76648 -27924738.53546  20642359.8984                   20642356.4024
 11  8 15  0 49 30.0000000  0  8G10G25G12G17G05G04G09G02
 -30095045.16848 -23419386.93046  20934070.0394                   20934068.3324
  -1900106.00847  -1450795.66844  23819429.9924                   23819431.2974
 -23433305.15248 -18225488.44146  21262144.2664                   21262142.1764
 -43160087.14147 -33621372.99244  23371161.4844                   23371159.6564
 -17967368.23447 -13962935.37546  21769250.3674                   21769249.6174
 -37931127.63748 -29525193.74245  21953531.2504                   21953530.0944
 -16187677.65646 -12577479.33244  23978610.8754                   23978612.6954
 -35887036.61348 -27953836.07846  20635254.1644                   20635250.2384
 11  8 15  0 50  0.0000000  0  8G10G25G12G17G05G04G09G02
 -30126934.42648 -23444235.70346  20928001.5234                   20927999.6764
  -2037092.28547  -1557538.18044  23793362.4844                   23793363.3094
 -23525592.95748 -18297401.01646  21244582.3134                   21244580.1684
 -43144919.99247 -33609554.48044  23374046.5634                   23374046.4454
 -18093516.53948 -14061232.70346  21745244.8594                   21745243.8204
 -37893429.33648 -29495818.46945  21960705.4304                   21960704.0634
 -16147097.93446 -12545858.83644  23986333.3204                   23986334.1564
 -35924039.19148 -27982669.25846  20628212.7734                   20628208.7974
 11  8 15  0 50 30.0000000  0  8G10G25G12G17G05G04G09G02
 -30158131.44148 -23468545.07046  20922065.0004                   20922063.4734
  -2173795.38747  -1664060.06644  23767348.5784                   23767350.1294
 -23617348.62948 -18368898.94546  21227121.8674                   21227119.6214
 -43129527.15647 -33597560.12144  23376976.2814                   23376975.9064
 -18219255.70348 -14159211.22346  21721317.7974                   21721316.7974
 -37855560.26248 -29466310.13345  21967911.4454                   21967910.6254
 -16106353.58247 -12514110.05544  23994086.6094                   23994088.0634
 -35960707.46148 -28011241.94146  20621234.9224                   20621230.7974
 11  8 15  0 51  0.0000000  0  8G10G25G12G17G05G04G09G02
 -30188627.27048 -23492308.05546  20916261.8594                   20916259.9694
  -2310203.35947  -1770351.95344  23741391.2274                   23741391.8054
 -23708560.66448 -18439973.26246  21209764.6644                   21209762.7704
 -43113898.53547 -33585382.02344  23379950.4454                   23379950.2344
 -18344574.23848 -14256861.98046  21697470.2344                   21697468.9264
 -37817513.28548 -29436663.16445  21975151.7814                   21975150.7074
 -16065438.80946 -12482228.47344  24001872.5084                   24001873.2584
 -35997033.54348 -28039547.97746  20614322.2974                   20614318.2664
 11  8 15  0 51 30.0000000  0  8G10G25G12G17G05G04G09G02
 -30218423.00448 -23515525.51646  20910592.0944                   20910590.4384
  -2446314.98047  -1876412.90644  23715489.3754                   23715491.4844
 -23799228.40648 -18510623.44546  21192511.0704                   21192509.0394
 -43098034.94947 -33573020.85944  23382969.8524                   23382968.8054
 -18469470.59848 -14354183.76646  21673703.2814                   21673702.3364
 -37779291.42248 -29406879.92645  21982424.8914                   21982423.9844
 -16024358.36346 -12450217.80143  24009689.4454                   24009690.5744
 -36033019.68048 -28067589.12146  20607474.5084                   20607470.6454
 11  8 15  0 52  0.0000000  0  8G10G25G12G17G05G04G09G02
 -30247532.89548 -23538208.54746  20905052.7114                   20905050.9804
  -2582141.21547  -1982251.46944  23689642.4064                   23689644.1724
 -23889363.33648 -18580858.44546  21175359.3914                   21175356.9964
 -43081949.83647 -33560487.05944  23386030.3284                   23386029.5274
 -18593955.53548 -14451184.97346  21650014.7504                   21650013.5394
 -37740910.20748 -29376972.51245  21989728.5634                   21989727.6024
 -15983129.08647 -12418091.15244  24017535.1024                   24017535.9804
 -36068680.87948 -28095377.06246  20600688.2504                   20600684.3284
 11  8 15  0 52 30.0000000  0  8G10G25G12G17G05G04G09G02
 -30275956.67648 -23560356.95346  20899643.7814                   20899642.1214
  -2717678.74247  -2087865.09844  23663850.6414                   23663852.1374
 -23978963.05148 -18650676.39846  21158308.9454                   21158306.5234
 -43065642.40247 -33547780.02044  23389133.1334                   23389132.4384
 -18718025.78948 -14547863.05146  21626404.7194                   21626403.7974
 -37702370.71948 -29346941.78145  21997062.4304                   21997061.4804
 -15941753.62147 -12385850.57443  24025408.7974                   24025409.8204
 -36104017.65248 -28122912.22746  20593963.7504                   20593960.0004
 11  8 15  0 53  0.0000000  0  8G10G25G12G17G05G04G09G02
 -30303686.77348 -23581964.82046  20894366.7894                   20894365.1954
  -2852917.09447  -2193245.59044  23638115.5474                   23638117.0664
 -24068017.44148 -18720069.41446  21141362.3284                   21141360.0044
 -43049103.86847 -33534892.90544  23392280.7274                   23392280.1954
 -18841671.03548 -14644209.94146  21602875.7424                   21602874.7934
 -37663667.02348 -29316783.09445  22004427.7274                   22004426.4344
 -15900227.70747 -12353492.76243  24033311.1564                   24033312.1954
 -36139023.47348 -28150189.48446  20587302.6254                   20587298.8444
 11  8 15  0 53 30.0000000  0  8G10G25G12G17G05G04G09G02
 -30330728.29748 -23603036.13746  20889221.0864                   20889219.3404
  -2987858.19547  -2298394.44544  23612437.2034                   23612438.9884
 -24156529.25848 -18789039.65246  21124519.2584                   21124516.9924
 -43032338.77347 -33521829.25444  23395471.3984                   23395470.3244
 -18964892.75048 -14740226.81646  21579427.5084                   21579426.3204
 -37624805.52748 -29286501.43745  22011822.8524                   22011822.1844
 -15858559.36747 -12321024.02043  24041239.9304                   24041241.8834
 -36173704.13748 -28177213.37546  20580703.1954                   20580699.1724
 11  8 15  0 54  0.0000000  0  8G10G25G12G17G05G04G09G02
 -30357083.90248 -23623572.97746  20884205.6174                   20884203.8134
  -3122501.52347  -2403311.29344  23586815.4924                   23586816.8524
 -24244498.72748 -18857587.28146  21107779.4614                   21107777.0394
 -43015348.70346 -33508590.27044  23398704.0474                   23398703.2274
 -19087690.58248 -14835913.39846  21556059.7584                   21556058.5664
 -37585790.21548 -29256099.93045  22019247.1174                   22019246.1804
 -15816753.97347 -12288448.47743  24049195.1414                   24049197.3954
 -36208062.80948 -28203986.36346  20574164.8364                   20574160.8634
 11  8 15  0 54 30.0000000  0  8G10G25G12G17G05G04G09G02
 -30382749.62548 -23643572.23846  20879321.3134                   20879320.2934
  -3256840.09447  -2507990.69544  23561251.7274                   23561252.8094
 -24331919.44148 -18925707.30946  21091143.5704                   21091141.2544
 -42998128.57047 -33495172.03944  23401980.6094                   23401980.6054
 -19210057.59448 -14931264.27046  21532774.1414                   21532772.3444
 -37546618.56648 -29225576.59445  22026701.4454                   22026699.9734
 -15774810.58247 -12255765.37943  24057177.2344                   24057178.7934
 -36242096.36348 -28230506.02346  20567688.7664                   20567684.9344
 11  8 15  0 55  0.0000000  0  8G10G25G12G17G05G04G09G02
 -30407715.89848 -23663026.46946  20874570.6024                   20874569.2074
  -3390861.48447  -2612422.94144  23535748.5084                   23535749.3164
 -24418779.60548 -18993390.54346  21074614.7424                   21074612.5904
 -42980668.43447 -33481566.77744  23405304.0704                   23405302.9614
 -19331981.24248 -15026269.66446  21509572.6564                   21509571.3364
 -37507282.54348 -29194925.19145  22034186.7664                   22034185.7344
 -15732722.31647 -12222969.42643  24065186.8134                   24065187.7074
 -36275796.04348 -28256765.51246  20561275.7114                   20561271.6884
 11  8 15  0 55 30.0000000  0  8G10G25G12G17G05G04G09G02
 -30431992.39548 -23681943.21946  20869951.1094                   20869949.4844
  -3524572.01247  -2716612.93744  23510304.3134                   23510305.1684
 -24505086.43448 -19060642.60946  21058190.9454                   21058188.8484
 -42962977.14847 -33467781.39844  23408670.2664                   23408669.9264
 -19453467.93448 -15120934.57446  21486454.8674                   21486453.5084
 -37467792.77347 -29164153.97345  22041701.0784                   22041700.4924
 -15690501.69947 -12190070.30943  24073221.0554                   24073222.6334
 -36309172.37948 -28282773.04746  20554924.1804                   20554920.1644
 11  8 15  0 56  0.0000000  0  8G10G25G12G17G05G04G09G02
 -30455583.06248 -23700325.55546  20865462.1564                   20865459.9734
  -3657972.35547  -2820561.27344  23484918.9454                   23484919.2854
 -24590840.98448 -19127464.34046  21041872.5704                   21041870.0044
 -42945057.50447 -33453818.07444  23412080.0634                   23412079.2114
 -19574518.15648 -15215259.38746  21463419.0084                   21463418.1294
 -37428154.73447 -29133267.21945  22049244.3524                   22049243.3054
 -15648155.62946 -12157073.45743  24081278.4774                   24081280.6294
 -36342229.64148 -28308531.95746  20548633.9694                   20548629.9654
 11  8 15  0 56 30.0000000  0  8G10G25G12G17G05G04G09G02
 -30478492.12548 -23718176.77046  20861102.5864                   20861100.8984
  -3791063.71947  -2924268.80544  23459592.4924                   23459593.4184
 -24676045.70348 -19193857.62146  21025658.5864                   21025656.0084
 -42926912.71547 -33439679.32044  23415533.3754                   23415532.3674
 -19695133.14148 -15309245.04746  21440467.2034                   21440466.0554
 -37388373.53147 -29102268.90645  22056814.6254                   22056813.7934
 -15605690.85947 -12123984.13343  24089359.7734                   24089361.4184
 -36374973.00848 -28334046.26646  20542403.1094                   20542399.1644
 11  8 15  0 57  0.0000000  0  8G10G25G12G17G05G04G09G02
 -30500719.61347 -23735496.87946  20856872.7034                   20856871.2424
  -3923842.68447  -3027732.95344  23434325.3364                   23434326.0664
 -24760697.85248 -19259820.34046  21009549.7034                   21009547.5664
 -42908541.69947 -33425364.28544  23419028.8524                   23419028.3014
 -19815309.96548 -15402889.28546  21417598.2894                   21417597.1334
 -37348450.57447 -29071160.14145  22064411.7814                   22064410.7584
 -15563110.23846 -12090804.51643  24097462.4384                   24097464.6524
 -36407402.90648 -28359316.32446  20536231.7734                   20536227.5664
 11  8 15  0 57 30.0000000  0  8G10G25G12G17G05G04G09G02
 -30522260.06648 -23752281.64546  20852773.6334                   20852771.9804
  -4056300.53147  -3130946.85244  23409119.3914                   23409120.3554
 -24844789.42648 -19325346.23846  20993547.4924                   20993545.1764
 -42889938.18747 -33410868.07044  23422569.0084                   23422568.7854
 -19935039.53948 -15496185.01646  21394814.3594                   21394813.3204
 -37308381.46547 -29039937.48445  22072036.7344                   22072035.3524
 -15520410.74246 -12057532.30143  24105588.5704                   24105589.7774
 -36439514.41448 -28384338.28146  20530121.0084                   20530117.0164
 11  8 15  0 58  0.0000000  0  8G10G25G12G17G05G04G09G02
 -30543121.11748 -23768537.01246  20848803.9384                   20848802.1454
  -4188441.37547  -3233913.72344  23383974.1334                   23383974.7854
 -24928325.25048 -19390439.09046  20977651.2344                   20977649.0704
 -42871108.42647 -33396195.57044  23426152.6644                   23426152.1994
 -20054326.16048 -15589135.58646  21372114.8364                   21372113.8364
 -37268174.85947 -29008607.69545  22079687.7894                   22079687.0124
 -15477602.66446 -12024175.44943  24113735.5234                   24113736.2114
 -36471315.50048 -28409118.34846  20524069.3754                   20524065.6214
 11  8 15  0 58 30.0000000  0  8G10G25G12G17G05G04G09G02
 -30563290.85948 -23784253.69146  20844965.6804                   20844964.1764
  -4320250.00447  -3336621.71944  23358892.0084                   23358892.4654
 -25011290.78548 -19455087.57046  20961863.3984                   20961861.3634
 -42852039.54747 -33381336.75044  23429781.6414                   23429780.7234
 -20173154.73848 -15681729.23046  21349502.6174                   21349500.9344
 -37227819.62147 -28977162.08645  22087366.6724                   22087365.5314
 -15434676.65246 -11990726.70743  24121903.0394                   24121904.7074
 -36502794.89548 -28433647.75046  20518079.3204                   20518075.2154
 11  8 15  0 59  0.0000000  0  8G10G25G12G17G05G04G09G02
 -30582772.57048 -23799434.23846  20841258.4614                   20841256.7114
  -4451726.57847  -3439070.96544  23333872.3204                   23333873.2034
 -25093687.01648 -19519292.43446  20946183.8914                   20946181.8244
 -42832734.10547 -33366293.57844  23433454.4224                   23433453.9184
 -20291525.85948 -15773966.42646  21326977.3524                   21326975.9844
 -37187320.30147 -28945604.21545  22095073.5784                   22095073.0084
 -15391638.75446 -11957190.78144  24130093.1484                   24130095.0664
 -36533956.63748 -28457929.63346  20512149.4774                   20512145.0864
 11  8 15  0 59 30.0000000  0  8G10G25G12G17G05G04G09G02
 -30601569.18448 -23814080.96146  20837681.6884                   20837680.3284
  -4582870.70347  -3541261.15644  23308916.3914                   23308917.3244
 -25175514.80148 -19583054.34846  20930612.4844                   20930610.4734
 -42813193.87947 -33351067.45744  23437173.4694                   23437172.5824
 -20409438.48448 -15865846.34846  21304539.2034                   21304537.8984
 -37146681.02747 -28913937.27045  22102807.6484                   22102806.1094
 -15348494.37146 -11923571.89144  24138303.6174                   24138305.4534
 -36564804.25448 -28481966.75846  20506279.1644                   20506275.0124
 11  8 15  1  0  0.0000000  0  8G10G25G12G17G05G04G09G02
 -30619675.12148 -23828189.48046  20834236.1564                   20834234.5394
  -4713673.44147  -3643185.33644  23284025.7114                   23284026.4534
 -25256765.60948 -19646366.67646  20915151.1804                   20915148.7384
 -42793412.16847 -33335653.18744  23440937.4224                   23440937.0314
 -20526883.92648 -15957362.23446  21282190.0164                   21282188.9804
 -37105897.07447 -28882157.59445  22110567.8984                   22110567.0784
 -15305240.79346 -11889867.92244  24146534.2344                   24146536.8054
 -36595332.64148 -28505755.11746  20500469.9304                   20500466.0434
 11  8 15  1  0 30.0000000  0  8G10G25G12G17G05G04G09G02
 -30637104.33648 -23841770.69146  20830919.4304                   20830917.9654
  -4844145.05147  -3744851.50044  23259197.4064                   23259198.3484
 -25337451.20348 -19709238.58246  20899797.2974                   20899795.1954
 -42773401.30147 -33320060.35244  23444745.8914                   23444744.7664
 -20643872.77348 -16048522.33246  21259927.8754                   21259926.4064
 -37064982.98047 -28850276.51245  22118353.2974                   22118352.6524
 -15261893.98446 -11856091.32044  24154782.7664                   24154785.0824
 -36625555.93048 -28529305.75046  20494718.6644                   20494714.8094
 11  8 15  1  1  0.0000000  0  8G10G25G12G17G05G04G09G02
 -30653864.67248 -23854830.69546  20827729.8674                   20827728.3014
  -4974290.02747  -3846263.13345  23234431.7194                   23234432.4414
 -25417576.57048 -19771673.94146  20884550.2734                   20884547.6134
 -42753168.56247 -33304294.61344  23448595.5234                   23448595.0864
 -20760409.80548 -16139330.37146  21237751.6174                   21237750.3094
 -37023947.77047 -28818301.05545  22126162.7034                   22126161.3554
 -15218464.38746 -11822250.17644  24163047.0394                   24163049.7584
 -36655482.29348 -28552624.99646  20489023.7114                   20489020.0904
 11  8 15  1  1 30.0000000  0  8G10G25G12G17G05G04G09G02
 -29094535.14548 -22639768.72746  21124460.6804                   21124459.2234
  -3528679.84847  -2719813.59445  23509522.5474                   23509523.6914
 -23921715.76648 -18606068.12946  21169202.7034                   21169200.4064
 -41157292.49647 -32060754.85944  23752281.2274                   23752280.6954
 -19301066.29748 -15002179.53946  21515455.2734                   21515454.0944
 -35407372.85947 -27558632.34445  22433786.5394                   22433785.8244
 -13599535.19547 -10560747.01644  24471119.1884                   24471122.1564
 -35109690.57848 -27348111.98046  20783178.4454                   20783174.7114
 11  8 15  1  2  0.0000000  0  8G10G25G12G17G05G04G09G02
 -29109940.71948 -22651773.08246  21121529.3204                   21121527.3364
  -3658143.63347  -2820694.44544  23484885.7584                   23484886.8094
 -24000695.66848 -18667610.91846  21154173.3984                   21154171.3954
 -41136594.52747 -32044626.60544  23756219.6334                   23756218.8674
 -19416671.78548 -15092261.69946  21493456.1094                   21493454.7774
 -35366080.16047 -27526456.24245  22441643.8054                   22441643.1054
 -13555929.70346 -10526768.84043  24479417.3204                   24479419.4924
 -35139006.95748 -27370955.92646  20777599.5084                   20777595.6174
 11  8 15  1  2 30.0000000  0  8G10G25G12G17G05G04G09G02
 -29124672.87948 -22663252.68746  21118725.7274                   21118723.9804
  -3787265.63747  -2921308.96944  23460314.6254                   23460315.7624
 -24079102.94548 -18728707.50446  21139252.8524                   21139250.5784
 -41115666.23847 -32028318.86744  23760202.8134                   23760201.7344
 -19531810.64848 -15181980.25046  21471545.9614                   21471544.2344
 -35324664.06247 -27494183.99645  22449525.0084                   22449524.5594
 -13512243.96146 -10492728.11343  24487730.6414                   24487732.9574
 -35168023.05548 -27393565.88346  20772078.0394                   20772074.0204
 11  8 15  1  3  0.0000000  0  8G10G25G12G17G05G04G09G02
 -29138728.32048 -22674204.98446  21116051.1024                   21116049.4104
  -3916038.87547  -3021651.71544  23435810.2424                   23435811.2504
 -24156931.61748 -18789353.23446  21124442.9064                   21124440.8364
 -41094502.90647 -32011828.00044  23764229.4454                   23764229.2344
 -19646475.78948 -15271329.67246  21449726.0004                   21449724.7304
 -35283121.84447 -27461813.48445  22457430.6094                   22457430.2544
 -13468476.82847 -10458623.92243  24496059.9534                   24496061.5474
 -35196735.72748 -27415939.40646  20766614.0864                   20766610.1484
 11  8 15  1  3 30.0000000  0  8G10G25G12G17G05G04G09G02
 -29152113.63348 -22684635.11346  21113503.7034                   21113502.0704
  -4044466.34047  -3121725.04344  23411371.2734                   23411372.0784
 -24234185.69948 -18849551.22746  21109742.0314                   21109739.8524
 -41073110.09447 -31995158.30144  23768300.9924                   23768299.8914
 -19760670.51648 -15360312.53146  21427995.3834                   21427993.9024
 -35241460.62147 -27429350.23045  22465358.6024                   22465358.1994
 -13424636.90646 -10424463.03143  24504402.5474                   24504403.8164
 -35225151.73048 -27438081.76646  20761206.7194                   20761203.2074
 11  8 15  1  4  0.0000000  0  8G10G25G12G17G05G04G09G02
 -29164818.89548 -22694535.31646  21111085.7734                   21111084.4734
  -4172534.69947  -3221518.54745  23387000.5784                   23387001.8524
 -24310852.89848 -18909291.91046  21095152.6804                   21095150.3594
 -41051476.50047 -31978300.97744  23772417.1174                   23772416.4534
 -19874381.82448 -15448918.71146  21406356.5864                   21406355.5274
 -35199671.49647 -27396787.32045  22473311.1644                   22473310.3134
 -13380717.15247 -10390239.92243  24512760.3444                   24512761.5434
 -35253261.62948 -27459985.59446  20755857.8054                   20755853.7934
 11  8 15  1  4 30.0000000  0  8G10G25G12G17G05G04G09G02
 -29176851.00048 -22703910.99246  21108796.6644                   21108795.2424
  -4300247.08647  -3321034.67244  23362698.0784                   23362698.7934
 -24386937.32848 -18968578.48046  21080674.0554                   21080671.8554
 -41029607.57846 -31961260.28544  23776578.3444                   23776578.1334
 -19987612.94148 -15537150.71146  21384809.5394                   21384808.0004
 -35157761.77747 -27364130.43745  22481286.2034                   22481285.5664
 -13336726.10246 -10355961.22343  24521131.2974                   24521132.7894
 -35281072.42248 -27481656.35546  20750565.2344                   20750561.6764
 11  8 15  1  5  0.0000000  0  8G10G25G12G17G05G04G09G02
 -29188223.80548 -22712772.93446  21106632.4694                   21106630.8524
  -4427613.53947  -3420281.25044  23338460.9384                   23338461.3204
 -24462450.15648 -19027419.65246  21066304.7194                   21066302.1564
 -41007516.34046 -31944046.35244  23780781.9774                   23780781.9844
 -20100374.23448 -15625016.61346  21363351.5784                   21363350.1644
 -35115745.79747 -27331390.75445  22489281.9224                   22489281.0984
 -13292679.87546 -10321639.57043  24529512.5704                   24529514.3794
 -35308598.06648 -27503104.92646  20745327.8834                   20745323.8204
 11  8 15  1  5 30.0000000  0  8G10G25G12G17G05G04G09G02
 -29198931.18747 -22721116.35546  21104594.6414                   21104593.3754
  -4554624.39147  -3519250.75445  23314291.4694                   23314292.8594
 -24537382.80548 -19085808.73446  21052045.3834                   21052043.3094
 -40985194.76246 -31926652.94544  23785030.5474                   23785030.1844
 -20212656.11348 -15712508.94546  21341985.3674                   21341983.8524
 -35073617.96947 -27298563.91845  22497298.4844                   22497297.7974
 -13248574.71546 -10287271.96943  24537905.9454                   24537907.5044
 -35335832.56248 -27524326.62546  20740145.0234                   20740140.8204
 11  8 15  1  6  0.0000000  0  8G10G25G12G17G05G04G09G02
 -29208961.43048 -22728932.13746  21102685.9844                   21102684.4224
  -4681263.91847  -3617930.86345  23290192.4694                   23290193.3834
 -24611720.47348 -19143734.19146  21037899.6414                   21037897.5234
 -40962629.60246 -31909069.69944  23789324.0634                   23789323.7704
 -20324443.05948 -15799615.62546  21320713.0004                   21320711.4804
 -35031367.00047 -27265641.11345  22505338.4144                   22505337.9104
 -13204400.41846 -10252850.53143  24546311.2664                   24546313.6524
 -35362764.12948 -27545312.26646  20735020.1414                   20735016.2504
 11  8 15  1  6 30.0000000  0  8G10G25G12G17G05G04G09G02
 -29218312.68748 -22736218.82846  21100906.6724                   21100904.9414
  -4807526.55947  -3716317.31645  23266165.8444                   23266166.9454
 -24685458.18048 -19201192.14146  21023867.3674                   21023865.4024
 -40939817.63346 -31891294.14544  23793665.1724                   23793665.1724
 -20435729.87548 -15886332.58646  21299535.7344                   21299534.2544
 -34988991.34447 -27232621.16045  22513402.4534                   22513401.4534
 -13160157.49646 -10218375.65643  24554730.7734                   24554732.9184
 -35389391.01648 -27566060.50446  20729953.1094                   20729949.0204
 11  8 15  1  7  0.0000000  0  8G10G25G12G17G05G04G09G02
 -29227006.65248 -22742993.35946  21099252.0784                   21099250.6764
  -4933430.28947  -3814424.11345  23242207.1724                   23242208.5394
 -24758616.04748 -19258198.27746  21009945.9384                   21009943.5594
 -40916779.36746 -31873342.26244  23798048.7504                   23798048.6764
 -20546534.61348 -15972673.91046  21278450.3834                   21278448.4654
 -34946513.12547 -27199521.28945  22521485.6884                   22521485.1454
 -13115869.80946 -10183865.91043  24563158.5554                   24563160.7934
 -35415735.39148 -27586588.59846  20724940.0784                   20724936.0704
 11  8 15  1  7 30.0000000  0  8G10G25G12G17G05G04G09G02
 -29235051.15648 -22749261.80946  21097721.4694                   21097719.9304
  -5058979.23047  -3912254.44945  23218315.6564                   23218316.9614
 -24831199.09848 -19314756.49246  20996134.1254                   20996131.6334
 -40893521.06246 -31855218.89844  23802475.2664                   23802475.4024
 -20656861.86348 -16058643.15646  21257455.7274                   21257454.0044
 -34903940.90247 -27166348.15245  22529587.0634                   22529586.0944
 -13071547.02746 -10149328.70743  24571593.0704                   24571595.1094
 -35441804.91848 -27606902.51646  20719979.1804                   20719975.0744
 11  8 15  1  8  0.0000000  0  8G10G25G12G17G05G04G09G02
 -29242434.16448 -22755014.81246  21096316.1334                   21096314.9344
  -5184157.48447  -4009795.92245  23194495.1254                   23194496.3094
 -24903192.15648 -19370854.98446  20982434.0704                   20982431.9654
 -40870029.55147 -31836913.84044  23806945.4454                   23806945.4574
 -20766696.36348 -16144228.45346  21236554.7894                   21236553.2074
 -34861262.68047 -27133092.41844  22537708.7504                   22537707.4844
 -13027179.04346 -10114756.33643  24580036.4844                   24580038.1334
 -35467587.52048 -27626992.86746  20715072.8444                   20715069.1524
 11  8 15  1  8 30.0000000  0  8G10G25G12G17G05G04G09G02
 -29249161.70348 -22760257.05946  21095036.2424                   21095034.3754
  -5308967.11747  -4107050.16045  23170744.5234                   23170746.4454
 -24974598.37148 -19426496.18446  20968845.8984                   20968843.8244
 -40846308.71947 -31818430.07844  23811460.3134                   23811459.5004
 -20876039.95348 -16229431.20746  21215747.6174                   21215745.7894
 -34818484.62947 -27099758.90644  22545848.5704                   22545847.9804
 -12982773.72346 -10080154.84843  24588486.2034                   24588488.0004
 -35493088.95348 -27646864.11746  20710220.0704                   20710216.4454
 11  8 15  1  9  0.0000000  0  8G10G25G12G17G05G04G09G02
 -29255225.43448 -22764982.05946  21093882.5554                   21093880.5944
  -5433395.98847  -4204007.69545  23147066.6724                   23147067.9384
 -25045406.94948 -19481671.69546  20955371.5004                   20955369.2114
 -40822349.39146 -31799760.47744  23816018.3674                   23816018.4804
 -20984880.70348 -16314242.14846  21195035.6254                   21195033.9494
 -34775598.89547 -27066341.47344  22554009.4844                   22554009.0314
 -12938324.82846 -10045519.47343  24596945.1414                   24596946.1484
 -35518301.22748 -27666510.04746  20705422.2664                   20705418.3204
 11  8 15  1  9 30.0000000  0  8G10G25G12G17G05G04G09G02
 -29260639.67648 -22769200.94946  21092852.1884                   21092850.6994
  -5557454.46947  -4300676.60545  23123459.0634                   23123460.6214
 -25115629.48048 -19536390.53946  20942008.8054                   20942006.4804
 -40798163.93446 -31780914.69144  23820621.3364                   23820620.7734
 -21093229.84048 -16398670.00446  21174417.0004                   21174416.1054
 -34732619.92647 -27032851.39544  22562188.2344                   22562187.2194
 -12893848.32446 -10010862.54743  24605408.8674                   24605410.0594
 -35543238.29348 -27685941.52746  20700677.0554                   20700673.1094
 11  8 15  1 10  0.0000000  0  8G10G25G12G17G05G04G09G02
 -29265390.71948 -22772903.07446  21091948.1094                   21091946.7274
  -5681124.91447  -4397043.16845  23099925.3524                   23099926.5044
 -25185249.37148 -19590639.80946  20928760.2814                   20928758.3874
 -40773737.16446 -31761880.84444  23825269.4304                   23825268.8524
 -21201069.85548 -16482701.15246  21153895.8834                   21153894.6644
 -34689534.09047 -26999278.03544  22570387.1884                   22570386.4494
 -12849332.37146  -9976174.88343  24613879.6644                   24613881.6644
 -35567886.37148 -27705147.82046  20695986.5634                   20695982.7814
 11  8 15  1 10 30.0000000  0  8G10G25G12G17G05G04G09G02
 -29269479.47348 -22776089.12146  21091170.3204                   21091168.5634
  -5804404.39547  -4493105.07045  23076465.5474                   23076467.2584
 -25254265.23448 -19644418.39546  20915627.0474                   20915624.9844
 -40749068.53546 -31742658.54744  23829963.8914                   23829963.1884
 -21308397.96948 -16566333.41046  21133472.2194                   21133470.5634
 -34646342.73447 -26965622.45745  22578606.2894                   22578605.7734
 -12804779.81646  -9941458.73044  24622357.9614                   24622359.9064
 -35592246.54748 -27724129.77346  20691351.1094                   20691347.2704
 11  8 15  1 11  0.0000000  0  8G10G25G12G17G05G04G09G02
 -29272924.03948 -22778773.20746  21090514.4224                   21090512.9844
  -5927307.19947  -4588873.46945  23053078.1334                   23053078.9964
 -25322692.59848 -19697738.40246  20902605.7734                   20902603.9774
 -40724174.28146 -31723260.43044  23834700.6414                   23834700.4964
 -21415228.92248 -16649578.27346  21113143.1804                   21113141.5824
 -34603064.12147 -26931898.88345  22586841.5634                   22586841.0554
 -12760210.42646  -9906729.43444  24630838.2034                   24630840.9064
 -35616336.78548 -27742901.38746  20686766.6484                   20686763.0084
 11  8 15  1 11 30.0000000  0  8G10G25G12G17G05G04G09G02
 -29275713.24248 -22780946.62546  21089983.7814                   21089982.1524
  -6049818.01247  -4684336.41445  23029765.2194                   23029766.5864
 -25390517.15648 -19750588.70746  20889699.2894                   20889697.2734
 -40699042.13346 -31703676.94144  23839483.5084                   23839483.1054
 -21521547.50848 -16732423.89146  21092911.1644                   21092909.8444
 -34559686.94547 -26898098.50445  22595096.3444                   22595095.6334
 -12715614.69947  -9871979.62144  24639325.5004                   24639327.8094
 -35640145.48448 -27761453.61346  20682236.4534                   20682231.9774
 11  8 15  1 12  0.0000000  0  8G10G25G12G17G05G04G09G02
 -29277867.14548 -22782625.00046  21089573.9224                   21089572.2664
  -6171952.69947  -4779506.28145  23006523.2814                   23006525.1334
 -25457756.14848 -19802982.71946  20876903.9304                   20876901.7074
 -40673690.14846 -31683922.16844  23844307.6954                   23844307.5044
 -21627370.23448 -16814883.12146  21072773.7274                   21072772.3754
 -34516231.33647 -26864237.00045  22603366.0314                   22603364.7424
 -12671014.19547  -9837226.08644  24647812.5784                   24647815.0664
 -35663692.47748 -27779801.91446  20677755.2424                   20677751.6024
 11  8 15  1 12 30.0000000  0  8G10G25G12G17G05G04G09G02
 -29279380.70748 -22783804.41446  21089286.0704                   21089284.3714
  -6293702.60247  -4874376.30545  22983355.4614                   22983356.8554
 -25524402.16448 -19854914.66846  20864221.6024                   20864219.6174
 -40648111.78546 -31663990.99644  23849175.0704                   23849174.7344
 -21732688.97748 -16896949.63746  21052732.1484                   21052730.9454
 -34472692.43447 -26830310.61345  22611650.9924                   22611650.2664
 -12626405.74646  -9802466.37544  24656301.6334                   24656303.4104
 -35686972.84848 -27797942.45346  20673325.3914                   20673321.4964
 11  8 15  1 13  0.0000000  0  8G10G25G12G17G05G04G09G02
 -29280242.26648 -22784475.76246  21089121.6564                   21089120.5124
  -6415051.74247  -4968934.05945  22960263.4694                   22960265.3164
 -25590440.48048 -19906373.08246  20851655.2194                   20851653.0234
 -40622293.68746 -31643873.02343  23854088.0084                   23854087.4654
 -21837488.00848 -16978611.18046  21032789.7194                   21032788.0474
 -34429058.24247 -26796309.95945  22619954.5704                   22619953.8444
 -12581779.05146  -9767692.45343  24664794.0554                   24664796.0594
 -35709974.41448 -27815865.74246  20668948.1024                   20668944.2734
 11  8 15  1 13 30.0000000  0  8G10G25G12G17G05G04G09G02
 -29280467.38348 -22784651.18746  21089079.2194                   21089077.3284
  -6536011.49247  -5063188.38745  22937245.6954                   22937247.0634
 -25655884.06648 -19957368.07446  20839201.8054                   20839199.3834
 -40596249.62546 -31623578.97743  23859043.1644                   23859043.3984
 -21941779.00848 -17059876.85546  21012943.8134                   21012942.1564
 -34385344.41847 -26762247.26244  22628272.5784                   22628272.4224
 -12537151.30546  -9732917.67243  24673285.9534                   24673288.1414
 -35732712.35548 -27833583.60946  20664621.0784                   20664617.1844
 11  8 15  1 14  0.0000000  0  8G10G25G12G17G05G04G09G02
 -29280065.82048 -22784338.28946  21089155.9844                   21089154.2344
  -6656587.81247  -5157143.93445  22914300.3364                   22914301.7774
 -25720739.97748 -20007905.12946  20826859.7344                   20826857.4694
 -40569987.74646 -31603115.19543  23864041.9534                   23864041.1844
 -22045568.47748 -17140751.72746  20993193.0004                   20993191.5474
 -34341560.52347 -26728129.96145  22636604.6644                   22636604.0984
 -12492533.89546  -9698150.97343  24681775.7424                   24681778.7934
 -35755196.09448 -27851103.40246  20660342.5554                   20660338.6214
 11  8 15  1 14 30.0000000  0  8G10G25G12G17G05G04G09G02
 -29279021.89148 -22783524.84446  21089353.8134                   21089352.7424
  -6776760.61747  -5250785.07045  22891432.3204                   22891433.6804
 -25784989.49248 -20057969.68046  20814633.8594                   20814631.4064
 -40543490.77046 -31582468.22743  23869084.1024                   23869083.0664
 -22148836.87948 -17221220.57446  20973541.5864                   20973540.2934
 -34297690.73847 -26693945.73044  22644952.9064                   22644952.1454
 -12447912.45746  -9663381.09043  24690268.0864                   24690269.7814
 -35777409.98448 -27868412.91846  20656115.8444                   20656112.0274
 11  8 15  1 15  0.0000000  0  8G10G25G12G17G05G04G09G02
 -29277318.13748 -22782197.25846  21089678.3444                   21089677.0434
  -6896508.44147  -5344095.04745  22868645.2034                   22868646.8014
 -25848612.50048 -20107546.04346  20802526.4844                   20802524.0944
 -40516739.19546 -31561622.87543  23874174.6484                   23874174.4844
 -22251562.94548 -17301266.82446  20953993.3134                   20953991.9384
 -34253717.53547 -26659680.91844  22653320.6564                   22653320.1604
 -12403271.18446  -9628595.78942  24698762.5164                   24698764.5124
 -35799335.77748 -27885497.94146  20651943.1174                   20651939.0204
 11  8 15  1 15 30.0000000  0  8G10G25G12G17G05G04G09G02
 -29274976.47348 -22780372.58646  21090123.7424                   21090122.6054
  -7015849.20347  -5437087.83645  22845935.0314                   22845936.9614
 -25911627.95748 -20156648.98046  20790535.2034                   20790532.9534
 -40489753.51246 -31540595.06243  23879309.0004                   23879310.1484
 -22353765.06648 -17380904.80546  20934545.1094                   20934543.6684
 -34209662.78147 -26625352.56644  22661703.8834                   22661702.7704
 -12358633.60546  -9593813.36742  24707257.1564                   24707259.3284
 -35820995.10248 -27902375.33246  20647821.3204                   20647817.5554
 11  8 15  1 16  0.0000000  0  8G10G25G12G17G05G04G09G02
 -29272014.68748 -22778064.72346  21090687.7664                   21090685.9614
  -7134796.39547  -5529773.93745  22823300.3364                   22823302.1524
 -25974051.57448 -20205290.75846  20778656.0944                   20778654.0704
 -40462549.48446 -31519397.13743  23884486.7664                   23884485.7504
 -22455457.40648 -17460145.55546  20915193.7114                   20915191.9614
 -34165543.79747 -26590974.16044  22670099.2814                   22670099.0744
 -12314018.75846  -9559048.56242  24715747.3054                   24715750.0004
 -35842405.53948 -27919058.78146  20643747.5864                   20643743.2704
 11  8 15  1 16 30.0000000  0  8G10G25G12G17G05G04G09G02
 -29268414.18748 -22775259.14146  21091372.4534                   21091371.3444
  -7253327.46547  -5622135.80545  22800744.4694                   22800746.2344
 -26035861.87948 -20253454.62946  20766894.0784                   20766891.8054
 -40435107.24246 -31498013.59843  23889708.7034                   23889708.1684
 -22556617.93448 -17538971.89546  20895943.2814                   20895942.2894
 -34121341.84447 -26556531.09444  22678510.9614                   22678509.9574
 -12269409.57046  -9524288.25843  24724236.5554                   24724238.6024
 -35863548.26648 -27935533.63346  20639724.1094                   20639719.8444
 11  8 15  1 17  0.0000000  0  8G10G25G12G17G05G04G09G02
 -29264179.34448 -22771959.27746  21092178.7974                   21092176.9844
  -7371442.43047  -5714173.42245  22778267.8204                   22778269.7464
 -26097060.27048 -20301141.68746  20755248.1334                   20755246.0434
 -40407428.92146 -31476446.09043  23894975.3984                   23894975.1884
 -22657246.91048 -17617384.05146  20876794.4304                   20876792.6484
 -34077060.89147 -26522026.47344  22686936.8284                   22686936.2704
 -12224811.54746  -9489536.64143  24732723.1644                   24732725.5084
 -35884426.76248 -27951802.58246  20635751.1174                   20635747.3164
 11  8 15  1 17 30.0000000  0  8G10G25G12G17G05G04G09G02
 -29259326.28948 -22768177.67646  21093102.5164                   21093100.9734
  -7489152.97347  -5805895.91445  22755868.9304                   22755869.6564
 -26157659.99648 -20348362.25046  20743716.7664                   20743714.1254
 -40379528.67246 -31454705.66443  23900284.6254                   23900284.7424
 -22757356.54348 -17695391.52346  20857744.1414                   20857742.5044
 -34032716.66047 -26487472.53944  22695375.5474                   22695374.4494
 -12180241.99646  -9454807.23843  24741204.5474                   24741206.7664
 -35905056.60548 -27967877.77746  20631825.2274                   20631821.0164
 11  8 15  1 18  0.0000000  0  8G10G25G12G17G05G04G09G02
 -29253844.60948 -22763906.25046  21094145.2194                   21094143.5634
  -7606444.54347  -5897291.94145  22733548.4774                   22733549.8984
 -26217647.55548 -20395105.80946  20732301.4454                   20732299.5784
 -40351394.35946 -31432782.83243  23905638.9534                   23905638.9494
 -22856933.00048 -17772983.53946  20838795.2194                   20838793.8754
 -33988298.35947 -26452860.90244  22703828.5394                   22703827.1604
 -12135691.53546  -9420092.63743  24749681.9844                   24749684.6684
 -35925427.00048 -27983750.80546  20627948.9454                   20627944.6524
 11  8 15  1 18 30.0000000  0  8G10G25G12G17G05G04G09G02
 -29247727.53948 -22759139.70346  21095309.6804                   21095307.9384
  -7723306.41847  -5988353.12945  22711311.0314                   22711312.2464
 -26277014.23848 -20441365.55946  20721004.4614                   20721002.5514
 -40323017.54346 -31410671.03543  23911038.9304                   23911037.8984
 -22955965.94948 -17850152.03546  20819950.1334                   20819948.5784
 -33943799.04747 -26418186.12944  22712296.2734                   22712295.6214
 -12091155.18746  -9385389.02743  24758157.3364                   24758159.4844
 -35945530.82848 -27999416.12546  20624123.3834                   20624118.9024
 11  8 15  1 19  0.0000000  0  7G10G25G12G17G05G04G02
 -29241000.07448 -22753897.52745  21096589.6644                   21096588.1764
  -7839759.03547  -6079095.41045  22689150.3444                   22689151.9494
 -26335781.83248 -20487158.48046  20709820.9454                   20709818.6414
 -40294421.24246 -31388388.20743  23916480.3674                   23916479.8244
 -23054476.34848 -17926913.34446  20801203.9144                   20801202.5434
 -33899243.02047 -26383467.14144  22720774.7894                   22720773.7664
 -35965391.98048 -28014892.33646  20620343.8914                   20620339.6524
 11  8 15  1 19 30.0000000  0  7G10G25G12G17G05G04G02
 -29233639.42248 -22748161.96546  21097990.3594                   21097988.6884
  -7955775.71947  -6169498.03145  22667072.9844                   22667074.2274
 -26393924.71148 -20532464.63746  20698756.9694                   20698754.7034
 -40265581.03946 -31365915.35944  23921968.6804                   23921968.0864
 -23152438.05148 -18003247.10246  20782562.4224                   20782560.7234
 -33854607.45347 -26348686.21144  22729268.8524                   22729267.9344
 -35984987.78948 -28030161.80946  20616614.9144                   20616610.9494
 11  8 15  1 20  0.0000000  0  7G10G25G12G17G05G04G02
 -29225649.57048 -22741936.11346  21099510.6804                   21099509.0234
  -8071355.68047  -6259560.32845  22645079.0474                   22645080.2624
 -26451444.42648 -20577285.19946  20687811.3134                   20687809.1024
 -40236498.76647 -31343253.83644  23927502.4924                   23927502.3444
 -23249850.87548 -18079153.16846  20764025.1884                   20764023.9844
 -33809895.35947 -26313845.65244  22737777.3594                   22737776.8524
 -36004321.44948 -28045226.99246  20612935.8594                   20612932.3364
 11  8 15  1 20 30.0000000  0  7G10G25G12G17G05G04G02
 -29217050.99648 -22735235.92646  21101146.8524                   21101145.3834
  -8186514.93747  -6349294.80145  22623164.9774                   22623165.8094
 -26508358.40648 -20621633.76646  20676981.2114                   20676978.6724
 -40207192.85547 -31320418.05944  23933080.0084                   23933079.2034
 -23346731.43048 -18154644.47346  20745589.5474                   20745588.4304
 -33765126.42647 -26278960.79344  22746296.8674                   22746295.6604
 -36023411.98848 -28060102.73846  20609303.1484                   20609298.9384
 11  8 15  1 21  0.0000000  0  7G10G25G12G17G05G04G02
 -29207814.94547 -22728039.01646  21102904.7274                   21102902.9614
  -8301220.93447  -6438676.08645  22601337.1094                   22601337.8714
 -26564635.37548 -20665485.96146  20666271.7504                   20666269.6134
 -40177632.98447 -31297384.42644  23938704.6024                   23938704.7304
 -23443047.79348 -18229696.15646  20727261.4144                   20727259.4654
 -33720272.01647 -26244009.31244  22754832.2034                   22754831.7734
 -36042230.90248 -28074766.82846  20605721.6724                   20605717.5204
 11  8 15  1 21 30.0000000  0  7G10G25G12G17G05G04G02
 -29197960.58248 -22720360.28146  21104779.6484                   21104778.1914
  -8415488.50047  -6527715.72345  22579592.6564                   22579593.5554
 -26620291.67648 -20708854.51646  20655680.7664                   20655678.6914
 -40147836.35547 -31274166.29744  23944374.2584                   23944374.4024
 -23538815.28548 -18304320.13746  20709037.5704                   20709035.8714
 -33675350.64147 -26209005.66844  22763380.5394                   22763379.4694
 -36060796.72348 -28089233.70746  20602188.8284                   20602184.6484
 11  8 15  1 22  0.0000000  0  7G10G25G12G17G05G04G02
 -27612070.56248 -21484601.83646  21406564.6564                   21406562.9694
  -6953891.39147  -5388808.87145  22857725.5164                   22857726.4964
 -25099904.88348 -19524137.54746  20945000.5234                   20944998.1644
 -38542383.85247 -30023164.34044  24249882.2274                   24249881.8484
 -22058609.06248 -17150912.65646  20990711.2974                   20990709.5984
 -32054945.04747 -24946351.99244  23071733.4144                   23071732.7544
 -34503689.88748 -26875903.71146  20898496.6334                   20898492.4304
 11  8 15  1 22 30.0000000  0  7G10G25G12G17G05G04G02
 -27600982.33648 -21475961.65645  21408674.7194                   21408673.1414
  -7067271.07847  -5477156.65245  22836150.0944                   22836151.0434
 -25154313.95748 -19566534.23846  20934647.3284                   20934644.8444
 -38512109.84447 -29999574.23044  24255643.0864                   24255643.2114
 -22153269.82448 -17224674.25046  20972698.0084                   20972696.1524
 -32009889.63747 -24911243.91844  23080307.0784                   23080306.6414
 -34521749.00048 -26889975.74646  20895059.7194                   20895055.9104
 11  8 15  1 23  0.0000000  0  7G10G25G12G17G05G04G02
 -27589289.43048 -21466850.31246  21410899.6804                   21410898.3054
  -7180212.92247  -5565163.25845  22814658.0314                   22814658.8444
 -25208108.09848 -19608451.76246  20924410.4454                   20924408.0164
 -38481606.95347 -29975805.74244  24261447.5944                   24261447.5664
 -22247384.22348 -17298010.10546  20954788.3984                   20954787.0204
 -31964778.85247 -24876092.69144  23088891.7424                   23088890.6564
 -34539566.43048 -26903859.46946  20891669.0554                   20891665.3634
 11  8 15  1 23 30.0000000  0  7G10G25G12G17G05G04G02
 -27576989.67648 -21457266.09045  21413240.4924                   21413238.8794
  -7292710.12948  -5652823.40645  22793250.5704                   22793251.5864
 -25261281.89148 -19649885.89846  20914292.0314                   20914289.9384
 -38450870.71947 -29951855.45744  24267296.3834                   24267296.1374
 -22340946.14548 -17370915.45746  20936984.3054                   20936982.6214
 -31919609.67247 -24840895.97344  23097486.5864                   23097486.3204
 -34557138.96548 -26917552.35246  20888325.0234                   20888321.3404
 11  8 15  1 24  0.0000000  0  7G10G25G12G17G05G04G02
 -27564075.36748 -21447203.00046  21415697.9924                   21415697.0234
  -7404750.64848  -5740127.68745  22771929.8914                   22771930.9184
 -25313824.43748 -19690828.14846  20904293.2974                   20904291.1414
 -38419891.30547 -29927715.68044  24273192.2504                   24273191.6484
 -22433944.11348 -17443381.36746  20919287.2344                   20919285.4534
 -31874373.61347 -24805647.13344  23106095.0004                   23106094.6024
 -34574457.98048 -26931047.68746  20885029.3754                   20885025.7934
 11  8 15  1 24 30.0000000  0  7G10G25G12G17G05G04G02
 -27550561.70348 -21436672.87146  21418269.2194                   21418267.8444
  -7516345.19548  -5827084.46545  22750694.1484                   22750695.2464
 -25365749.39848 -19731289.16446  20894411.9534                   20894410.0594
 -38388682.26247 -29903396.96544  24279130.9534                   24279130.7234
 -22526389.62948 -17515416.79346  20901695.4844                   20901693.8954
 -31829085.18047 -24770357.48044  23114713.3054                   23114712.7154
 -34591537.86348 -26944356.68746  20881779.2504                   20881775.4384
 11  8 15  1 25  0.0000000  0  7G10G25G12G17G05G04G02
 -27536460.41048 -21425684.85246  21420952.9384                   21420951.3244
  -7627501.26248  -5913699.55945  22729541.8054                   22729542.7934
 -25417065.35548 -19771275.62946  20884647.0784                   20884645.0634
 -38357253.30146 -29878906.89144  24285111.1884                   24285111.4264
 -22618290.52748 -17587027.85246  20884207.1254                   20884205.5824
 -31783755.09447 -24735035.37544  23123338.7034                   23123338.7664
 -34608389.59448 -26957487.90646  20878572.9144                   20878568.6804
 11  8 15  1 25 30.0000000  0  7G10G25G12G17G05G04G02
 -27521751.11748 -21414223.07446  21423751.9224                   21423749.8134
  -7738193.78547  -5999953.45345  22708477.5634                   22708478.5274
 -25467748.89148 -19810769.29746  20875002.5314                   20875000.2934
 -38325581.65646 -29854227.70344  24291138.6484                   24291138.5044
 -22709622.68048 -17658195.72346  20866827.0634                   20866825.6094
 -31738362.15247 -24699664.28944  23131977.0004                   23131976.9964
 -34624991.90648 -26970424.77746  20875413.1174                   20875409.7774
 11  8 15  1 26  0.0000000  0  7G10G25G12G17G05G04G02
 -27506443.41848 -21402295.00046  21426664.5394                   21426663.4694
  -7848427.84448  -6085850.12145  22687501.1644                   22687502.2154
 -25517806.63748 -19849775.33646  20865476.6254                   20865474.7154
 -38293674.80546 -29829365.27744  24297209.5474                   24297210.3984
 -22800392.14548 -17728925.14546  20849554.3054                   20849552.5164
 -31692915.08247 -24664251.03144  23140625.5084                   23140625.1604
 -34641353.32048 -26983173.93446  20872300.1334                   20872296.3524
 11  8 15  1 26 30.0000000  0  7G10G25G12G17G05G04G02
 -27490553.52747 -21389913.27745  21429688.5084                   21429686.7894
  -7958215.60547  -6171399.02045  22666608.8914                   22666609.8674
 -25567252.61348 -19888304.68446  20856067.5704                   20856065.6484
 -38261547.34046 -29804330.90243  24303323.6564                   24303323.7544
 -22890611.48448 -17799225.89546  20832386.0634                   20832384.4184
 -31647429.41447 -24628807.69944  23149281.0944                   23149281.0084
 -34657489.54348 -26995747.62546  20869229.3594                   20869225.5664
 11  8 15  1 27  0.0000000  0  7G10G25G12G17G05G04G02
 -27474067.09047 -21377066.71145  21432825.8594                   21432824.3284
  -8067538.03547  -6256585.32045  22645805.6254                   22645806.3484
 -25616070.05148 -19926344.24246  20846777.9614                   20846775.6254
 -38229182.62146 -29779111.68044  24309482.4924                   24309482.3444
 -22980262.16848 -17869083.54346  20815326.0864                   20815324.6334
 -31601889.51246 -24593322.09844  23157947.1334                   23157946.9344
 -34673385.19948 -27008133.85546  20866204.5474                   20866200.8874
 11  8 15  1 27 30.0000000  0  7G10G25G12G17G05G04G02
 -27456990.19447 -21363760.04445  21436075.3134                   21436073.9454
  -8176396.64348  -6341410.22045  22625090.8364                   22625091.0084
 -25664261.71548 -19963896.18446  20837607.5234                   20837605.1134
 -38196584.58246 -29753710.65644  24315685.8984                   24315686.0984
 -23069346.79748 -17938500.10246  20798373.6334                   20798372.1604
 -31556300.76647 -24557798.43744  23166622.8914                   23166621.5944
 -34689044.87148 -27020336.21146  20863224.7424                   20863220.7154
 11  8 15  1 28  0.0000000  0  7G10G25G12G17G05G04G02
 -27439339.50448 -21350006.27045  21439434.0004                   21439432.2854
  -8284803.68047  -6425883.24245  22604461.3134                   22604461.8444
 -25711841.56648 -20000971.39846  20828553.3054                   20828551.2464
 -38163767.68446 -29728139.09443  24321930.2814                   24321930.3054
 -23157877.90248 -18007485.34446  20781526.8834                   20781525.2624
 -31510678.52347 -24522248.68044  23175304.0004                   23175303.6334
 -34704484.55148 -27032367.12946  20860286.4384                   20860282.6804
 11  8 15  1 28 30.0000000  0  7G10G25G12G17G05G04G02
 -27421106.35248 -21335798.62545  21442903.6334                   21442902.1684
  -8392745.96147  -6509994.10945  22583920.6724                   22583921.2504
 -25758798.08648 -20037560.90246  20819617.7974                   20819615.3754
 -38130721.39546 -29702388.78143  24328218.8674                   24328219.5084
 -23245843.46548 -18076029.91046  20764787.6484                   20764786.1054
 -31465013.44547 -24486665.53544  23183994.0634                   23183993.5554
 -34719694.42648 -27044218.98446  20857392.4224                   20857388.6994
 11  8 15  1 29  0.0000000  0  8G10G25G12G17G05G04G29G02
 -27402291.30548 -21321137.55945  21446484.4304                   21446482.9694
  -8500219.62547  -6593739.83245  22563468.7664                   22563470.1684
 -25805129.97348 -20073663.66446  20810800.8674                   20810798.7584
 -38097443.96545 -29676458.36343  24334550.9144                   24334551.7704
 -23333240.36748 -18144131.35546  20748156.6334                   20748154.6954
 -31419304.84047 -24451048.45744  23192691.9144                   23192691.2544
   7706893.46156   6040484.49253  24684427.2584                   24684426.8674
 -34734674.34048 -27055891.64846  20854541.4694                   20854537.5704
 11  8 15  1 29 30.0000000  0  8G10G25G12G17G05G04G29G02
 -27382890.27348 -21306019.88745  21450176.4844                   21450174.6524
  -8607216.03148  -6677113.65645  22543108.6564                   22543109.2774
 -25850830.13348 -20109274.19146  20802104.7584                   20802102.6994
 -38063929.06645 -29650342.92243  24340929.7974                   24340928.2384
 -23420060.84848 -18211783.64546  20731635.0704                   20731633.4654
 -31373547.73847 -24415393.59844  23201399.3524                   23201398.8164
   7590269.53946   5949608.70743  24662234.3284                   24662234.9454
 -34749418.79748 -27067380.84446  20851735.9304                   20851731.8094
 11  8 15  1 30  0.0000000  0  8G10G25G12G17G05G04G29G02
 -27362937.04748 -21290471.93045  21453973.3754                   21453972.0124
  -8713764.61747  -6760138.53545  22522832.6414                   22522833.7894
 -25895929.59448 -20144416.64146  20793522.5004                   20793520.3954
 -38030208.89845 -29624067.52043  24347345.8134                   24347346.2344
 -23506334.95748 -18279010.19546  20715217.6174                   20715216.1484
 -31327774.72747 -24379726.36344  23210109.3674                   23210109.0124
   7473591.48046   5858690.69943  24640031.0394                   24640031.8634
 -34763960.84448 -27078712.30946  20848968.4694                   20848964.4614
 11  8 15  1 30 30.0000000  0  8G10G25G12G17G05G04G29G02
 -27342420.51648 -21274485.02745  21457876.9774                   21457876.0864
  -8819849.84447  -6842802.35545  22502645.5164                   22502646.8404
 -25940414.68448 -20179080.35946  20785057.3834                   20785055.3134
 -37996270.03145 -29597621.69143  24353805.2344                   24353804.3054
 -23592047.77048 -18345799.37146  20698906.7424                   20698905.4454
 -31281973.71947 -24344037.29344  23218825.2424                   23218824.6804
   7356873.50446   5767741.58643  24617821.1884                   24617820.6764
 -34778288.52748 -27089876.74646  20846241.9144                   20846238.3134
 11  8 15  1 31  0.0000000  0  8G10G25G12G17G05G04G29G02
 -27321359.12948 -21258073.57445  21461885.3594                   21461883.6374
  -8925485.48047  -6925115.84845  22482543.7584                   22482544.9494
 -25984301.27348 -20213277.71946  20776706.1564                   20776703.7624
 -37962128.77045 -29571018.19543  24360301.1884                   24360301.1804
 -23677214.07048 -18412162.69146  20682700.2734                   20682698.7774
 -31236161.71547 -24308339.66044  23227543.2504                   23227542.5274
   7240100.11746   5676749.30944  24595599.7194                   24595599.8714
 -34792418.87948 -27100887.41046  20843553.2114                   20843549.5474
 11  8 15  1 31 30.0000000  0  8G10G25G12G17G05G04G29G02
 -27299741.03548 -21241228.31645  21465999.0944                   21465997.6884
  -9030654.69947  -7007065.91445  22462530.4144                   22462531.6524
 -26027574.29748 -20246996.97346  20768471.2344                   20768469.3554
 -37927770.77746 -29544245.79743  24366839.2034                   24366838.9494
 -23761817.89548 -18478087.71546  20666600.7664                   20666599.0004
 -31190325.60947 -24272623.26244  23236265.8754                   23236265.1374
   7123285.95746   5585725.24743  24573369.9774                   24573369.8954
 -34806338.32448 -27111733.73846  20840904.3914                   20840900.4104
 11  8 15  1 32  0.0000000  0  8G10G25G12G17G05G04G29G02
 -27277551.10548 -21223937.46545  21470221.5554                   21470220.3794
  -9135338.16447  -7088637.44945  22442610.0944                   22442611.0084
 -26070216.44948 -20280224.64546  20760356.7034                   20760354.3014
 -37893178.69146 -29517290.91843  24373422.4694                   24373422.3404
 -23845840.72348 -18543560.01246  20650611.7894                   20650610.2544
 -31144449.23847 -24236875.45744  23244995.8054                   23244995.1374
   7006448.87546   5494683.34843  24551137.2274                   24551136.4414
 -34820030.99248 -27122403.35246  20838298.7114                   20838294.9024
 11  8 15  1 32 30.0000000  0  8G10G25G12G17G05G04G29G02
 -27254806.33248 -21206214.28545  21474549.7274                   21474548.2034
  -9239548.36347  -7169840.20345  22422778.9844                   22422781.0514
 -26112241.88348 -20312971.75846  20752359.5474                   20752357.3754
 -37858367.40646 -29490165.30943  24380046.3204                   24380046.2584
 -23929295.71948 -18608589.84446  20634730.8204                   20634729.3324
 -31098548.14847 -24201108.41844  23253730.4534                   23253730.3714
   6889574.72746   5403612.56343  24528896.6884                   24528896.5274
 -34833512.91448 -27132908.75446  20835733.0944                   20835729.4574
 11  8 15  1 33  0.0000000  0  8G10G25G12G17G05G04G29G02
 -27231497.46948 -21188051.54745  21478984.9694                   21478983.5204
  -9343271.54747  -7250663.45345  22403041.7974                   22403042.5434
 -26153639.25048 -20345229.47746  20744482.0554                   20744479.9924
 -37823325.75446 -29462860.13743  24386714.8834                   24386714.5164
 -24012170.24648 -18673167.37147  20618960.5234                   20618958.3244
 -31052612.14547 -24165314.13344  23262471.5634                   23262470.9144
   6772675.18847   5312522.00843  24506651.3754                   24506650.9184
 -34846773.35548 -27143241.56646  20833209.8674                   20833206.0394
 11  8 15  1 33 30.0000000  0  8G10G25G12G17G05G04G29G02
 -27207642.48048 -21169463.24245  21483525.0084                   21483523.4104
  -9446521.04348  -7331117.59445  22383394.5784                   22383394.7504
 -26194423.50448 -20377009.43446  20736721.1564                   20736719.2894
 -37788069.24646 -29435387.56143  24393424.5394                   24393423.9534
 -24094478.30948 -18737303.49246  20603297.6414                   20603295.6644
 -31006657.71947 -24129505.52244  23271216.4304                   23271216.2074
   6655735.58746   5221400.26943  24484398.9844                   24484397.9494
 -34859829.19148 -27153414.94146  20830725.2504                   20830721.2384
 11  8 15  1 34  0.0000000  0  8G10G25G12G17G05G04G29G02
 -27183240.11748 -21150448.43045  21488168.1414                   21488167.1374
  -9549291.07047  -7411198.11745  22363837.5784                   22363838.3094
 -26234590.57048 -20408308.46546  20729077.7814                   20729075.7584
 -37752594.75046 -29407745.12543  24400175.4614                   24400174.4844
 -24176214.66048 -18800994.12946  20587743.8594                   20587742.3794
 -30960682.27047 -24093680.48844  23279965.3054                   23279964.8594
   6538759.66046   5130250.19943  24462139.4224                   24462137.8444
 -34872677.80548 -27163426.85546  20828280.2274                   20828276.4414
 11  8 15  1 34 30.0000000  0  8G10G25G12G17G05G04G29G02
 -27158285.80548 -21131003.53145  21492917.4454                   21492915.7934
  -9651572.28147  -7490897.75045  22344373.7974                   22344374.7664
 -26274133.34048 -20439121.02346  20721552.8364                   20721550.6844
 -37716894.63746 -29379926.84043  24406968.0784                   24406967.4694
 -24257371.55148 -18864233.23447  20572299.6644                   20572298.4494
 -30914679.74646 -24057834.38344  23288719.0864                   23288718.9144
   6421755.27746   5039077.92643  24439873.4224                   24439872.9454
 -34885313.28148 -27173272.68746  20825875.8914                   20825871.9654
 11  8 15  1 35  0.0000000  0  8G10G25G12G17G05G04G29G02
 -27132776.83647 -21111126.42645  21497771.4454                   21497770.0004
  -9753357.82047  -7570211.14145  22325004.5944                   22325005.4384
 -26313046.93748 -20469443.33246  20714147.7194                   20714145.5944
 -37680965.03147 -29351929.78143  24413805.1174                   24413804.2034
 -24337942.31648 -18927015.62147  20556967.5784                   20556966.3364
 -30868646.22346 -24021964.11344  23297478.9844                   23297478.1844
   6304727.73046   4947887.56643  24417604.7424                   24417603.6724
 -34897731.75848 -27182949.42246  20823512.5864                   20823508.6294
 11  8 15  1 35 30.0000000  0  8G10G25G12G17G05G04G29G02
 -27106726.77348 -21090827.69945  21502728.8914                   21502726.9924
  -9854656.32047  -7649145.00845  22305728.1024                   22305729.2814
 -26351342.12548 -20499283.75046  20706860.7344                   20706858.2504
 -37644816.58647 -29323762.13743  24420684.4614                   24420682.9414
 -24417936.88348 -18989349.02047  20541745.5474                   20541743.9924
 -30822593.83247 -23986079.13344  23306242.9924                   23306242.3404
   6187666.96146   4856671.39543  24395328.2194                   24395328.5864
 -34909945.39548 -27192466.55146  20821188.7734                   20821184.8554
 11  8 15  1 36  0.0000000  0  8G10G25G12G17G05G04G29G02
 -27080149.23848 -21070117.93445  21507786.1174                   21507784.7544
  -9955476.98847  -7727706.52345  22286542.5004                   22286543.1644
 -26389029.80948 -20528650.79346  20699688.7894                   20699686.4384
 -37608460.88747 -29295432.95343  24427602.8444                   24427600.8404
 -24497365.25048 -19051241.22347  20526630.8204                   20526628.9344
 -30776534.69947 -23950188.89844  23315007.5004                   23315007.1254
   6070561.85546   4765420.67643  24373043.2894                   24373043.7074
 -34921966.85248 -27201833.91446  20818901.2814                   20818897.1334
 11  8 15  1 36 30.0000000  0  8G10G25G12G17G05G04G29G02
 -27053037.24247 -21048991.71545  21512945.8834                   21512943.7544
 -10055808.29347  -7805886.73045  22267450.2734                   22267451.1094
 -26426100.94548 -20557537.39546  20692634.2894                   20692632.2734
 -37571888.94947 -29266935.30143  24434562.0234                   24434561.2504
 -24576216.94948 -19112684.08247  20511625.6334                   20511623.7194
 -30730460.64847 -23914287.03543  23323775.0084                   23323774.5004
   5953422.37946   4674143.19543  24350753.7344                   24350752.9024
 -34933787.61748 -27211044.90646  20816651.4844                   20816648.0354
 11  8 15  1 37  0.0000000  0  8G10G25G12G17G05G04G29G02
 -27025382.61747 -21027442.66445  21518207.7424                   21518206.6644
 -10155637.28547  -7883675.51645  22248452.9614                   22248454.2234
 -26462544.17248 -20585934.71946  20685699.1884                   20685697.2854
 -37535089.74647 -29238260.62143  24441564.8204                   24441563.7384
 -24654479.91448 -19173668.17647  20496732.5084                   20496731.0394
 -30684361.59847 -23878365.68744  23332547.6804                   23332546.9614
   5836260.23046   4582848.00443  24328457.6414                   24328457.1564
 -34945397.72348 -27220091.73846  20814442.5314                   20814438.5084
 11  8 15  1 37 30.0000000  0  7G10G25G12G05G04G29G02
 -26997207.26248 -21005487.85945  21523569.3754                   21523567.7934
 -10254981.57047  -7961086.59845  22229548.5394                   22229549.5124
 -26498379.17248 -20613858.09446  20678880.3444                   20678878.4774
 -24732172.44948 -19234207.79347  20481948.2974                   20481946.4844
 -30638258.28147 -23842441.02044  23341320.7424                   23341320.3714
   5719056.17646   4491520.23443  24306154.5944                   24306155.2734
 -34956818.04348 -27228990.69146  20812268.9534                   20812265.2774
 11  8 15  1 38  0.0000000  0  7G10G25G12G05G04G29G02
 -26968504.37548 -20983121.98845  21529031.2894                   21529030.5864
 -10353829.55148  -8038110.96945  22210738.8054                   22210739.5664
 -26533596.31648 -20641300.02746  20672178.5314                   20672176.6684
 -24809284.22748 -19294294.85947  20467274.3834                   20467272.6524
 -30592142.27346 -23806506.48444  23350096.1174                   23350095.9264
   5601820.32446   4400167.68843  24283844.6564                   24283845.6024
 -34968040.28948 -27237735.30546  20810133.4844                   20810129.9064
 11  8 15  1 38 30.0000000  0  7G10G25G12G05G04G29G02
 -26939264.60547 -20960337.76645  21534595.5394                   21534594.1214
 -10452167.41048  -8114737.84045  22192026.0634                   22192026.7304
 -26568184.28948 -20668251.69546  20665596.5164                   20665594.8164
 -24885801.90648 -19353918.99646  20452713.4454                   20452711.5744
 -30546002.60546 -23770553.46944  23358876.0554                   23358875.5864
   5484564.92746   4308799.87043  24261532.3284                   24261532.7304
 -34979053.70348 -27246317.18446  20808037.5864                   20808034.2234
 11  8 15  1 39  0.0000000  0  7G10G25G12G05G04G29G02
 -26909497.21148 -20937142.40645  21540259.6094                   21540258.6214
 -10549999.88748  -8190970.89845  22173408.9694                   22173409.4494
 -26602150.00848 -20694718.49646  20659133.3594                   20659131.3524
 -24961731.64548 -19413085.00847  20438264.3134                   20438262.6134
 -30499847.03546 -23734588.09443  23367659.5004                   23367658.5044
   5367283.78146   4217412.03943  24239214.5084                   24239214.3594
 -34989866.11748 -27254742.44546  20805980.1334                   20805976.2854
 11  8 15  1 39 30.0000000  0  7G10G25G12G05G04G29G02
 -26879208.19548 -20913540.57845  21546024.0164                   21546022.4024
 -10647328.25848  -8266811.16045  22154887.7114                   22154888.1954
 -26635496.66848 -20720702.91046  20652787.5634                   20652785.5824
 -25037075.62148 -19471794.57046  20423926.9454                   20423925.6954
 -30453679.76646 -23698613.60944  23376444.4144                   23376444.1604
   5249974.27046   4126001.99643  24216891.1484                   24216891.9574
 -35000481.84448 -27263014.44546  20803959.9064                   20803956.0944
 11  8 15  1 40  0.0000000  0  7G10G25G12G05G04G29G02
 -26848387.96947 -20889524.83245  21551888.8444                   21551887.9454
 -10744138.46148  -8342247.65646  22136465.3204                   22136466.3874
 -26668211.98048 -20746195.35946  20646562.1804                   20646560.2704
 -25111820.69148 -19530037.45347  20409703.3364                   20409701.7154
 -30407489.88746 -23662621.50444  23385234.2424                   23385233.6174
   5132648.97346   4034579.71944  24194564.6414                   24194565.3524
 -35010890.11348 -27271124.79346  20801979.6954                   20801975.7034
 11  8 15  1 40 30.0000000  0  7G10G25G12G05G04G29G02
 -26817052.13748 -20865107.30945  21557852.0084                   21557850.6094
 -10840441.56648  -8417289.00446  22118139.5394                   22118140.6024
 -26700309.34848 -20771206.29346  20640454.0084                   20640452.1604
 -25185979.00848 -19587823.12147  20395591.3524                   20395589.5984
 -30361291.24646 -23626622.59844  23394025.6804                   23394024.7194
   5015295.54747   3943135.49243  24172233.3754                   24172233.4384
 -35021105.10548 -27279084.52746  20800035.4694                   20800032.0744
 11  8 15  1 41  0.0000000  0  7G10G25G12G05G04G29G02
 -26785201.41047 -20840288.57045  21563912.7664                   21563911.2034
 -10936233.72748  -8491932.22746  22099911.0864                   22099912.1054
 -26731786.74648 -20795734.13746  20634464.2584                   20634462.2424
 -25259547.47748 -19645149.16847  20381591.7734                   20381590.1644
 -30315082.95347 -23590616.15643  23402819.0784                   23402818.5634
   4897916.71947   3851671.47744  24149897.0314                   24149897.0124
 -35031125.79748 -27286892.86346  20798128.7344                   20798125.0554
 11  8 15  1 41 30.0000000  0  7G10G25G12G05G04G29G02
 -26752832.60947 -20815066.14845  21570072.4844                   21570071.4884
 -11031506.98848  -8566171.10946  22081780.9614                   22081781.7734
 -26762638.95748 -20819774.82046  20628593.5864                   20628591.1994
 -25332519.20348 -19702010.21947  20367706.0864                   20367703.8324
 -30268859.78146 -23554598.12143  23411614.7424                   23411614.9344
   4780518.74647   3760192.57444  24127557.1804                   24127556.4924
 -35040947.25048 -27294545.95346  20796260.0704                   20796255.7814
 11  8 15  1 42  0.0000000  0  7G10G25G12G05G04G29G02
 -26719961.02747 -20789451.93745  21576328.0394                   21576326.4224
 -11126272.10548  -8640014.05546  22063747.6804                   22063748.6054
 -26792878.51648 -20843338.11746  20622838.6724                   20622836.5784
 -25404906.13348 -19758415.58647  20353930.8054                   20353929.3794
 -30222635.42246 -23518579.16843  23420410.9924                   23420410.6134
   4663089.81646   3668689.49644  24105210.2974                   24105210.6844
 -35050583.37548 -27302054.62146  20794426.0634                   20794422.1254
 11  8 15  1 42 30.0000000  0  7G10G25G12G05G04G29G02
 -26686578.46947 -20763439.56245  21582680.0474                   21582678.7154
 -11220516.50048  -8713451.22345  22045813.3834                   22045814.7304
 -26822495.23448 -20866416.09046  20617203.3674                   20617201.0164
 -25476696.47348 -19814356.08647  20340269.8914                   20340267.9264
 -30176400.32846 -23482551.87543  23429209.4224                   23429208.8404
   4545640.99247   3577170.93444  24082860.5164                   24082861.0634
 -35060024.48448 -27309411.34846  20792629.4534                   20792625.7624
 11  8 15  1 43  0.0000000  0  7G10G25G12G05G04G29G02
 -26652684.40247 -20737028.60545  21589129.8524                   21589128.7424
 -11314235.06648  -8786478.67245  22027979.3674                   22027980.2274
 -26851486.23448 -20889006.48446  20611686.5784                   20611684.4614
 -25547886.47348 -19869828.77746  20326722.6954                   20326721.0704
 -30130151.98446 -23446514.21944  23438009.6334                   23438009.6914
   4428175.91446   3485639.73843  24060508.4304                   24060508.0554
 -35069268.41048 -27316614.41446  20790870.6174                   20790866.6804
 11  8 15  1 43 30.0000000  0  7G10G25G12G05G04G29G02
 -25042867.55547 -19482625.88745  21895467.7814                   21895466.5394
  -9832007.68048  -7631496.27746  22310037.4924                   22310038.6254
 -25304435.16048 -19683512.13746  20906080.0394                   20906078.5634
 -24043057.63748 -18697234.85247  20613082.3524                   20613080.7734
 -28508477.64546 -22182871.91444  23746604.7664                   23746604.6724
   5886114.99646   4621696.17244  24337944.7974                   24337945.0944
 -33502900.98448 -26096068.37546  21088940.1024                   21088936.6914
 11  8 15  1 44  0.0000000  0  7G10G25G12G05G04G29G02
 -25007983.15647 -19455443.23045  21902105.9384                   21902105.0394
  -9924693.47748  -7703718.98446  22292400.3444                   22292401.0554
 -25332199.63348 -19705146.80146  20900796.9144                   20900794.5204
 -24113068.56248 -18751788.78947  20599759.6484                   20599758.0234
 -28462229.86747 -22146834.73044  23755405.1484                   23755404.9964
   5768596.15046   4530123.07543  24315581.1954                   24315581.4534
 -33511778.41848 -26102985.87546  21087250.9224                   21087247.2624
 11  8 15  1 44 30.0000000  0  7G10G25G12G05G04G29G02
 -24972609.39547 -19427879.28545  21908837.4924                   21908836.6174
 -10016861.72748  -7775538.40246  22274861.2194                   22274862.3914
 -25359353.12548 -19726305.37546  20895629.5234                   20895627.6484
 -24182490.40648 -18805883.70347  20586548.9774                   20586547.4844
 -28415985.48047 -22110800.19544  23764205.5864                   23764205.0234
   5651049.57846   4438528.34043  24293212.7584                   24293213.2344
 -33520475.83648 -26109763.09446  21085595.8594                   21085592.0124
 11  8 15  1 45  0.0000000  0  7G10G25G12G05G04G29G02
 -24936750.21947 -19399937.08245  21915661.7034                   21915660.1564
 -10108512.01648  -7846954.21146  22257420.7974                   22257421.7854
 -25385897.41448 -19746989.23846  20890578.7814                   20890576.7344
 -24251323.80548 -18859520.08647  20573450.3204                   20573448.4494
 -28369746.79347 -22074770.08244  23773003.9924                   23773004.1294
   5533474.50846   4346911.41043  24270839.0004                   24270839.3324
 -33528995.88748 -26116402.10246  21083974.5314                   21083971.1604
 11  8 15  1 45 30.0000000  0  7G10G25G12G05G04G29G02
 -24900407.62547 -19371618.19145  21922577.5784                   21922575.9344
 -10199641.91048  -7917964.51645  22240079.4534                   22240080.1994
 -25411832.18048 -19767198.15246  20885643.5234                   20885641.0554
 -24319567.48048 -18912696.95747  20560463.8444                   20560462.3714
 -28323513.97747 -22038744.55144  23781802.0084                   23781802.2624
   5415872.16446   4255273.27043  24248460.5704                   24248460.2624
 -33537338.51648 -26122902.86746  21082387.1334                   21082383.3054
 11  8 15  1 46  0.0000000  0  7G10G25G12G05G04G29G02
 -24863584.74247 -19342925.03545  21929584.3444                   21929582.8014
 -10290249.77748  -7988568.04346  22222837.1484                   22222838.2734
 -25437158.07448 -19786932.61346  20880824.2114                   20880822.2274
 -24387220.98848 -18965413.94547  20547589.8594                   20547588.0354
 -28277287.75847 -22002724.11744  23790598.6724                   23790598.0274
   5298243.19146   4163614.34043  24226076.0554                   24226076.8324
 -33545505.02748 -26129266.38346  21080833.0164                   21080829.4414
 11  8 15  1 46 30.0000000  0  7G10G25G12G05G04G29G02
 -24826274.84047 -19313852.40245  21936684.2894                   21936683.0084
 -10380324.48448  -8058756.12545  22205696.6334                   22205697.3134
 -25461866.31248 -19806185.79746  20876122.0784                   20876120.2544
 -24454274.24648 -19017663.21147  20534830.1254                   20534828.2274
 -28231059.94947 -21966702.48043  23799395.5004                   23799394.9224
   5180597.48446   4071942.39543  24203688.9454                   24203688.7664
 -33553487.35548 -26135486.39846  21079314.1414                   21079310.5744
 11  8 15  1 47  0.0000000  0  7G10G25G12G05G04G29G02
 -24788490.98447 -19284410.45745  21943874.4614                   21943872.7814
 -10469874.15648  -8128535.09845  22188655.8444                   22188656.8404
 -25485967.25048 -19824965.74646  20871535.9844                   20871534.0634
 -24520736.29348 -19069451.79347  20522182.6804                   20522180.9024
 -28184841.25047 -21930687.93043  23808190.7194                   23808190.5044
   5062926.09446   3980250.44144  24181296.9454                   24181297.4494
 -33561296.43448 -26141571.39846  21077828.0944                   21077824.2934
 11  8 15  1 47 30.0000000  0  7G10G25G12G05G04G29G02
 -24750222.50447 -19254590.87145  21951156.8444                   21951155.1644
 -10558884.11348  -8197893.50845  22171718.1724                   22171718.4654
 -25509448.52048 -19843262.84846  20867067.8444                   20867065.7274
 -24586593.52748 -19120769.09847  20509650.8524                   20509648.6174
 -28138619.32847 -21894670.87143  23816986.1024                   23816985.6994
   4945242.75447   3888549.18444  24158902.7584                   24158903.2704
 -33568920.01648 -26147511.85546  21076377.4224                   21076373.7154
 11  8 15  1 48  0.0000000  0  7G10G25G12G05G04G29G02
 -24711487.08247 -19224407.43445  21958527.8984                   21958526.3054
 -10647367.43448  -8266841.55145  22154880.2034                   22154880.6294
 -25532325.46948 -19861089.03946  20862714.1884                   20862712.3524
 -24651860.23048 -19171626.24647  20497230.6254                   20497228.8634
 -28092410.06247 -21858663.64544  23825779.4304                   23825779.4804
   4827533.31647   3796827.55544  24136503.4224                   24136503.5004
 -33576374.12148 -26153320.26646  21074959.0084                   21074955.1054
 11  8 15  1 48 30.0000000  0  7G10G25G12G05G04G29G02
 -24672288.10547 -19193862.78945  21965986.7974                   21965985.6604
 -10735322.94548  -8335378.31646  22138142.8444                   22138143.7384
 -25554599.14148 -19878445.15646  20858475.9454                   20858473.9024
 -24716536.38748 -19222023.21547  20484923.3594                   20484921.1294
 -28046214.74247 -21822667.31644  23834570.0634                   23834569.9264
   4709798.06347   3705085.85244  24114098.9384                   24114099.5354
 -33583660.63748 -26158998.06646  21073572.5554                   21073568.7424
 11  8 15  1 49  0.0000000  0  7G10G25G12G05G04G29G02
 -24632629.11747 -19162959.71145  21973533.8594                   21973532.7814
 -10822749.55948  -8403502.94145  22121505.9144                   22121507.1454
 -25576270.50848 -19895331.94146  20854352.1254                   20854349.4454
 -24780622.02048 -19271960.05547  20472728.1024                   20472726.0164
 -28000034.71147 -21786682.90243  23843357.6954                   23843357.6564
   4592036.98047   3613324.01244  24091689.2894                   24091689.8134
 -33590780.56248 -26164546.06646  21072217.5394                   21072213.8754
 11  8 15  1 49 30.0000000  0  7G10G25G12G05G04G29G02
 -24592510.89847 -19131698.76245  21981168.3054                   21981166.5824
 -10909643.87948  -8471212.81245  22104970.2114                   22104971.1724
 -25597338.55148 -19911748.60546  20850342.4224                   20850340.6764
 -24844114.86748 -19321434.96947  20460645.8674                   20460644.1054
 -27953869.06247 -21750709.69543  23852143.1954                   23852142.6684
   4474252.62947   3521544.03144  24069276.0164                   24069276.6454
 -33597733.54748 -26169963.98446  21070894.7114                   21070890.8204
 11  8 15  1 50  0.0000000  0  7G10G25G12G05G04G29G02
 -24551935.60947 -19100081.66845  21988889.4844                   21988888.2154
 -10996003.42248  -8538505.96146  22088536.4774                   22088537.7734
 -25617803.54348 -19927695.35946  20846448.5234                   20846446.3714
 -24907013.44948 -19370446.82847  20448676.6334                   20448674.9024
 -27907717.66447 -21714747.55543  23860925.0004                   23860925.5944
   4356446.75846   3429747.28944  24046857.9774                   24046858.7274
 -33604519.70348 -26175251.89546  21069603.2194                   21069599.1334
 11  8 15  1 50 30.0000000  0  7G10G25G12G05G04G29G02
 -24510895.75847 -19068102.56245  21996698.8524                   21996697.5864
 -11081816.18748  -8605373.05546  22072207.0944                   22072208.4184
 -25637655.83648 -19943164.68746  20842670.8984                   20842668.2854
 -24969307.15248 -19418987.35547  20436822.4694                   20436820.8834
 -27861570.90247 -21678789.06643  23869706.8284                   23869706.8714
   4238630.22346   3337942.24244  24024438.8284                   24024438.8164
 -33611129.59848 -26180402.46146  21068345.3674                   21068341.4414
 11  8 15  1 51  0.0000000  0  7G10G25G12G05G04G29G02
 -24469394.64547 -19035764.03945  22004596.3204                   22004594.7814
 -11167081.12548  -8671813.26646  22055981.6254                   22055982.9614
 -25656896.42248 -19958157.36746  20839009.0394                   20839007.3794
 -25030996.09448 -19467056.64147  20425083.5704                   20425081.0164
 -27815430.09447 -21642835.19143  23878487.0314                   23878487.1914
   4120803.37147   3246129.13744  24002016.8204                   24002017.2854
 -33617564.64548 -26185416.78146  21067120.6804                   21067117.2664
 11  8 15  1 51 30.0000000  0  7G10G25G12G05G04G29G02
 -24427436.13747 -19003069.09845  22012580.6094                   22012579.7934
 -11251797.73448  -8737826.20746  22039860.7114                   22039861.7194
 -25675526.70748 -19972674.48046  20835464.3674                   20835462.2074
 -25092080.79748 -19514655.09447  20413459.3914                   20413457.4264
 -27769297.11346 -21606887.41443  23887266.1884                   23887265.8834
   4002966.24246   3154308.03144  23979592.6954                   23979593.6884
 -33623827.05148 -26190296.58246  21065929.1024                   21065925.2664
 11  8 15  1 52  0.0000000  0  7G10G25G12G05G04G29G02
 -24385028.10248 -18970023.88745  22020650.7114                   22020649.1954
 -11335969.16848  -8803414.34846  22023843.3364                   22023844.3554
 -25693552.07048 -19986720.22746  20832033.9304                   20832032.1094
 -25152565.49648 -19561786.00047  20401949.4144                   20401947.3094
 -27723177.50846 -21570950.03943  23896042.0784                   23896042.3484
   3885114.60546   3062475.63344  23957166.8914                   23957166.8834
 -33629922.96948 -26195046.64846  21064769.0554                   21064765.4064
 11  8 15  1 52 30.0000000  0  7G10G25G12G05G04G29G02
 -24342182.32047 -18936637.57045  22028803.7664                   22028802.6134
 -11419602.90248  -8868583.49246  22007928.6724                   22007930.1454
 -25710983.25848 -20000302.98446  20828716.9614                   20828714.7934
 -25212458.98048 -19608456.22747  20390552.3054                   20390550.4024
 -27677080.89146 -21535030.61343  23904814.0944                   23904814.5004
   3767240.74246   2970625.92644  23934735.3204                   23934736.2424
 -33635861.80548 -26199674.31246  21063639.1094                   21063635.2274
 11  8 15  1 53  0.0000000  0  7G10G25G12G05G04G29G02
 -24298889.51247 -18902902.92245  22037041.9614                   22037041.0864
 -11502685.22748  -8933322.96946  21992118.1884                   21992119.8284
 -25727808.34448 -20013413.44946  20825515.5474                   20825513.3984
 -25271748.64848 -19654655.94947  20379269.7274                   20379267.7114
 -27630996.10246 -21499120.37143  23913584.2584                   23913583.2974
   3649357.01646   2878768.49644  23912303.7584                   23912303.8554
 -33641631.90648 -26204170.48846  21062540.6804                   21062537.0904
 11  8 15  1 53 30.0000000  0  7G10G25G12G05G04G29G02
 -24255147.57447 -18868818.30945  22045366.3364                   22045365.1054
 -11585209.93048  -8997627.92646  21976414.5864                   21976415.8054
 -25744023.71548 -20026048.81646  20822429.6884                   20822427.7664
 -25330429.64148 -19700381.37947  20368103.1414                   20368101.2734
 -27584918.85246 -21463215.97743  23922352.4224                   23922351.9414
   3531468.89546   2786907.66844  23889870.1024                   23889870.0084
 -33647230.35548 -26208532.91446  21061475.6804                   21061472.0554
 11  8 15  1 54  0.0000000  0  7G10G25G12G05G04G29G02
 -24210966.55947 -18834391.53945  22053773.4384                   22053772.2304
 -11667182.33648  -9061502.52346  21960815.7814                   21960817.1094
 -25759636.74648 -20038214.81646  20819458.4774                   20819456.5004
 -25388508.27348 -19745637.43747  20357051.0394                   20357049.0164
 -27538856.84046 -21427323.48843  23931116.4534                   23931117.6724
   3413571.07447   2695039.27044  23867435.7504                   23867434.0514
 -33652664.77348 -26212767.51646  21060441.5474                   21060437.4104
 11  8 15  1 54 30.0000000  0  7G10G25G12G05G04G29G02
 -24166358.34847 -18799631.91045  22062262.5704                   22062260.7734
 -11748610.25048  -9124952.84046  21945320.5004                   21945321.8204
 -25774657.90648 -20049919.63346  20816600.0084                   20816598.0634
 -25445993.78148 -19790431.31647  20346112.1094                   20346109.8204
 -27492820.01246 -21391450.60243  23939877.5944                   23939877.2234
   3295654.79747   2603156.46144  23844995.6804                   23844996.0274
 -33657945.27748 -26216882.19546  21059436.1644                   21059432.3094
 11  8 15  1 55  0.0000000  0  7G10G25G12G05G04G29G02
 -24121317.57847 -18764535.19945  22070833.2034                   22070831.7704
 -11829483.69948  -9187971.10946  21929930.8834                   21929932.0474
 -25789079.63348 -20061157.34846  20813855.8204                   20813853.8324
 -25502877.30548 -19834756.11347  20335287.0784                   20335285.3794
 -27446800.60946 -21355591.30143  23948634.5084                   23948634.3674
   3177729.50447   2511266.63344  23822555.9694                   23822555.6724
 -33663064.32448 -26220871.06246  21058462.1644                   21058458.3874
 11  8 15  1 55 30.0000000  0  7G10G25G12G05G04G29G02
 -24075836.07047 -18729095.06645  22079487.7504                   22079487.0784
 -11909789.87548  -9250547.34046  21914649.2894                   21914650.7274
 -25802891.33648 -20071919.71946  20811227.5004                   20811225.2504
 -25559147.12148 -19878602.70347  20324579.2734                   20324577.4304
 -27400787.84446 -21319737.15243  23957389.8594                   23957390.4774
   3059807.12947   2419379.10944  23800115.8524                   23800115.0744
 -33668011.46948 -26224725.98046  21057520.5554                   21057517.2544
 11  8 15  1 56  0.0000000  0  7G10G25G12G05G04G29G02
 -24029932.34047 -18693325.93745  22088223.2344                   22088222.4264
 -11989543.26248  -9312692.83646  21899472.6644                   21899473.5554
 -25816109.86748 -20082219.88746  20808712.2114                   20808710.1374
 -25614819.02748 -19921983.39147  20313985.1804                   20313983.5394
 -27354798.23446 -21283901.05543  23966141.9384                   23966141.9694
   2941872.93847   2327482.33644  23777673.7974                   23777672.8914
 -33672803.53948 -26228460.07046  21056609.0784                   21056605.0634
 11  8 15  1 56 30.0000000  0  7G10G25G12G05G04G29G02
 -23983598.03547 -18657221.28145  22097040.3594                   22097039.4224
 -12068731.53548  -9374397.98446  21884403.6094                   21884404.3134
 -25828725.25448 -20092050.06246  20806311.4614                   20806309.5314
 -25669881.84848 -19964889.46147  20303507.1724                   20303505.0394
 -27308821.81646 -21248075.25043  23974892.1564                   23974891.3674
   2823938.84447   2235585.63744  23755231.6884                   23755230.8674
 -33677430.52348 -26232065.51646  21055728.6254                   21055724.6134
 11  8 15  1 57  0.0000000  0  7G10G25G12G05G04G29G02
 -23936844.02347 -18620789.60245  22105937.7274                   22105936.2464
 -12147360.94948  -9435667.64546  21869440.9614                   21869441.7664
 -25840746.40248 -20101417.19946  20804023.9144                   20804021.7274
 -25724343.19948 -20007326.85547  20293143.7734                   20293141.6094
 -27262866.44946 -21212265.84043  23983636.3594                   23983636.2344
   2705997.60547   2143683.41044  23732787.5474                   23732787.7344
 -33681900.78948 -26235548.83646  21054878.0634                   21054874.0124
 11  8 15  1 57 30.0000000  0  7G10G25G12G05G04G29G02
 -23889684.29347 -18584041.77345  22114911.5474                   22114910.2854
 -12225441.16048  -9496509.36746  21854582.7274                   21854583.6844
 -25852185.15248 -20110330.51246  20801847.2034                   20801844.7814
 -25778213.74248 -20049303.87547  20282892.5944                   20282890.4104
 -27216944.14146 -21176482.19943  23992374.9454                   23992374.2704
   2588039.91847   2051768.35944  23710341.4064                   23710341.1454
 -33686226.73848 -26238919.71546  21054054.6484                   21054050.8404
 11  8 15  1 58  0.0000000  0  7G10G25G12G05G04G29G02
 -23842118.28147 -18546977.35945  22123963.2114                   22123961.8594
 -12302967.20348  -9556919.25046  21839829.7664                   21839830.8714
 -25863038.71548 -20118787.83646  20799781.9534                   20799779.6914
 -25831489.92648 -20090817.75847  20272754.3914                   20272752.2774
 -27171051.69946 -21140721.78543  24001107.8914                   24001107.8364
   2470070.08247   1959843.83244  23687892.4844                   23687891.9184
 -33690405.19548 -26242175.66046  21053259.4924                   21053255.6414
 11  8 15  1 58 30.0000000  0  7G10G25G12G05G04G29G02
 -23794144.98447 -18509595.57045  22133092.3444                   22133091.0314
 -12379933.94148  -9616893.33246  21825183.2584                   21825184.4534
 -25873304.83248 -20126787.41046  20797828.0784                   20797825.8634
 -25884167.96548 -20131865.55547  20262729.9304                   20262727.9924
 -27125186.09046 -21104982.29743  24009836.0554                   24009835.4804
   2352092.88747   1867913.57044  23665442.1024                   23665441.8794
 -33694433.37548 -26245314.51646  21052493.2274                   21052489.0434
 11  8 15  1 59  0.0000000  0  7G10G25G12G05G04G29G02
 -23745747.30547 -18471883.10245  22142301.8524                   22142300.9224
 -12456320.16448  -9676415.04346  21810647.8284                   21810648.9454
 -25882964.68448 -20134314.56646  20795990.0944                   20795987.7584
 -25936227.53948 -20172431.43447  20252823.4614                   20252821.3794
 -27079327.89546 -21069248.58243  24018562.4144                   24018562.2274
   2234129.23447   1775993.87144  23642994.4304                   23642993.7344
 -33698291.95748 -26248321.20746  21051758.7974                   21051755.2114
 11  8 15  1 59 30.0000000  0  7G10G25G12G05G04G29G02
 -23696952.38747 -18433861.11345  22151587.5554                   22151586.2274
 -12532148.36748  -9735501.94146  21796217.7344                   21796219.2974
 -25892042.69548 -20141388.34846  20794262.8284                   20794260.5554
 -25987692.50448 -20212533.97747  20243029.9774                   20243028.2734
 -27033501.47747 -21033539.64143  24027282.9144                   24027283.0124
   2116156.06647   1684066.77744  23620545.3134                   23620543.9804
 -33702005.80948 -26251215.12146  21051051.9924                   21051048.3134
 11  8 15  2  0  0.0000000  0  7G10G25G12G05G04G29G02
 -23647759.45347 -18395528.94945  22160948.5944                   22160947.8484
 -12607413.94948  -9794150.43746  21781895.3524                   21781896.3634
 -25900536.83648 -20148007.15246  20792646.1954                   20792644.0704
 -26038559.82448 -20252170.82447  20233350.0004                   20233347.8794
 -26987704.03146 -20997853.24643  24035998.2734                   24035997.2584
   1998177.73047   1592135.66444  23598093.7114                   23598093.4104
 -33705572.56648 -26253994.42646  21050372.9924                   21050369.6094
 11  8 15  2  0 30.0000000  0  7G10G25G12G05G04G29G02
 -23598170.94547 -18356888.58645  22170385.1174                   22170383.8284
 -12682114.97748  -9852359.01646  21767679.9224                   21767681.2854
 -25908448.04348 -20154171.73046  20791140.5634                   20791138.7384
 -26088828.60248 -20291341.27347  20223784.3834                   20223782.6134
 -26941935.49646 -20962189.41843  24044707.2424                   24044706.7624
   1880196.07047   1500201.93044  23575642.7274                   23575642.8014
 -33708992.68048 -26256659.44946  21049722.2664                   21049718.6024
 11  8 15  2  1  0.0000000  0  7G10G25G12G05G04G29G02
 -23548185.73047 -18317939.07845  22179896.7664                   22179895.8984
 -12756246.18748  -9910123.56646  21753573.3914                   21753574.6994
 -25915772.96948 -20159879.46946  20789746.8134                   20789744.4224
 -26138494.64848 -20330042.07047  20214333.2194                   20214331.4774
 -26896192.55046 -20926545.50943  24053411.2894                   24053411.3444
   1762216.21547   1408269.63344  23553191.4064                   23553191.8914
 -33712262.47348 -26259207.34446  21049100.3754                   21049096.4414
 11  8 15  2  1 30.0000000  0  7G10G25G12G05G04G29G02
 -23497806.78547 -18278682.77045  22189483.5784                   22189482.5784
 -12829806.57448  -9967443.32846  21739575.2504                   21739576.9734
 -25922513.34848 -20165131.70746  20788464.1414                   20788462.0634
 -26187558.32448 -20368273.47747  20204996.3054                   20204994.1724
 -26850475.89146 -20890922.10943  24062110.9694                   24062110.9104
   1644238.82047   1316339.25044  23530741.3754                   23530741.2504
 -33715382.98447 -26261638.91446  21048506.2814                   21048502.6684
 11  8 15  2  2  0.0000000  0  7G10G25G12G05G04G29G02
 -23447039.50447 -18239123.86345  22199144.2194                   22199143.1724
 -12902797.32448 -10024319.19946  21725685.8754                   21725687.2234
 -25928672.89148 -20169931.35546  20787292.0234                   20787289.9384
 -26236022.36748 -20406037.63747  20195774.1804                   20195772.0354
 -26804788.47346 -20855321.48843  24070805.8524                   24070804.9694
   1526262.64847   1224409.82444  23508291.2034                   23508290.8134
 -33718357.51647 -26263956.72746  21047940.0864                   21047937.0204
 11  8 15  2  2 30.0000000  0  7G10G25G12G05G04G29G02
 -23395886.43747 -18199264.33245  22208878.2974                   22208877.0274
 -12975216.75048 -10080749.90246  21711904.7274                   21711906.1174
 -25934251.95348 -20174278.67646  20786230.3674                   20786228.2074
 -26283886.14848 -20443334.06247  20186665.8834                   20186663.5634
 -26759130.10546 -20819743.51643  24079493.7194                   24079493.6484
   1408289.22747   1132482.52344  23485841.2274                   23485841.8524
 -33721186.44948 -26266161.09046  21047401.4384                   21047398.3524
 11  8 15  2  3  0.0000000  0  7G10G25G12G05G04G29G02
 -23344352.06647 -18159107.71545  22218685.2344                   22218684.4884
 -13047065.17248 -10136735.64846  21698232.5234                   21698233.7154
 -25939253.53548 -20178176.01246  20785278.7814                   20785276.7464
 -26331151.23448 -20480163.97747  20177671.7894                   20177669.8554
 -26713502.94946 -20784189.83643  24088176.7974                   24088175.8954
   1290318.20347   1040557.10244  23463392.8364                   23463392.3324
 -33723871.71948 -26268253.50846  21046891.1484                   21046887.6374
 11  8 15  2  3 30.0000000  0  7G10G25G12G05G04G29G02
 -23292440.30947 -18118656.98845  22228563.6414                   22228562.4344
 -13118342.37548 -10192276.31246  21684669.0554                   21684670.2234
 -25943679.72748 -20181624.99646  20784436.1884                   20784434.5044
 -26377818.58648 -20516528.11747  20168791.3204                   20168789.3164
 -26667908.46946 -20748661.62543  24096853.0474                   24096852.6684
   1172349.79747    948633.70344  23440943.8594                   23440943.3364
 -33726415.14848 -26270235.40246  21046407.0944                   21046403.5004
 11  8 15  2  4  0.0000000  0  7G10G25G12G05G04G29G02
 -23240150.91447 -18077912.02044  22238513.8754                   22238512.7544
 -13189044.10548 -10247368.53946  21671214.7344                   21671216.1804
 -25947528.77748 -20184624.25446  20783703.7734                   20783701.8204
 -26423885.56648 -20552424.44547  20160024.6884                   20160022.8244
 -26622343.90646 -20713156.74643  24105523.3134                   24105522.5044
   1054388.15647    856715.56344  23418496.5944                   23418495.9264
 -33728814.42648 -26272104.96146  21045950.5554                   21045946.6094
 11  8 15  2  4 30.0000000  0  7G10G25G12G05G04G29G02
 -23187486.58647 -18036874.89145  22248535.6954                   22248534.5944
 -13259168.99248 -10302011.28146  21657870.5164                   21657871.5944
 -25950802.03548 -20187174.84046  20783080.8834                   20783078.8954
 -26469351.99248 -20587852.80547  20151372.8524                   20151371.0904
 -26576809.47746 -20677675.36743  24114187.8204                   24114187.2544
    936434.75047    764803.83644  23396051.0084                   23396050.0634
 -33731070.39148 -26273862.84846  21045521.2584                   21045517.5984
 11  8 15  2  5  0.0000000  0  7G10G25G12G05G04G29G02
 -23134449.32847 -17995547.16845  22258628.3134                   22258626.8524
 -13328715.23448 -10356203.14546  21644636.5784                   21644637.2424
 -25953499.91848 -20189277.09446  20782567.8754                   20782565.2544
 -26514217.12548 -20622812.62147  20142835.4774                   20142833.1454
 -26531304.94947 -20642217.25443  24122847.0164                   24122846.4384
    818491.50847    672900.02744  23373607.0704                   23373606.2464
 -33733183.04748 -26275509.06646  21045119.4144                   21045115.9304
 11  8 15  2  5 30.0000000  0  7G10G25G12G05G04G29G02
 -23081050.05547 -17953937.35244  22268789.6254                   22268788.4344
 -13397689.51648 -10409949.31646  21631510.8914                   21631512.0634
 -25955631.55148 -20190938.11346  20782162.1954                   20782159.9844
 -26558489.09048 -20657310.23047  20134410.5164                   20134408.8324
 -26485838.53947 -20606788.93443  24131500.1644                   24131499.2624
    700551.45347    580998.72344  23351163.4144                   23351162.1844
 -33735160.33248 -26277049.80546  21044742.4384                   21044739.4804
 11  8 15  2  6  0.0000000  0  7G10G25G12G05G04G29G02
 -21451870.25047 -16684446.59844  22578812.8134                   22578811.2584
 -11890665.34448  -9235644.75046  21918287.9304                   21918289.2034
 -24381774.73048 -18964556.17646  21081656.6254                   21081654.9844
 -25026743.41848 -19463742.14847  20425892.2114                   20425890.3134
 -24864989.09847 -19343789.35943  24439936.7584                   24439936.3594
   2158043.03547   1716706.47344  23628515.3204                   23628513.9184
 -32161579.78548 -25050883.13746  21344185.1334                   21344181.8914
 11  8 15  2  6 30.0000000  0  8G10G25G12G26G05G04G29G02
 -21397736.67647 -16642264.60244  22589113.8834                   22589112.6094
 -11958473.64848  -9288482.37546  21905384.4384                   21905385.7304
 -24382758.48448 -18965322.73846  21081470.0554                   21081467.6054
  10841771.97756   8472664.86353  24951264.0314                   24951265.4304
 -25069810.70348 -19497301.03947  20417696.5864                   20417694.5044
 -24819581.15646 -19308406.54743  24448577.4924                   24448578.1174
   2040132.23847   1624827.93844  23606077.4144                   23606076.4734
 -32163269.97348 -25052200.16046  21343863.5784                   21343859.8794
 11  8 15  2  7  0.0000000  0  8G10G25G12G26G05G04G29G02
 -21343249.84047 -16599807.33644  22599482.5474                   22599480.7304
 -12025706.91048  -9340871.91846  21892590.6564                   21892591.6764
 -24383180.58248 -18965651.64846  21081389.0944                   21081387.5314
  10713951.42246   8373064.54343  24926940.5864                   24926942.9694
 -25112285.76248 -19530398.45747  20409614.0004                   20409612.1294
 -24774212.71946 -19273054.53143  24457210.9694                   24457210.9304
   1922228.44947   1532954.88344  23583640.8444                   23583640.1254
 -32164827.17248 -25053413.55546  21343567.7504                   21343563.7234
 11  8 15  2  7 30.0000000  0  8G10G25G12G26G05G04G29G02
 -21288419.90647 -16557082.71944  22609915.7344                   22609914.8554
 -12092371.41048  -9392818.26246  21879904.7664                   21879905.6414
 -24383049.41048 -18965549.43746  21081414.3364                   21081412.3754
  10586011.74645   8273371.33643  24902594.7114                   24902596.5514
 -25154175.72348 -19563039.96547  20401642.5554                   20401640.5984
 -24728891.36746 -19237739.20743  24465834.7664                   24465835.3404
   1804325.88347   1441082.79744  23561204.5394                   23561204.9184
 -32166259.40248 -25054529.57046  21343294.8364                   21343291.0274
 11  8 15  2  8  0.0000000  0  8G10G25G12G26G05G04G29G02
 -21233257.14547 -16514098.75844  22620412.6254                   22620411.8094
 -12158473.35548  -9444326.25046  21867325.9924                   21867327.0274
 -24382373.75848 -18965022.96146  21081542.9924                   21081540.9384
  10457948.73845   8173582.08243  24878225.3594                   24878226.3834
 -25195488.41848 -19595231.64547  20393781.0004                   20393779.1564
 -24683624.65646 -19202466.48043  24474449.7664                   24474449.4304
   1686418.00047   1349206.55944  23538767.8364                   23538767.1334
 -32167574.55548 -25055554.36346  21343044.5704                   21343041.0394
 11  8 15  2  8 30.0000000  0  8G10G25G12G26G05G04G29G02
 -21177754.22347 -16470849.73844  22630974.8754                   22630973.6644
 -12224001.64848  -9495387.25046  21854856.1094                   21854857.1914
 -24381144.76648 -18964065.30546  21081776.8834                   21081774.7424
  10329775.42245   8073706.85543  24853835.1024                   24853835.2234
 -25236213.89148 -19626965.75447  20386031.0784                   20386028.8134
 -24638402.74246 -19167228.66843  24483055.4694                   24483054.2814
   1568516.40647   1257335.21944  23516331.8134                   23516331.4454
 -32168762.91448 -25056480.35546  21342818.5864                   21342814.6094
 11  8 15  2  9  0.0000000  0  8G10G25G12G26G05G04G29G02
 -21121907.75847 -16427333.01245  22641602.2894                   22641600.9184
 -12288948.87948  -9545995.46546  21842497.0864                   21842498.2194
 -24379357.50847 -18962672.64146  21082116.8834                   21082114.8554
  10201500.91045   7973752.82042  24829424.1884                   24829425.1644
 -25276346.14848 -19658237.61347  20378394.1094                   20378391.9384
 -24593219.58246 -19132021.06243  24491652.9144                   24491652.7854
   1450628.85947   1165474.83245  23493898.9924                   23493898.1024
 -32169819.02047 -25057303.29346  21342617.2034                   21342614.2154
 11  8 15  2  9 30.0000000  0  8G10G25G12G26G05G04G29G02
 -21065719.92247 -16383550.29744  22652294.4924                   22652293.7384
 -12353313.58648  -9596149.76246  21830249.1564                   21830249.7464
 -24377013.18048 -18960845.89846  21082562.8284                   21082561.2194
  10073128.60246   7873722.57842  24804996.7034                   24804996.5164
 -25315884.94548 -19689047.03547  20370870.4144                   20370868.0394
 -24548074.91446 -19096843.40643  24500243.7974                   24500243.4104
   1332757.18447   1073626.79745  23471468.6804                   23471467.9574
 -32170742.72748 -25058023.05546  21342442.1884                   21342438.0474
 11  8 15  2 10  0.0000000  0  8G10G25G12G26G05G04G29G02
 -21009195.89147 -16339505.59844  22663051.0084                   22663049.9614
 -12417097.01248  -9645851.11746  21818111.4774                   21818112.1414
 -24374114.77348 -18958587.39846  21083114.3674                   21083112.3754
   9944659.27146   7773616.70643  24780550.0004                   24780548.5664
 -25354832.94548 -19719396.10247  20363458.5864                   20363456.6254
 -24502971.21946 -19061697.75043  24508826.7664                   24508825.8674
   1214900.65247    981790.57445  23449040.8204                   23449040.6134
 -32171536.94948 -25058641.93446  21342290.6094                   21342286.9494
 11  8 15  2 10 30.0000000  0  8G10G25G12G26G05G04G29G02
 -20952336.57847 -16295199.64844  22673870.7504                   22673869.6214
 -12480296.39548  -9695097.37146  21806085.0084                   21806085.8874
 -24370662.59448 -18955897.39546  21083771.4064                   21083769.7544
   9816097.94146   7673439.16843  24756084.2114                   24756084.4884
 -25393188.78548 -19749283.74647  20356159.8204                   20356157.8244
 -24457907.04346 -19026582.82043  24517402.1254                   24517401.4774
   1097062.34847    889968.56644  23426616.8984                   23426616.2894
 -32172200.20348 -25059158.75846  21342164.3914                   21342160.4064
 11  8 15  2 11  0.0000000  0  8G10G25G12G26G05G04G29G02
 -20895147.14847 -16250636.47345  22684753.2424                   22684752.3244
 -12542912.74248  -9743889.30946  21794169.6954                   21794170.0314
 -24366659.78948 -18952778.32446  21084533.2424                   21084531.1764
   9687445.21946   7573190.40643  24731603.1174                   24731603.3714
 -25430954.47748 -19778711.53547  20348973.4384                   20348971.2304
 -24412884.20746 -18991500.14543  24525969.7194                   24525969.4844
    979241.52047    798160.16844  23404196.8134                   23404196.0664
 -32172735.09048 -25059575.54746  21342062.5004                   21342058.5474
 11  8 15  2 11 30.0000000  0  8G10G25G12G26G05G04G29G02
 -20837631.25847 -16205818.91044  22695698.6484                   22695697.4774
 -12604946.40248  -9792227.20746  21782364.6564                   21782365.4844
 -24362109.53548 -18949232.68046  21085398.7504                   21085397.0234
   9558703.19946   7472872.03943  24707104.0004                   24707104.3834
 -25468131.73448 -19807680.80547  20341898.5314                   20341896.5434
 -24367904.59446 -18956451.14142  24534529.1804                   24534528.5554
    861438.46946    706365.64144  23381779.0634                   23381778.5984
 -32173143.36348 -25059893.68046  21341985.0084                   21341981.2034
 11  8 15  2 12  0.0000000  0  8G10G25G12G26G05G04G29G02
 -20779786.42647 -16160745.03945  22706705.8754                   22706704.7194
 -12666390.87148  -9840105.99646  21770672.0704                   21770673.1294
 -24357007.77748 -18945257.29346  21086369.8984                   21086367.9104
   9429880.48446   7372490.79343  24682589.1724                   24682590.1804
 -25504715.53148 -19836187.64147  20334937.1884                   20334934.6334
 -24322962.74246 -18921431.54342  24543081.3594                   24543080.5314
    743660.59847    614590.73444  23359366.6024                   23359365.9614
 -32173420.02048 -25060109.25846  21341932.2504                   21341928.4574
 11  8 15  2 12 30.0000000  0  8G10G25G12G26G05G04G29G02
 -20721621.87947 -16115422.01645  22717774.1954                   22717773.0944
 -12727251.85248  -9887530.10946  21759090.8204                   21759091.6684
 -24351362.23848 -18940858.17646  21087444.0314                   21087442.4454
   9300973.38746   7272043.73843  24658060.6484                   24658060.1884
 -25540712.62548 -19864237.29347  20328086.9694                   20328084.7304
 -24278065.29746 -18886446.54742  24551625.0004                   24551624.9734
    625902.28146    522831.05544  23336957.5554                   23336958.0634
 -32173571.87548 -25060227.57046  21341903.7974                   21341899.4264
 11  8 15  2 13  0.0000000  0  8G10G25G12G26G05G04G29G02
 -20663141.30547 -16069852.75444  22728902.7814                   22728901.4494
 -12787529.43048  -9934499.63346  21747620.5234                   21747621.4384
 -24345175.53948 -18936037.37946  21088621.3204                   21088619.6334
   9171984.03546   7171532.55943  24633513.5234                   24633514.1644
 -25576124.62948 -19891831.04347  20321347.9844                   20321345.9924
 -24233213.50046 -18851497.13743  24560159.9694                   24560159.9924
    508163.99246    431086.98444  23314552.6484                   23314552.5864
 -32173600.64548 -25060249.98846  21341897.4844                   21341894.4694
 11  8 15  2 13 30.0000000  0  8G10G25G12G26G05G04G29G02
 -20604338.15647 -16024032.14844  22740092.6254                   22740091.7034
 -12847213.42648  -9981006.61746  21736262.4614                   21736263.5944
 -24338439.98848 -18930788.89546  21089903.3914                   21089901.5664
   9042924.85946   7070966.98843  24608954.7114                   24608955.0704
 -25610942.60948 -19918961.91047  20314722.6334                   20314720.3794
 -24188398.06247 -18816576.06243  24568688.3284                   24568689.0554
    390456.67246    339367.04744  23292154.0084                   23292153.8324
 -32173497.32448 -25060169.47746  21341917.8204                   21341913.8054
 11  8 15  2 14  0.0000000  0  8G10G25G12G26G05G04G29G02
 -20545222.37147 -15977967.91844  22751342.1414                   22751341.0434
 -12906310.05148 -10027055.91046  21725017.0394                   21725017.8914
 -24331163.96948 -18925119.27346  21091287.8364                   21091286.0984
   8913791.97747   6970343.99643  24584381.4064                   24584382.0004
 -25645174.06248 -19945635.75447  20308208.8444                   20308206.6724
 -24143626.11347 -18781688.85542  24577207.9304                   24577208.3794
    272774.91447    247667.03944  23269759.4534                   23269759.4694
 -32173269.38348 -25059991.85546  21341960.9694                   21341957.6214
 11  8 15  2 14 30.0000000  0  8G10G25G12G26G05G04G29G02
 -20485803.00046 -15931667.12944  22762648.7504                   22762647.7234
 -12964824.68748 -10072651.71946  21713881.8834                   21713882.7504
 -24323355.71948 -18919034.93446  21092773.7894                   21092771.9184
   8784582.45347   6869661.31343  24559793.6564                   24559793.3834
 -25678825.69148 -19971857.77747  20301804.8054                   20301802.6914
 -24098904.38747 -18746840.80942  24585718.8524                   24585717.9924
    155113.78547    155983.09844  23247369.5314                   23247370.1214
 -32172923.50848 -25059722.34446  21342026.8054                   21342022.9614
 11  8 15  2 15  0.0000000  0  8G10G25G12G26G05G04G29G02
 -20426074.80547 -15885125.69544  22774015.3524                   22774013.9064
 -13022748.58248 -10117787.20346  21702859.3674                   21702860.0474
 -24315008.74248 -18912530.79746  21094362.0784                   21094360.3014
   8655307.21147   6768927.50043  24535193.0234                   24535193.1374
 -25711889.94148 -19997622.10947  20295512.6484                   20295510.6604
 -24054224.73047 -18712025.52742  24594221.2034                   24594219.8794
     37483.10947     64322.88745  23224985.3364                   23224985.4494
 -32172452.21548 -25059355.10546  21342116.5784                   21342113.2464
 11  8 15  2 15 30.0000000  0  8G10G25G12G26G05G04G29G02
 -20366039.90246 -15838345.27044  22785439.5474                   22785438.0594
 -13080080.01648 -10162461.02346  21691949.6334                   21691950.4024
 -24306123.64548 -18905607.34846  21096053.0784                   21096051.2274
   8525970.32447   6668145.62143  24510581.2664                   24510580.6764
 -25744366.42648 -20022928.43447  20289332.7974                   20289330.5514
 -24009586.30547 -18677242.33242  24602715.0554                   24602713.0514
    -80114.84847    -27311.82845  23202607.4454                   23202607.0084
 -32171854.89147 -25058889.65246  21342230.3204                   21342226.4344
 11  8 15  2 16  0.0000000  0  8G10G25G12G26G05G04G29G02
 -20305708.78947 -15791334.02344  22796919.6174                   22796918.7544
 -13136826.14148 -10206678.76646  21681151.1174                   21681151.9804
 -24296709.90648 -18898271.97346  21097844.2734                   21097842.7464
   8396567.14847   6567312.06643  24485956.1724                   24485955.6254
 -25776263.66448 -20047783.41047  20283262.8444                   20283261.1334
 -23964996.98047 -18642497.42643  24611200.5944                   24611199.0514
   -197686.63347   -118926.15245  23180234.2194                   23180234.1174
 -32171139.37147 -25058332.10246  21342366.1884                   21342362.6684
 11  8 15  2 16 30.0000000  0  8G10G25G12G26G05G04G29G02
 -20245076.75047 -15744088.28544  22808457.8364                   22808456.1524
 -13192978.74648 -10250434.01246  21670465.9384                   21670466.6484
 -24286761.82848 -18890520.22746  21099736.9694                   21099735.3164
   8267108.37547   6466435.21143  24461321.0164                   24461320.9534
 -25807574.59048 -20072181.51647  20277304.8914                   20277302.2854
 -23920449.54747 -18607785.17243  24619677.5314                   24619675.9774
   -315222.93747   -210512.83245  23157867.8054                   23157867.4774
 -32170299.15647 -25057677.39846  21342526.0864                   21342522.4924
 11  8 15  2 17  0.0000000  0  8G10G25G12G26G05G04G29G02
 -20184147.21947 -15696610.73444  22820052.2504                   22820051.2384
 -13248537.91048 -10293726.85546  21659893.3364                   21659893.7854
 -24276282.11348 -18882354.21946  21101731.5864                   21101729.9964
   8137596.13347   6365516.66843  24436675.9224                   24436675.3754
 -25838300.73848 -20096123.94947  20271457.7034                   20271455.4384
 -23875944.78147 -18573106.19143  24628146.4304                   24628145.9184
   -432722.76247   -302071.08645  23135508.2664                   23135508.4264
 -32169335.32047 -25056926.36346  21342709.6884                   21342706.1024
 11  8 15  2 17 30.0000000  0  8G10G25G12G26G05G04G29G02
 -20122919.68047 -15648900.97344  22831703.0234                   22831702.4694
 -13303499.71948 -10336554.21546  21649434.2504                   21649435.0594
 -24265269.23448 -18873772.75446  21103827.3674                   21103825.5664
   8008037.04346   6264561.60943  24412022.2344                   24412021.0904
 -25868439.45748 -20119608.66047  20265722.7584                   20265720.3284
 -23831479.56246 -18538458.02343  24636608.0784                   24636607.3954
   -550181.43047   -393597.27045  23113156.6254                   23113156.0044
 -32168244.69548 -25056076.52746  21342916.9614                   21342913.3014
 11  8 15  2 18  0.0000000  0  8G10G25G12G26G05G04G29G02
 -20061405.33347 -15600967.72544  22843409.1884                   22843408.2464
 -13357872.00448 -10378922.20346  21639087.5314                   21639088.1914
 -24253733.14148 -18864783.59846  21106022.5784                   21106020.6954
   7878425.89847   6163566.00843  24387356.5704                   24387357.0004
 -25897999.83648 -20142642.69547  20260097.4144                   20260094.8324
 -23787062.47347 -18503847.41043  24645060.6954                   24645060.8094
   -667606.08247   -485096.93744  23090811.0864                   23090810.4614
 -32167036.37148 -25055134.98446  21343147.0394                   21343143.7034
 11  8 15  2 18 30.0000000  0  8G10G25G12G26G05G04G29G02
 -19999605.62547 -15552812.10944  22855169.2814                   22855168.0354
 -13411652.58648 -10420829.12546  21628853.7424                   21628854.3984
 -24241674.09448 -18855386.93746  21108317.2664                   21108315.0354
   7748767.37947   6062533.50043  24362683.5394                   24362683.8674
 -25926980.88348 -20165225.31647  20254582.1804                   20254580.0864
 -23742691.92246 -18469272.98443  24653504.3134                   24653504.3634
   -784993.23047   -576567.36344  23068472.9924                   23068472.4884
 -32165709.25448 -25054100.87146  21343399.5554                   21343395.7774
 11  8 15  2 19  0.0000000  0  7G10G25G12G26G05G29G02
 -19937520.98847 -15504434.47344  22866983.7734                   22866982.4184
 -13464838.85248 -10462272.95346  21618732.4384                   21618733.1134
 -24229091.82848 -18845582.57446  21110711.5554                   21110709.8524
   7619066.68046   5961468.07443  24338002.0864                   24338002.2584
 -25955381.40248 -20187355.57447  20249177.9144                   20249175.8794
   -902339.48847   -668005.92244  23046142.7034                   23046142.1884
 -32164261.50448 -25052972.76246  21343674.9694                   21343671.5004
 11  8 15  2 19 30.0000000  0  7G10G25G12G26G05G29G02
 -19875156.89847 -15455839.10544  22878850.7974                   22878849.8984
 -13517432.67248 -10503255.12546  21608723.9694                   21608724.6254
 -24215990.74248 -18835373.94546  21113204.7894                   21113203.0354
   7489324.88346   5860370.63743  24313313.0164                   24313312.8484
 -25983204.82848 -20209036.15647  20243883.4774                   20243881.3204
  -1019645.68047   -759413.28145  23023820.1484                   23023819.9304
 -32162695.77348 -25051752.71546  21343973.1174                   21343969.6994
 11  8 15  2 20  0.0000000  0  7G10G25G12G26G05G29G02
 -19812516.97347 -15407028.77344  22890771.4224                   22890770.1604
 -13569434.27748 -10543775.83246  21598828.6484                   21598829.2034
 -24202373.38748 -18824763.01246  21115796.0084                   21115793.9844
   7359544.26646   5759243.02343  24288616.7424                   24288616.8164
 -26010452.10948 -20230267.78547  20238698.2034                   20238696.2734
  -1136910.72347   -850788.56644  23001505.5704                   23001504.6604
 -32161013.30148 -25050441.70746  21344293.4064                   21344289.2154
 11  8 15  2 20 30.0000000  0  7G10G25G12G26G05G29G02
 -19749605.32047 -15358006.73044  22902742.5784                   22902741.7114
 -13620844.85248 -10583836.00446  21589045.3914                   21589045.7114
 -24188243.20348 -18813752.47746  21118484.8444                   21118482.7624
   7229726.50846   5658086.46143  24263913.6254                   24263912.4924
 -26037125.98448 -20251052.60947  20233622.7894                   20233620.2114
  -1254134.90247   -942132.00045  22979198.0554                   22979197.5944
 -32159216.11347 -25049041.30546  21344635.1094                   21344631.7194
 11  8 15  2 21  0.0000000  0  7G10G25G12G26G05G29G02
 -19686404.42647 -15308759.29744  22914770.0084                   22914768.8054
 -13671643.08648 -10623419.01646  21579378.6484                   21579379.3164
 -24173581.07848 -18802327.44146  21121275.0394                   21121273.2464
   7099895.53946   5556919.60243  24239207.3594                   24239206.7704
 -26063206.41848 -20271375.00447  20228659.4614                   20228657.4494
  -1371295.41447  -1033425.80945  22956903.5554                   22956902.5234
 -32157283.94548 -25047535.71546  21345002.9454                   21344999.4144
 11  8 15  2 21 30.0000000  0  7G10G25G12G26G05G29G02
 -19622928.24247 -15259297.36744  22926848.6724                   22926847.8874
 -13721839.91848 -10662533.41846  21569826.9454                   21569827.5434
 -24158400.45748 -18790498.38346  21124163.8284                   21124161.8404
   6970043.00446   5455735.96543  24214496.7894                   24214495.9884
 -26088706.00048 -20291244.78547  20223806.9534                   20223804.8444
  -1488402.34847  -1124677.88745  22934617.9774                   22934617.4104
 -32155228.13748 -25045933.78946  21345394.1174                   21345390.4304
 11  8 15  2 22  0.0000000  0  7G10G25G12G26G05G29G02
 -19559184.98046 -15209627.31244  22938979.3284                   22938977.4774
 -13771440.28948 -10701183.04346  21560388.3674                   21560388.5204
 -24142708.89848 -18778271.18746  21127149.8284                   21127148.0164
   6840166.99246   5354533.96143  24189782.4224                   24189781.9184
 -26113630.25048 -20310666.26647  20219063.9844                   20219061.7074
  -1605459.38347  -1215891.07445  22912343.1484                   22912342.3094
 -32153054.53948 -25044240.07046  21345807.5234                   21345804.1294
 11  8 15  2 22 30.0000000  0  7G10G25G12G26G05G29G02
 -19495164.19946 -15159741.00444  22951161.3674                   22951160.8094
 -13820430.83248 -10739357.48046  21551065.6644                   21551066.2034
 -24126495.16448 -18765637.10246  21130235.3284                   21130233.0434
   6710283.80146   5253326.37143  24165066.1174                   24165065.9024
 -26137967.05148 -20329629.98847  20214433.2584                   20214430.7854
  -1722451.80947  -1307053.93045  22890080.3054                   22890080.0594
 -32150750.41848 -25042444.64146  21346246.2894                   21346242.4884
 11  8 15  2 23  0.0000000  0  7G10G25G12G26G05G29G02
 -19430876.38346 -15109646.63744  22963394.6094                   22963394.2974
 -13868819.04348 -10777062.57446  21541857.7504                   21541858.1414
 -24109769.14848 -18752603.84046  21133418.0164                   21133416.0314
   6580388.87546   5152109.64143  24140348.4224                   24140347.8444
 -26161725.52048 -20348143.05947  20209911.9064                   20209909.5784
  -1839385.70747  -1398171.14545  22867827.3204                   22867828.0784
 -32148324.21548 -25040554.07846  21346707.7504                   21346704.1054
 11  8 15  2 23 30.0000000  0  7G10G25G12G26G05G29G02
 -19366338.71547 -15059357.56644  22975676.3134                   22975675.2734
 -13916618.73448 -10814309.07846  21532761.5864                   21532762.4304
 -24092547.04748 -18739184.02346  21136695.4064                   21136693.3134
   6450471.34446   5050875.26243  24115625.7114                   24115625.7504
 -26184920.81248 -20366217.30147  20205497.8204                   20205495.9534
  -1956273.67247  -1489252.58245  22845584.9144                   22845584.1954
 -32145790.23048 -25038579.54346  21347190.1564                   21347186.4384
 11  8 15  2 24  0.0000000  0  7G10G25G12G26G05G29G02
 -19301548.43046 -15008871.66844  22988005.6334                   22988004.3164
 -13963823.96148 -10851092.35246  21523778.6724                   21523779.3794
 -24074825.03948 -18725374.67646  21140067.8134                   21140065.5554
   6320540.15246   4949630.24644  24090900.6804                   24090900.3054
 -26207547.91848 -20383848.79347  20201191.8524                   20201190.0434
  -2073108.48047  -1580292.61745  22823352.0554                   22823351.6764
 -32143142.71948 -25036516.53146  21347693.6954                   21347690.0944
 11  8 15  2 24 30.0000000  0  7G10G25G12G26G05G29G02
 -19236504.58646 -14958188.16844  23000382.9224                   23000381.9264
 -14010430.95348 -10887409.47746  21514909.6334                   21514910.3834
 -24056601.59448 -18711174.57446  21143535.2814                   21143533.4844
   6190602.18847   4848379.95743  24066173.8524                   24066173.8134
 -26229604.63748 -20401035.82847  20196994.6884                   20196992.4694
  -2189884.62947  -1671286.93445  22801130.2344                   22801129.6994
 -32140379.03948 -25034363.00046  21348219.5634                   21348216.2854
 11  8 15  2 25  0.0000000  0  7G10G25G12G26G05G29G02
 -19171214.24247 -14907312.61744  23012807.6334                   23012806.3554
 -14056443.78948 -10923263.61746  21506153.8674                   21506154.6484
 -24037883.36348 -18696588.94146  21147097.2664                   21147095.4104
   6060656.12147   4747123.34843  24041446.6334                   24041445.5984
 -26251096.05548 -20417782.37147  20192904.9844                   20192903.0594
  -2306604.94547  -1762237.73845  22778918.7114                   22778918.4304
 -32137503.78948 -25032122.52046  21348766.9224                   21348763.2544
 11  8 15  2 25 30.0000000  0  7G10G25G12G26G05G29G02
 -19105678.44147 -14856245.78544  23025277.9774                   23025277.3914
 -14101860.46548 -10958653.21946  21497511.0864                   21497512.0084
 -24018670.59448 -18681617.95346  21150753.6254                   21150751.7664
   5930707.50047   4645864.74643  24016717.6414                   24016717.1884
 -26272021.56248 -20434087.94147  20188923.3914                   20188920.8954
  -2423265.79347  -1853142.23845  22756719.2114                   22756718.5704
 -32134515.16448 -25029793.70746  21349335.5944                   21349331.7624
 11  8 15  2 26  0.0000000  0  7G10G25G12G26G05G29G02
 -19039899.87547 -14804989.76644  23037795.6024                   23037794.3324
 -14146680.65648 -10993578.02046  21488982.0704                   21488983.0514
 -23998965.06648 -18666262.98846  21154503.2424                   21154501.2734
   5800759.42247   4544606.60243  23991989.3054                   23991988.8134
 -26292382.30148 -20449953.43747  20185048.6254                   20185046.8484
  -2539865.66847  -1943999.20345  22734530.5234                   22734530.3524
 -32131413.62548 -25027376.90246  21349925.3524                   21349921.9264
 11  8 15  2 26 30.0000000  0  7G10G25G12G26G05G29G02
 -18973883.25047 -14753548.27344  23050358.2974                   23050356.5124
 -14190905.99648 -11028039.30946  21480566.2664                   21480567.0234
 -23978770.92248 -18650527.28546  21158346.0474                   21158344.1484
   5670813.65647   4443350.23443  23967261.1334                   23967261.2154
 -26312180.52348 -20465380.61347  20181281.0944                   20181278.6094
  -2656404.36347  -2034808.50845  22712354.3754                   22712353.3484
 -32128200.96548 -25024873.52046  21350536.8984                   21350533.2074
 11  8 15  2 27  0.0000000  0  7G10G25G12G26G05G29G02
 -18907625.73047 -14701919.07844  23062966.4534                   23062965.5234
 -14234530.85248 -11062032.68746  21472264.9844                   21472265.5514
 -23958084.34448 -18634407.87146  21162282.7034                   21162280.8954
   5540878.90646   4342102.43443  23942535.5004                   23942535.2234
 -26331412.19548 -20480366.30547  20177621.1884                   20177619.0204
  -2772874.90247  -2125564.71945  22690190.2734                   22690189.5984
 -32124872.00448 -25022279.52046  21351170.1174                   21351167.1134
 11  8 15  2 27 30.0000000  0  7G10G25G12G26G05G29G02
 -18841142.93047 -14650114.31643  23075617.7584                   23075616.5314
 -14277568.02748 -11095568.12546  21464074.9144                   21464075.7344
 -23936920.62948 -18617916.66046  21166309.9224                   21166307.9884
   5410945.66446   4240855.80143  23917810.2584                   23917809.3054
 -26350091.21948 -20494921.37147  20174067.0004                   20174064.7304
  -2889288.40247  -2216276.46545  22668037.2734                   22668036.9574
 -32121440.18448 -25019605.35946  21351823.3834                   21351819.6684
 11  8 15  2 28  0.0000000  0  7G10G25G12G26G05G29G02
 -18774424.28547 -14598125.80544  23088314.3204                   23088312.7814
 -14320004.06248 -11128635.15646  21455999.4774                   21456000.3054
 -23915268.91448 -18601045.19146  21170429.9694                   21170428.1644
   5281030.51646   4139623.26243  23893087.6024                   23893087.7234
 -26368205.26248 -20509036.18747  20170620.0634                   20170617.6174
  -3005629.48847  -2306931.79745  22645898.8834                   22645898.0784
 -32117892.37948 -25016840.82446  21352498.8204                   21352495.3984
 11  8 15  2 28 30.0000000  0  7G10G25G12G26G05G29G02
 -17132053.77747 -13318356.60244  23400846.9924                   23400845.4064
 -12786416.55548  -9933631.88346  21747832.0164                   21747832.2384
 -22317710.82448 -17356194.73446  21474435.2274                   21474433.2624
   6726562.32446   5266011.74643  24168162.8674                   24168163.1454
 -24810334.35548 -19295110.79347  20467072.5864                   20467070.3284
  -1546471.67247  -1169925.64145  22923567.7034                   22923566.0204
 -30538807.77048 -23786385.28146  21652988.5944                   21652984.3834
 11  8 15  2 29  0.0000000  0  7G10G25G12G26G05G29G02
 -17064877.57047 -13266011.54743  23413629.8054                   23413628.9924
 -12827656.03148  -9965766.53946  21739984.1954                   21739984.7344
 -22295094.90648 -17338571.94946  21478739.3134                   21478737.2504
   6596688.17646   5164811.16843  24143448.8054                   24143448.4804
 -24827328.74648 -19308353.15247  20463838.8524                   20463836.6994
  -1662668.69947  -1260468.70345  22901456.1334                   22901455.0864
 -30535034.36348 -23783444.96546  21653706.4844                   21653702.8164
 11  8 15  2 29 30.0000000  0  7G10G25G12G26G05G29G02
 -16997478.33647 -13213492.68444  23426455.7504                   23426454.5274
 -12868299.06248  -9997436.41846  21732250.0704                   21732250.7154
 -22272001.88348 -17320577.38346  21483133.5004                   21483131.5664
   6466837.63746   5063628.98443  24118739.3524                   24118739.0394
 -24843766.35948 -19321161.66847  20460710.5864                   20460708.4414
  -1778793.03547  -1350955.13745  22879358.6024                   22879357.3984
 -30531150.42648 -23780418.51246  21654445.4384                   21654441.3444
 11  8 15  2 30  0.0000000  0  7G10G25G12G26G05G29G02
 -16929867.52747 -13160808.97744  23439321.7034                   23439320.6844
 -12908354.27348 -10028648.26246  21724627.5864                   21724628.0704
 -22248442.87548 -17302219.71146  21487616.2584                   21487614.6374
   6337005.46546   4962461.14543  24094033.2504                   24094032.3954
 -24859657.09048 -19333544.03547  20457687.1954                   20457684.4384
  -1894851.23447  -1441390.02745  22857272.6024                   22857271.9454
 -30527164.67648 -23777312.72346  21655204.0474                   21655200.6214
 11  8 15  2 30 30.0000000  0  7G10G25G12G26G05G29G02
 -16862044.55147 -13107959.93044  23452228.1564                   23452227.3914
 -12947818.49648 -10059399.58646  21717118.1724                   21717118.6024
 -22224416.65248 -17283497.97746  21492188.6724                   21492187.2234
   6207198.39546   4861312.88743  24069331.6254                   24069331.1454
 -24874999.18448 -19345498.89147  20454767.0314                   20454764.8324
  -2010838.40247  -1531769.57845  22835201.1884                   22835200.4144
 -30523074.03148 -23774125.20346  21655982.5554                   21655978.9694
 11  8 15  2 31  0.0000000  0  7G10G25G12G26G05G29G02
 -16793997.87547 -13054936.58243  23465176.5944                   23465175.7974
 -12986677.33648 -10089679.18746  21709723.3754                   21709724.0434
 -22199911.38348 -17264402.96946  21496852.0634                   21496849.9144
   6077434.21546   4760198.04343  24044638.1024                   24044637.2624
 -24889779.27048 -19357015.81647  20451954.7584                   20451952.5784
  -2126738.44547  -1622081.21545  22813146.1724                   22813145.2424
 -30518864.31648 -23770844.89846  21656783.5394                   21656779.6024
 11  8 15  2 31 30.0000000  0  7G10G25G12G26G05G29G02
 -16725753.36747 -13001759.07044  23478163.3674                   23478162.0274
 -13024953.91448 -10119505.07846  21702439.3364                   21702440.1484
 -22174952.24648 -17244954.28546  21501601.3134                   21501599.6294
   5947693.31646   4659101.32843  24019949.9614                   24019948.3164
 -24904021.73448 -19368113.82447  20449244.5784                   20449242.3874
  -2242572.43447  -1712341.38345  22791103.4454                   22791102.9774
 -30514558.93048 -23767490.04746  21657602.9534                   21657599.3404
 11  8 15  2 32  0.0000000  0  7G10G25G12G26G05G29G02
 -16657307.94947 -12948424.99244  23491188.0634                   23491187.4064
 -13062642.84448 -10148873.05546  21695267.8594                   21695268.2734
 -22149535.82448 -17225149.28546  21506438.0234                   21506436.0084
   5817984.69546   4558029.78143  23995265.9774                   23995265.6374
 -24917722.28148 -19378789.56647  20446637.3524                   20446635.3834
  -2358333.03947  -1802544.38345  22769075.1174                   22769073.9224
 -30510152.24648 -23764056.26246  21658441.7034                   21658438.0044
 11  8 15  2 32 30.0000000  0  7G10G25G12G26G05G29G02
 -16588657.33247 -12894931.03144  23504251.4384                   23504251.1024
 -13099737.19148 -10177777.72346  21688208.6484                   21688209.5824
 -22123657.25448 -17204984.16046  21511362.5004                   21511360.3594
   5688318.97346   4456991.63743  23970592.0634                   23970591.0744
 -24930875.45748 -19389038.77347  20444134.2814                   20444132.0514
  -2474011.11747  -1892683.04345  22747061.7504                   22747061.2854
 -30505637.70748 -23760538.42646  21659300.6254                   21659296.5234
 11  8 15  2 33  0.0000000  0  7G10G25G12G26G05G29G02
 -16519819.68747 -12841291.32044  23517351.0314                   23517349.8134
 -13136252.68448 -10206231.33646  21681260.0394                   21681260.7074
 -22097334.99648 -17184473.31646  21516371.6094                   21516369.7774
   5558684.09846   4355977.48443  23945923.0474                   23945921.9534
 -24943497.97348 -19398874.48447  20441732.5474                   20441730.2274
  -2589620.46547  -1982768.17645  22725062.3524                   22725061.6994
 -30501030.96948 -23756948.75846  21660177.1254                   21660173.2544
 11  8 15  2 33 30.0000000  0  7G10G25G12G26G05G29G02
 -16450780.30947 -12787494.41043  23530489.0394                   23530488.2424
 -13172172.17248 -10234220.53146  21674424.6954                   21674425.3874
 -22070553.58648 -17163604.67646  21521467.6094                   21521466.0864
   5429100.52346   4255003.34844  23921263.9304                   23921263.3134
 -24955573.69548 -19408284.12147  20439434.5474                   20439432.6914
  -2705142.12947  -2072784.97745  22703078.9924                   22703078.5744
 -30496314.66048 -23753273.70746  21661074.5704                   21661070.5704
 11  8 15  2 34  0.0000000  0  7G10G25G12G26G05G29G02
 -16381550.88747 -12733549.42244  23543663.1484                   23543662.2664
 -13207504.53948 -10261752.22746  21667701.1094                   21667701.6804
 -22043324.03548 -17142386.84846  21526649.3754                   21526647.2544
   5299563.48047   4154065.48044  23896613.9384                   23896613.0664
 -24967112.82048 -19417275.62947  20437238.4694                   20437236.3754
  -2820582.80147  -2162738.65645  22681111.4844                   22681111.0944
 -30491497.79748 -23749520.30946  21661991.5704                   21661987.3014
 11  8 15  2 34 30.0000000  0  7G10G25G12G26G05G29G02
 -16312132.73847 -12679457.35944  23556872.7344                   23556871.8594
 -13242248.88348 -10288825.71546  21661089.5864                   21661090.2934
 -22015647.51248 -17120820.72746  21531916.4224                   21531913.6604
   5170077.46946   4053167.37544  23871972.7114                   23871972.5234
 -24978115.43048 -19425849.08247  20435144.8204                   20435142.7034
  -2935939.42647  -2252626.84445  22659159.5554                   22659159.2734
 -30486579.08248 -23745687.54746  21662926.9454                   21662923.3484
 11  8 15  2 35  0.0000000  0  7G10G25G12G26G05G29G02
 -16242517.13347 -12625211.42244  23570120.6094                   23570119.7074
 -13276394.31648 -10315432.52346  21654591.8284                   21654592.4574
 -21987515.27048 -17098899.50046  21537269.5474                   21537267.5744
   5040657.03146   3952320.35543  23847345.7034                   23847344.7344
 -24988571.77048 -19433996.85947  20433155.2974                   20433153.0164
  -3051198.93447  -2342439.35945  22637226.4064                   22637225.7544
 -30481547.73048 -23741767.01646  21663884.3284                   21663880.7464
 11  8 15  2 35 30.0000000  0  7G10G25G12G26G05G29G02
 -16172716.21947 -12570821.09443  23583403.1414                   23583402.1174
 -13309950.37548 -10341580.06646  21648206.3054                   21648207.1094
 -21958939.09448 -17076632.34846  21542707.5784                   21542705.5744
   4911296.46447   3851519.98644  23822729.0164                   23822728.1764
 -24998492.46548 -19441727.25847  20431267.1484                   20431264.9964
  -3166368.50047  -2432181.80145  22615310.3054                   22615309.7544
 -30476413.25848 -23737766.12146  21664861.7274                   21664858.0864
 11  8 15  2 36  0.0000000  0  7G10G25G12G26G05G29G02
 -16102724.16047 -12516281.80943  23596722.2274                   23596720.7544
 -13342908.95748 -10367262.06246  21641934.4144                   21641935.1294
 -21929912.81648 -17054014.46546  21548230.9304                   21548228.9024
   4782008.07446   3750775.88344  23798126.3204                   23798125.3594
 -25007870.71148 -19449034.96947  20429482.5004                   20429480.3284
  -3281437.79347  -2521846.09845  22593413.0474                   22593412.0354
 -30471167.19148 -23733678.28146  21665860.0944                   21665856.5594
 11  8 15  2 36 30.0000000  0  7G10G25G12G26G05G29G02
 -16032545.78547 -12461597.34843  23610076.5704                   23610075.4184
 -13375272.67248 -10392480.52046  21635775.9064                   21635776.3244
 -21900440.97747 -17031049.39546  21553838.9614                   21553837.0514
   4652792.80546   3650088.74244  23773537.2814                   23773536.5664
 -25016709.91848 -19455922.64847  20427800.4304                   20427798.3014
  -3396407.22747  -2611432.59445  22571535.2424                   22571534.5124
 -30465811.93748 -23729505.35546  21666879.2274                   21666875.8054
 11  8 15  2 37  0.0000000  0  7G10G25G12G26G05G29G02
 -15962194.69947 -12406778.30143  23623464.0314                   23623462.1054
 -13407052.68048 -10417244.13746  21629728.7114                   21629728.6884
 -21870536.67647 -17007747.33646  21559529.7734                   21559527.7504
   4523643.54346   3549453.03544  23748960.5864                   23748960.3834
 -25025022.66048 -19462400.10247  20426218.6334                   20426216.6764
  -3511285.65247  -2700948.18445  22549674.7974                   22549673.9454
 -30460358.32448 -23725255.79746  21667917.0784                   21667912.9454
 11  8 15  2 37 30.0000000  0  8G10G25G12G26G05G15G29G02
 -15891666.15247 -12351820.96543  23636884.6334                   23636883.8204
 -13438241.93748 -10441547.43446  21623793.0314                   21623793.8094
 -21840195.54348 -16984104.89546  21565303.5944                   21565301.7154
   4394571.14846   3448877.24643  23724399.0474                   23724398.6484
 -25032802.76648 -19468462.50847  20424738.3444                   20424735.7584
  12417613.12956   9701862.78153  24651463.1804                   24651463.2934
  -3626063.71948  -2790385.56245  22527833.1804                   22527832.3714
 -30454799.02048 -23720923.86746  21668975.0004                   21668970.9844
 11  8 15  2 38  0.0000000  0  8G10G25G12G26G05G15G29G02
 -15820967.07847 -12296730.76243  23650338.2194                   23650337.3444
 -13468845.30548 -10465394.19946  21617969.6254                   21617970.2274
 -21809424.40648 -16960127.38746  21571159.3204                   21571156.9024
   4265574.76246   3348360.63343  23699852.2894                   23699851.0314
 -25040056.07848 -19474114.43447  20423357.6094                   20423355.6214
  12290042.68046   9602457.35243  24627186.5634                   24627186.8244
  -3740744.08647  -2879746.82845  22506010.1334                   22506009.5314
 -30449138.60248 -23716513.15246  21670052.0634                   21670048.2504
 11  8 15  2 38 30.0000000  0  8G10G25G12G26G05G15G29G02
 -15750109.34447 -12241516.91843  23663821.9844                   23663820.8914
 -13498872.50448 -10488791.99646  21612255.7584                   21612256.4104
 -21778234.64148 -16935823.66846  21577094.1954                   21577092.2704
   4136648.75846   3247898.88343  23675317.7424                   23675316.8134
 -25046793.57848 -19479364.42247  20422075.7504                   20422073.3164
  12162347.42646   9502954.65243  24602887.3364                   24602886.8874
  -3855333.95347  -2969037.56645  22484203.7814                   22484203.4264
 -30443386.43748 -23712030.94946  21671146.7034                   21671143.0514
 11  8 15  2 39  0.0000000  0  8G10G25G12G26G05G15G29G02
 -15679082.31646 -12186171.19143  23677337.7734                   23677337.4344
 -13528310.75048 -10511730.87146  21606653.7114                   21606654.1094
 -21746615.32448 -16911185.23846  21583111.3134                   21583109.3914
   4007809.91046   3147505.01244  23650800.8134                   23650799.5274
 -25053003.69148 -19484203.45747  20420893.8914                   20420891.6454
  12034543.25446   9403367.09843  24578566.8134                   24578566.6764
  -3969817.91447  -3058245.78145  22462418.6024                   22462417.6914
 -30437529.22348 -23707466.88746  21672261.3284                   21672257.8484
 11  8 15  2 39 30.0000000  0  8G10G25G12G26G05G15G29G02
 -15607887.11747 -12130694.38743  23690886.4064                   23690884.9574
 -13557158.96148 -10534209.98846  21601163.9774                   21601164.4304
 -21714567.52348 -16886212.93046  21589209.9384                   21589207.7544
   3879063.41046   3047183.12944  23626301.1024                   23626299.7894
 -25058686.18448 -19488631.36747  20419812.7034                   20419810.4304
  11906634.28946   9303697.87143  24554226.3834                   24554226.3954
  -4084192.41847  -3147368.71145  22440653.5084                   22440652.5004
 -30431565.59848 -23702819.90245  21673396.0394                   21673392.0044
 11  8 15  2 40  0.0000000  0  8G10G25G12G26G05G15G29G02
 -15536524.69547 -12075087.30943  23704466.2894                   23704465.1564
 -13585416.24248 -10556228.62946  21595786.6954                   21595787.1054
 -21682092.26648 -16860907.52746  21595389.9614                   21595388.0354
   3750414.30947   2946937.12944  23601820.4384                   23601818.9534
 -25063841.21148 -19492648.25447  20418831.6724                   20418829.4884
  11778624.65246   9203950.22743  24529867.2194                   24529867.1844
  -4198453.96547  -3236403.63345  22418910.2424                   22418909.4574
 -30425494.26648 -23698088.98846  21674551.5004                   21674547.3954
 11  8 15  2 40 30.0000000  0  8G10G25G12G26G05G15G29G02
 -15465013.45347 -12019364.23844  23718074.3524                   23718073.5634
 -13613098.82048 -10577799.46946  21590518.9224                   21590519.4224
 -21649207.77048 -16835283.24646  21601647.2734                   21601645.6604
   3621850.57447   2846757.62144  23577354.9694                   23577354.1134
 -25068486.05948 -19496267.61747  20417947.8754                   20417945.5984
  11650501.46946   9104114.12943  24505485.9774                   24505485.3914
  -4312616.45347  -3325361.35245  22397185.7344                   22397185.0594
 -30419330.84447 -23693286.31646  21675724.3284                   21675720.5394
 11  8 15  2 41  0.0000000  0  8G10G25G12G26G05G15G29G02
 -15393350.37947 -11963522.86343  23731711.1414                   23731710.3364
 -13640201.55948 -10598918.48446  21585361.6024                   21585362.1604
 -21615911.16048 -16809337.84846  21607983.2734                   21607981.9304
   3493381.30947   2746651.75844  23552908.2034                   23552907.5984
 -25072616.59848 -19499486.21147  20417161.7344                   20417159.5554
  11522272.88746   9004195.89143  24481083.9774                   24481084.3594
  -4426672.15647  -3414235.86345  22375482.0944                   22375480.3284
 -30413069.64847 -23688407.45346  21676915.3594                   21676912.0124
 11  8 15  2 41 30.0000000  0  8G10G25G12G26G05G15G29G02
 -15321535.52747 -11907563.22344  23745377.6644                   23745376.4184
 -13666722.69148 -10619584.29746  21580314.4844                   21580315.6054
 -21582202.28148 -16783071.18046  21614397.8204                   21614396.0354
   3365012.81347   2646624.41844  23528480.1804                   23528479.4774
 -25076231.89547 -19502303.32447  20416473.5084                   20416471.4844
  11393944.12146   8904199.59443  24456664.5474                   24456664.6914
  -4540616.46147  -3503023.59845  22353799.1094                   22353797.8634
 -30406708.21148 -23683450.48046  21678126.2194                   21678122.2424
 11  8 15  2 42  0.0000000  0  8G10G25G12G26G05G15G29G02
 -15249566.70747 -11851483.64544  23759072.0634                   23759071.3244
 -13692658.05148 -10639793.68046  21575379.7114                   21575379.6684
 -21548078.85548 -16756481.50446  21620891.1334                   21620889.8324
   3236753.37547   2546682.06344  23504073.0394                   23504071.9964
 -25079329.07848 -19504716.71147  20415884.4304                   20415882.3524
  11265522.44547   8804130.87943  24432226.2274                   24432226.3094
  -4654442.71947  -3591719.30945  22332138.5314                   22332137.3634
 -30400241.99647 -23678411.87145  21679356.7664                   21679353.1484
 11  8 15  2 42 30.0000000  0  8G10G25G12G26G05G15G29G02
 -15177457.37147 -11795294.53544  23772793.8364                   23772793.2974
 -13718019.10548 -10659555.53946  21570553.4224                   21570554.0474
 -21513554.34448 -16729579.29346  21627461.1024                   21627459.2624
   3108595.81647   2446819.07844  23479685.2274                   23479684.6724
 -25081920.34048 -19506735.87946  20415391.3754                   20415389.0704
  11136999.68447   8703983.41443  24407769.5864                   24407768.9264
  -4768159.69947  -3680329.91045  22310499.3284                   22310497.1564
 -30393681.57047 -23673299.83246  21680605.2274                   21680600.8834
 11  8 15  2 43  0.0000000  0  8G10G25G12G26G05G15G29G02
 -15105206.82847 -11738995.42243  23786543.2344                   23786542.1804
 -13742803.39148 -10678867.98046  21565836.9534                   21565837.4454
 -21478628.30548 -16702364.19546  21634107.5864                   21634105.3714
   2980546.82447   2347040.68844  23455318.8984                   23455317.6914
 -25084004.43448 -19508359.84046  20414994.3914                   20414992.4064
  11008381.60947   8603761.67244  24383294.2194                   24383293.6524
  -4881762.07048  -3768851.18046  22288881.4694                   22288880.0394
 -30387024.02048 -23668112.12146  21681871.6644                   21681868.0394
 11  8 15  2 43 30.0000000  0  8G10G25G12G26G05G15G29G02
 -15032811.00047 -11682583.09043  23800319.3594                   23800318.6684
 -13767005.25848 -10697726.58646  21561231.6094                   21561232.3674
 -21443296.75448 -16674833.12546  21640830.9924                   21640828.7854
   2852616.30947   2247354.59844  23430974.5864                   23430973.8874
 -25085576.55147 -19509584.87547  20414695.7114                   20414693.3984
  10879677.38747   8503472.77343  24358802.3594                   24358802.1564
  -4995241.60547  -3857276.73445  22267286.9064                   22267285.1524
 -30380263.27048 -23662843.99646  21683158.3754                   21683154.7344
 11  8 15  2 44  0.0000000  0  8G10G25G12G26G05G15G29G02
 -14960279.50847 -11626065.07043  23814121.2504                   23814120.9844
 -13790632.53148 -10716137.46146  21556735.2814                   21556736.2074
 -21407569.32848 -16646993.57446  21647629.7114                   21647627.5084
   2724801.00047   2147758.30144  23406652.0084                   23406651.0354
 -25086645.60547 -19510417.90646  20414492.2814                   20414489.9224
  10750882.78147   8403113.42243  24334293.9304                   24334293.0314
  -5108603.13348  -3945610.32045  22245714.7584                   22245713.5204
 -30373406.09848 -23657500.73846  21684463.3594                   21684459.4734
 11  8 15  2 44 30.0000000  0  8G10G25G12G26G05G15G29G02
 -14887602.61346 -11569433.72343  23827951.5704                   23827950.5594
 -13813673.55548 -10734091.51246  21552350.6884                   21552351.2704
 -21371436.25848 -16618837.93746  21654505.2664                   21654503.3204
   2597116.98847   2048264.32844  23382354.2664                   23382353.4614
 -25087200.58648 -19510850.35546  20414386.5234                   20414384.6524
  10622012.79347   8302695.34844  24309770.4694                   24309769.8984
  -5221832.11748  -4033840.62945  22224168.1174                   22224166.8284
 -30366440.02048 -23652072.61346  21685788.7664                   21685785.5514
 11  8 15  2 45  0.0000000  0  8G10G25G12G26G05G15G29G02
 -14814789.16846 -11512695.98443  23841807.3914                   23841806.0984
 -13836135.14548 -10751594.06246  21548076.4694                   21548077.2304
 -21334906.57048 -16590373.25446  21661457.0164                   21661454.8204
   2469561.88347   1948870.79344  23358081.7974                   23358080.3874
 -25087249.62548 -19510888.57446  20414377.1254                   20414374.8914
  10493063.84847   8202215.77743  24285232.0314                   24285231.6684
  -5334932.68447  -4121970.86745  22202645.2274                   22202644.2464
 -30359371.06248 -23646564.33246  21687134.0314                   21687130.5354
 11  8 15  2 45 30.0000000  0  8G10G25G12G26G05G15G29G02
 -14741849.83246 -11455860.17643  23855687.7894                   23855686.5084
 -13858026.40648 -10768652.19546  21543910.6724                   21543911.3284
 -21297990.99248 -16561607.86746  21668481.6644                   21668479.8874
   2342131.16047   1849574.16444  23333832.5394                   23333831.5274
 -25086802.60248 -19510540.23846  20414462.2664                   20414460.0904
  10364030.69147   8101670.59843  24260677.2344                   24260677.1604
  -5447911.15647  -4210005.95746  22181146.0084                   22181145.0434
 -30352207.66048 -23640982.44945  21688497.2814                   21688493.7464
 11  8 15  2 46  0.0000000  0  8G10G25G12G26G05G15G29G02
 -14668779.33646 -11398922.15243  23869592.4144                   23869591.5474
 -13879340.48848 -10785260.56646  21539854.8284                   21539855.5044
 -21260683.96148 -16532537.45346  21675580.8914                   21675578.8444
   2214835.81347   1750383.03544  23309608.7664                   23309608.1024
 -25085853.70348 -19509800.84046  20414642.7584                   20414640.7664
  10234923.50846   8001067.68443  24236108.6174                   24236109.5514
  -5560757.60547  -4297938.18045  22159672.3754                   22159670.6644
 -30344942.00448 -23635320.87545  21689879.7194                   21689875.8324
 11  8 15  2 46 30.0000000  0  8G10G25G12G26G05G15G29G02
 -14595581.61746 -11341885.01643  23883521.3594                   23883520.6254
 -13900079.86748 -10801421.12146  21535908.0084                   21535908.8874
 -21222990.41448 -16503165.86346  21682754.1254                   21682751.7934
   2087677.98047   1651299.05544  23285411.2344                   23285410.3914
 -25084406.25048 -19508672.95347  20414918.1884                   20414915.9144
  10105743.55147   7900408.10243  24211527.2274                   24211526.6294
  -5673471.36747  -4385767.01245  22138223.7034                   22138222.3794
 -30337575.81247 -23629580.98445  21691281.2584                   21691277.7934
 11  8 15  2 47  0.0000000  0  8G10G25G12G26G05G15G29G02
 -14522255.72746 -11284747.98443  23897475.1724                   23897474.5704
 -13920241.84848 -10817131.75446  21532071.4614                   21532072.0664
 -21184909.32848 -16473492.28946  21690000.3054                   21689998.4064
   1960665.05147   1552327.98444  23261241.7194                   23261240.5044
 -25082458.25448 -19507155.03146  20415288.6174                   20415286.9494
   9976497.25847   7799696.80543  24186932.2274                   24186931.3054
  -5786046.92647  -4473488.15245  22116800.8524                   22116799.1524
 -30330105.20747 -23623759.71145  21692703.1954                   21692699.5434
 11  8 15  2 47 30.0000000  0  8G10G25G12G26G05G15G29G02
 -14448799.93046 -11227509.72343  23911452.8984                   23911452.0984
 -13939823.26648 -10832389.99646  21528345.2274                   21528346.1724
 -21146438.79747 -16443515.25446  21697321.1024                   21697319.0864
   1833804.91047   1453475.97344  23237100.9454                   23237100.1994
 -25080007.66848 -19505245.48847  20415755.5634                   20415753.3484
   9847191.15646   7698938.93843  24162325.1334                   24162325.1684
  -5898478.14548  -4561096.84045  22095405.8754                   22095404.2584
 -30322526.20747 -23617853.98845  21694145.3054                   21694141.6884
 11  8 15  2 48  0.0000000  0  8G10G25G12G26G05G15G29G02
 -14375229.73846 -11170182.35543  23925452.3984                   23925452.1334
 -13958837.69148 -10847206.42246  21524726.8754                   21524727.6644
 -21107594.73047 -16413247.14846  21704712.7034                   21704710.6684
   1707088.63747   1354736.06644  23212987.4694                   23212986.3204
 -25077069.05548 -19502955.65247  20416314.7814                   20416311.8794
   9717815.53946   7598126.87943  24137706.5864                   24137705.4024
  -6010775.39147  -4648601.12545  22074036.0164                   22074034.7584
 -30314851.53147 -23611873.69545  21695606.0704                   21695602.0944
 11  8 15  2 48 30.0000000  0  8G10G25G12G26G05G15G29G02
 -14301539.40246 -11112761.35943  23939475.7274                   23939475.4104
 -13977278.30548 -10861575.71146  21521217.7504                   21521218.1334
 -21068371.80147 -16382683.83246  21712176.8204                   21712175.0664
   1580527.30547   1256116.91044  23188903.6414                   23188902.5664
 -25073636.16848 -19500280.66846  20416967.6954                   20416965.5234
   9588380.92246   7497268.86343  24113075.1564                   24113075.2704
  -6122928.89547  -4735993.41045  22052694.4304                   22052692.3714
 -30307073.41847 -23605812.80945  21697086.1804                   21697082.3134
 11  8 15  2 49  0.0000000  0  8G10G25G12G26G05G15G29G02
 -14227734.58646 -11055251.14143  23953520.8054                   23953520.4264
 -13995149.09048 -10875500.98446  21517816.9064                   21517817.6884
 -21028775.74247 -16351829.77046  21719711.4064                   21719709.6684
   1454122.15647   1157619.43844  23164849.6094                   23164848.4734
 -25069713.75848 -19497224.23446  20417714.0394                   20417711.8914
   9458887.06346   7396364.66043  24088432.9534                   24088432.7504
  -6234939.32047  -4823274.19945  22031379.2274                   22031377.6644
 -30299194.40648 -23599673.30545  21698584.7114                   21698581.6174
 11  8 15  2 49 30.0000000  0  8G10G25G12G26G05G15G29G02
 -14153816.60246 -10997652.73843  23967586.5784                   23967585.6414
 -14012449.80148 -10888982.03546  21514524.8674                   21514525.5554
 -20988807.93047 -16320686.01246  21727317.5554                   21727315.2114
   1327877.81647   1059247.26644  23140825.9384                   23140825.1024
 -25065302.74248 -19493787.07846  20418553.6564                   20418551.0044
   9329338.31646   7295417.69943  24063781.2344                   24063781.0514
  -6346803.46547  -4910441.02045  22010092.5394                   22010090.6844
 -30291213.52048 -23593454.40245  21700103.9224                   21700099.9804
 11  8 15  2 50  0.0000000  0  8G10G25G12G26G05G15G29G02
 -14079794.54746 -10939973.25843  23981672.6724                   23981671.6884
 -14029188.46948 -10902025.13746  21511339.5394                   21511340.2544
 -20948478.18447 -16289260.24646  21734991.6254                   21734989.5164
   1201791.18847    960997.97744  23116831.8364                   23116831.4804
 -25060412.20348 -19489976.25846  20419484.2424                   20419481.6844
   9199730.20347   7194424.51644  24039118.1484                   24039117.0394
  -6458526.02347  -4997497.48445  21988831.7734                   21988830.5124
 -30283137.43748 -23587161.32845  21701640.5394                   21701636.9384
 11  8 15  2 50 30.0000000  0  8G10G25G12G26G05G15G29G02
 -14005666.19946 -10882210.96143  23995778.8914                   23995778.4964
 -14045361.33248 -10914627.34846  21508261.9614                   21508262.3984
 -20907783.84447 -16257550.36746  21742735.6724                   21742733.6954
   1075870.67647    862878.11744  23092870.1094                   23092869.0164
 -25055038.75048 -19485789.14146  20420506.6094                   20420504.3674
   9070070.36746   7093391.00844  24014444.1174                   24014443.5234
  -6570099.94947  -5084438.14545  21967600.1724                   21967599.3554
 -30274961.15648 -23580790.18745  21703196.5164                   21703192.6644
 11  8 15  2 51  0.0000000  0  8G10G25G12G26G05G15G29G02
 -13931435.54546 -10824368.94943  24009903.8444                   24009903.8554
 -14060971.13748 -10926790.81246  21505291.6804                   21505292.2034
 -20866730.21547 -16225560.52346  21750547.7504                   21750545.7034
    950118.41047    764889.35944  23068940.5164                   23068939.4774
 -25049186.08648 -19481228.60547  20421620.3284                   20421618.4884
   8940360.05947   6992318.18843  23989761.5634                   23989760.0824
  -6681525.09047  -5171262.86345  21946396.7034                   21946395.1254
 -30266686.68447 -23574342.52345  21704771.0704                   21704767.3754
 11  8 15  2 51 30.0000000  0  8G10G25G12G26G05G15G29G02
 -13857106.96546 -10766450.64543  24024049.1954                   24024048.1414
 -14076020.86748 -10938517.85246  21502427.5314                   21502428.5234
 -20825321.59048 -16193294.06646  21758427.5084                   21758425.0474
    824536.22747    667033.13744  23045042.9614                   23045042.0354
 -25042857.75848 -19476297.43746  20422824.7584                   20422822.0864
   8810600.66447   6891207.11744  23965069.1644                   23965067.3204
  -6792800.57047  -5257970.97345  21925221.6094                   21925220.0634
 -30258315.50847 -23567819.50846  21706364.1254                   21706360.3554
 11  8 15  2 52  0.0000000  0  8G10G25G12G26G05G15G29G02
 -12207266.48046  -9480860.70743  24338003.3364                   24338002.1684
 -12515092.40248  -9722209.94146  21799462.5864                   21799463.3204
 -19208143.19947 -14933155.05946  22066166.5084                   22066164.0704
   2274550.82447   1796914.67244  23320972.0314                   23320970.9184
 -23460637.45348 -18243398.48846  20723911.3754                   20723908.8404
  10256217.20346   8017661.73444  24240160.2894                   24240159.4104
  -5328502.09847  -4116959.11345  22203867.9774                   22203866.6254
 -28674429.18747 -22333622.35245  22007767.4774                   22007763.8754
 11  8 15  2 52 30.0000000  0  8G10G25G12G26G05G15G29G02
 -12132751.94546  -9422797.46943  24352183.3134                   24352181.5004
 -12529028.27048  -9733069.03146  21796810.7894                   21796810.9654
 -19166035.59047 -14900343.93746  22074179.2814                   22074177.0864
   2149317.12947   1699330.00044  23297140.6724                   23297139.3594
 -23453366.98048 -18237733.17246  20725294.7194                   20725292.1374
  10126363.73446   7916477.35244  24215449.6724                   24215448.7194
  -5439475.08247  -4203431.51646  22182751.0394                   22182749.5354
 -28665867.22347 -22326950.66045  22009396.7504                   22009393.4964
 11  8 15  2 53  0.0000000  0  8G10G25G12G26G05G15G29G02
 -12058143.84846  -9364661.33243  24366380.3914                   24366379.3594
 -12542404.62548  -9743492.15646  21794265.0634                   21794265.6414
 -19123578.13348 -14867260.19946  22082258.9844                   22082256.9534
   2024267.71547   1601888.93444  23273344.6564                   23273343.3324
 -23445624.22348 -18231699.83646  20726768.4304                   20726765.5984
   9996472.28946   7815263.34044  24190732.4064                   24190731.5084
  -5550289.30147  -4289780.20746  22161663.5634                   22161661.8554
 -28657205.27347 -22320201.07045  22011044.9384                   22011041.1414
 11  8 15  2 53 30.0000000  0  8G10G25G12G26G05G15G29G02
 -11983443.14846  -9306453.04343  24380595.2974                   24380594.8594
 -12555221.42648  -9753479.26646  21791826.4454                   21791826.8554
 -19080772.60548 -14833905.23446  22090404.4534                   22090402.0704
   1899407.41047   1504595.20744  23249583.8984                   23249583.0044
 -23437409.58648 -18225298.80546  20728331.2424                   20728329.1564
   9866546.72347   7714022.75444  24166008.3984                   24166007.4064
  -5660940.99647  -4376002.26246  22140606.9774                   22140605.2304
 -28648441.90648 -22313372.45345  22012712.5084                   22012708.8714
 11  8 15  2 54  0.0000000  0  8G10G25G12G26G05G15G29G02
 -11908652.87146  -9248174.98443  24394827.4534                   24394826.1954
 -12567480.80148  -9763032.02046  21789493.0944                   21789493.5664
 -19037622.45748 -14800281.74246  22098615.4844                   22098613.4774
   1774739.27747   1407451.22344  23225860.5784                   23225859.2974
 -23428725.69548 -18218532.11346  20729983.7424                   20729981.3014
   9736589.08647   7612757.14844  24141277.7974                   24141276.9184
  -5771428.80547  -4462096.61746  22119582.0314                   22119579.9774
 -28639578.11747 -22306465.59045  22014399.2584                   22014395.7704
 11  8 15  2 54 30.0000000  0  8G10G25G12G26G05G15G29G02
 -11833780.66046  -9189833.05943  24409075.3984                   24409074.5864
 -12579189.03948  -9772155.31246  21787265.1564                   21787265.8984
 -18994135.60548 -14766395.88346  22106890.9534                   22106888.8834
   1650261.96547   1310455.91844  23202173.2814                   23202172.0664
 -23419580.08648 -18211405.64846  20731724.1564                   20731722.0664
   9606597.41847   7511465.01644  24116541.2424                   24116540.2894
  -5881755.87548  -4548065.69945  22098587.5004                   22098585.8134
 -28630618.64148 -22299484.16845  22016104.5164                   22016100.7624
 11  8 15  2 55  0.0000000  0  8G10G25G12G26G05G15G29G02
 -11758823.52046  -9131424.98443  24423338.9924                   24423338.7234
 -12590341.88748  -9780845.84046  21785143.0234                   21785143.4384
 -18950309.24248 -14732245.46946  22115230.7034                   22115228.7934
   1525984.67247   1213616.47744  23178524.0944                   23178523.0004
 -23409969.01248 -18203916.48446  20733552.7664                   20733550.7274
   9476579.66047   7410152.56344  24091799.7114                   24091798.3324
  -5991914.33247  -4633903.40645  22077624.8444                   22077622.7304
 -28621558.01248 -22292423.92645  22017828.2424                   22017824.8714
 11  8 15  2 55 30.0000000  0  8G10G25G12G26G05G15G29G02
 -11683785.59946  -9072953.90343  24437618.5704                   24437617.8444
 -12600942.75448  -9789106.25446  21783125.2424                   21783126.2504
 -18906148.31648 -14697834.35245  22123634.3594                   22123632.0164
   1401909.10547   1116934.21544  23154913.5704                   23154912.5394
 -23399896.34848 -18196067.64546  20735469.6804                   20735467.4064
   9346536.99247   7308820.69144  24067053.4694                   24067052.0554
  -6101903.89147  -4719609.50846  22056694.5314                   22056692.8874
 -28612398.15248 -22285286.36345  22019571.9694                   22019568.2894
 11  8 15  2 56  0.0000000  0  8G10G25G12G26G05G15G29G02
 -11608670.19946  -9014422.51643  24451912.6484                   24451911.7344
 -12610993.79748  -9796938.23846  21781212.9924                   21781213.5664
 -18861656.51248 -14663165.41846  22132100.6094                   22132098.9734
   1278038.04347   1020411.31344  23131341.2114                   23131340.5944
 -23389365.18048 -18187861.52346  20737473.5864                   20737471.1174
   9216471.43847   7207470.96944  24042302.6884                   24042301.8284
  -6211723.24247  -4805182.97746  22035796.8204                   22035795.4064
 -28603139.59448 -22278071.88345  22021333.6884                   22021329.6094
 11  8 15  2 56 30.0000000  0  8G10G25G12G26G05G15G29G02
 -11533485.77046  -8955837.31243  24466219.8204                   24466219.1844
 -12620502.54348  -9804347.64546  21779403.5314                   21779404.1564
 -18816842.90648 -14628245.71946  22140628.6564                   22140626.2304
   1154369.33247    924046.08644  23107807.8674                   23107807.2344
 -23378383.79347 -18179304.57846  20739563.6334                   20739561.1604
   9086379.80947   7106100.94144  24017547.2894                   24017546.0904
  -6321376.40248  -4890626.93446  22014930.3674                   22014928.9694
 -28593788.47347 -22270785.27745  22023112.9384                   22023108.8794
 11  8 15  2 57  0.0000000  0  8G10G25G12G26G05G15G29G02
 -11458236.05946  -8897201.25043  24480539.6804                   24480538.7194
 -12629471.77048  -9811336.64846  21777696.8524                   21777697.3134
 -18771711.99648 -14593078.78145  22149216.5474                   22149214.3524
   1030905.44947    827840.45744  23084313.6484                   23084312.7114
 -23366955.58248 -18170399.46146  20741738.2974                   20741735.6764
   8956263.41447   7004711.58244  23992786.7664                   23992785.5984
  -6430862.37548  -4975940.64146  21994095.9144                   21994094.2304
 -28584345.76647 -22263427.32045  22024909.9454                   22024905.9224
 11  8 15  2 57 30.0000000  0  8G10G25G12G26G05G15G29G02
 -11382914.77746  -8838509.44543  24494872.6334                   24494872.1024
 -12637894.20348  -9817899.58646  21776094.2894                   21776094.6174
 -18726257.53948 -14557659.71545  22157866.3524                   22157863.8914
    907658.46947    731803.87144  23060860.6334                   23060859.6524
 -23355073.76648 -18161140.89546  20743999.3674                   20743996.6254
   8826133.80547   6903311.93844  23968023.4844                   23968022.5984
  -6540170.33248  -5061115.60546  21973295.2814                   21973293.7664
 -28574802.84447 -22255991.25445  22026725.6414                   22026721.8524
 11  8 15  2 58  0.0000000  0  9G10G25G12G26G05G15G29G21G02
 -11307514.92246  -8779756.36343  24509220.3134                   24509220.3754
 -12645762.29348  -9824030.56246  21774596.7584                   21774597.2854
 -18680473.44948 -14521983.80945  22166579.0634                   22166576.7114
    784641.27747    635946.32444  23037451.5314                   23037449.8754
 -23342731.64848 -18151523.64846  20746347.8594                   20746345.4344
   8696003.04746   6801911.37944  23943260.6724                   23943259.7034
  -6649288.88747  -5146143.00046  21952530.6024                   21952529.0864
  14065788.06656  10979421.29353  25236564.6024                   25236563.5004
 -28565150.60548 -22248470.02345  22028562.6884                   22028558.6054
 11  8 15  2 58 30.0000000  0  9G10G25G12G26G05G15G29G21G02
 -11232046.71146  -8720950.05542  24523581.4144                   24523581.4534
 -12653085.31648  -9829736.81646  21773203.1174                   21773203.7274
 -18634370.21548 -14486059.21946  22175351.8754                   22175350.0394
    661849.82847    540264.66844  23014084.5864                   23014083.7304
 -23329939.01248 -18141555.35546  20748782.2584                   20748780.0234
   8565865.96146   6700505.86343  23918496.4844                   23918495.0704
  -6758223.72348  -5231027.24246  21931801.1724                   21931799.1414
  13975182.39546  10908819.63343  25219322.2664                   25219321.7734
 -28555396.74248 -22240869.58245  22030418.4534                   22030414.4534
 11  8 15  2 59  0.0000000  0  9G10G25G12G26G05G15G29G21G02
 -11156530.04346  -8662105.89142  24537952.7034                   24537951.6174
 -12659882.11748  -9835033.02046  21771910.0004                   21771910.7034
 -18587968.70748 -14449902.19946  22184181.5084                   22184180.3054
    539270.47747    444748.28544  22990758.6804                   22990757.6684
 -23316715.39148 -18131251.21946  20751298.8524                   20751296.1954
   8435708.36346   6599084.37544  23893729.0004                   23893727.5744
  -6866989.96947  -5315780.10246  21911103.3054                   21911101.6334
  13884582.94946  10838222.76243  25202081.8984                   25202081.6764
 -28545558.07448 -22233203.05545  22032291.0944                   22032287.1454
 11  8 15  2 59 30.0000000  0  9G10G25G12G26G05G15G29G21G02
 -11080956.38346  -8603217.34043  24552333.6094                   24552333.5004
 -12666143.73048  -9839912.19946  21770718.4694                   21770719.1804
 -18541260.76648 -14413506.40646  22193070.1954                   22193068.4104
    416917.52747    349408.31344  22967475.4844                   22967474.6214
 -23303052.43048 -18120604.74646  20753898.7664                   20753896.3324
   8305543.68446   6497657.37944  23868958.5004                   23868957.5554
  -6975574.54748  -5400391.41046  21890440.4384                   21890438.4384
  13793999.62946  10767638.48043  25184844.6484                   25184842.7894
 -28535624.19548 -22225462.34845  22034181.0634                   22034177.3164
 11  8 15  3  0  0.0000000  0  9G10G25G12G26G05G15G29G21G02
 -11005327.11746  -8544285.48042  24566725.5704                   24566724.3164
 -12671870.64548  -9844374.72746  21769628.2734                   21769629.4304
 -18494248.60248 -14376873.55545  22202016.2034                   22202014.2664
    294795.84447    254248.57444  22944236.9534                   22944235.8244
 -23288951.37948 -18109616.90646  20756581.9384                   20756579.5434
   8175375.82446   6396227.92244  23844188.4774                   23844187.6454
  -7083974.38748  -5484858.76645  21869812.2664                   21869810.9224
  13703433.03946  10697067.27043  25167610.0164                   25167608.3554
 -28525593.94948 -22217646.54345  22036090.3054                   22036086.0664
 11  8 15  3  0 30.0000000  0  9G10G25G12G26G05G15G29G21G02
 -10929639.93746  -8485308.43043  24581128.3914                   24581127.5904
 -12677059.64548  -9848418.09846  21768641.1954                   21768641.4414
 -18446930.22347 -14340002.09846  22211020.6174                   22211018.3444
    172913.72347    159275.49244  22921043.2664                   22921042.0634
 -23274409.54348 -18098285.60546  20759349.2274                   20759346.6054
   8045212.42246   6294801.94544  23819418.8364                   23819418.0864
  -7192182.43047  -5569176.68046  21849221.1884                   21849219.5164
  13612887.40646  10626512.32443  25150379.6884                   25150378.2234
 -28515462.19147 -22209751.64545  22038018.0164                   22038014.1294
 11  8 15  3  1  0.0000000  0  9G10G25G12G26G05G15G29G21G02
 -10853898.77746  -8426289.39543  24595541.5944                   24595540.5864
 -12681714.31648  -9852045.10246  21767755.4224                   21767755.8834
 -18399310.37947 -14302895.71945  22220082.8364                   22220080.1764
     51273.10947     64490.60544  22897895.2974                   22897894.7344
 -23259430.52748 -18086613.64146  20762199.2344                   20762197.2464
   7915054.72347   6193380.41044  23794651.0234                   23794650.0634
  -7300198.18748  -5653344.74246  21828666.4534                   21828665.0904
  13522360.32046  10555971.85243  25133152.6024                   25133151.2624
 -28505230.97348 -22201779.22745  22039964.4614                   22039960.7424
 11  8 15  3  1 30.0000000  0  9G10G25G12G26G05G15G29G21G02
 -10778110.34846  -8367233.50843  24609963.9224                   24609962.8834
 -12685840.51648  -9855260.31246  21766970.4384                   21766970.6844
 -18351396.19547 -14265559.98445  22229199.8594                   22229197.7774
    -70126.53947    -30106.50044  22874794.0084                   22874793.2894
 -23244021.10548 -18074606.29746  20765131.7584                   20765129.6454
   7784901.09847   6091962.03144  23769883.2114                   23769882.4804
  -7408024.16448  -5737364.93746  21808147.8134                   21808145.6454
  13431846.99246  10485442.08243  25115928.3444                   25115927.4844
 -28494904.20748 -22193732.35245  22041929.6954                   22041925.8014
 11  8 15  3  2  0.0000000  0  8G25G12G26G05G15G29G21G02
 -12689450.00448  -9858072.89846  21766283.1884                   21766284.1174
 -18303200.85247 -14228005.17245  22238371.3444                   22238368.8404
   -191291.50447   -124520.74644  22851737.3284                   22851736.0164
 -23228193.79348 -18062273.32446  20768143.5164                   20768141.2074
   7654744.59847   5990541.44544  23745115.4224                   23745113.8554
  -7515667.85248  -5821243.09046  21787663.4144                   21787661.8914
  13341336.81346  10414914.83243  25098705.1564                   25098704.0634
 -28484491.91047 -22185618.83645  22043911.0554                   22043907.4304
 11  8 15  3  2 30.0000000  0  8G25G12G26G05G15G29G21G02
 -12692526.43448  -9860470.10246  21765698.2734                   21765698.3054
 -18254709.24247 -14190219.50845  22247598.9064                   22247596.7194
   -312200.01247   -218735.12544  22828729.0704                   22828727.9104
 -23211932.61348 -18049602.28146  20771238.2274                   20771235.7734
   7524606.23047   5889134.97344  23720350.8834                   23720349.6214
  -7623108.87548  -5904963.31646  21767218.6724                   21767216.9224
  13250847.35946  10344403.69143  25081484.7584                   25081484.8914
 -28473975.73447 -22177424.37545  22045912.4774                   22045908.6214
 11  8 15  3  3  0.0000000  0  8G25G12G26G05G15G29G21G02
 -12695077.03948  -9862457.57446  21765212.5394                   21765212.8554
 -18205930.07447 -14152209.75845  22256881.5314                   22256879.2774
   -432854.18747   -312751.34044  22805769.0704                   22805768.3834
 -23195245.44948 -18036599.29346  20774413.2894                   20774411.0314
   7394483.03147   5787740.35544  23695589.7664                   23695588.0904
  -7730350.42248  -5988528.10546  21746810.9924                   21746809.4614
  13160372.64146  10273904.01243  25064268.5704                   25064268.0664
 -28463361.17648 -22169153.25845  22047932.1024                   22047928.1764
 11  8 15  3  3 30.0000000  0  8G25G12G26G05G15G29G21G02
 -12697102.80148  -9864036.08246  21764827.0004                   21764827.7154
 -18156865.42647 -14113977.56245  22266217.9844                   22266215.5554
   -553249.32047   -406565.69544  22782858.7424                   22782857.5354
 -23178133.35248 -18023265.19946  20777669.8754                   20777667.4534
   7264378.95347   5686360.62144  23670831.3364                   23670829.9844
  -7837389.57048  -6071935.18746  21726442.3284                   21726440.3524
  13069912.56646  10203415.75843  25047054.0084                   25047054.2344
 -28452647.17247 -22160804.63345  22049970.8444                   22049967.0354
 11  8 15  3  4  0.0000000  0  8G25G12G26G05G15G29G21G02
 -12698596.04748  -9865199.63746  21764542.8984                   21764543.4774
 -18107508.62947 -14075517.72345  22275609.8134                   22275608.1174
   -673372.13347   -500167.81644  22760000.3674                   22759998.9654
 -23160589.34048 -18009594.54346  20781008.2664                   20781005.6844
   7134306.23447   5585005.31344  23646079.1174                   23646077.7504
  -7944214.84448  -6155175.60546  21706113.8284                   21706112.3404
  12979476.57046  10132946.28143  25029844.0004                   25029844.4884
 -28441824.03947 -22152370.97745  22052030.4304                   22052026.6954
 11  8 15  3  4 30.0000000  0  8G25G12G26G05G15G29G21G02
 -12699563.49248  -9865953.47746  21764358.6254                   21764359.4344
 -18057867.88347 -14036836.61745  22285056.8134                   22285054.5474
   -793223.91847   -593558.74644  22737192.7584                   22737191.9694
 -23142620.66848 -17995592.98046  20784427.6414                   20784425.3014
   7004263.03547   5483673.04744  23621332.8204                   23621331.2034
  -8050828.66448  -6238251.27046  21685825.6564                   21685824.1134
  12889058.66046  10062490.91042  25012637.4534                   25012638.3984
 -28430896.94947 -22143856.32045  22054109.9534                   22054106.0554
 11  8 15  3  5  0.0000000  0  8G25G12G26G05G15G29G21G02
 -12700004.82848  -9866297.36746  21764274.8134                   21764275.0784
 -18007943.86747 -13997934.79345  22294556.8524                   22294554.6374
   -912798.85547   -686733.94144  22714438.8054                   22714437.7544
 -23124227.54748 -17981260.68446  20787927.3444                   20787925.4654
   6874254.53147   5382367.79744  23596593.0394                   23596591.1024
  -8157226.71148  -6321158.79346  21665579.0474                   21665577.5704
  12798660.68046   9992051.05942  24995436.5474                   24995436.3674
 -28419863.28547 -22135258.61745  22056209.3594                   22056205.1884
 11  8 15  3  5 30.0000000  0  8G25G12G26G05G15G29G21G02
 -12699924.34848  -9866234.64546  21764290.2814                   21764290.4804
 -17957742.25047 -13958816.66445  22304109.8204                   22304108.0044
  -1032095.63747   -779692.39844  22691737.5864                   22691736.1454
 -23105414.57448 -17966601.22346  20791507.4534                   20791505.2274
   6744281.12947   5281089.90744  23571859.6644                   23571858.1994
  -8263409.10948  -6403898.28146  21645373.2504                   21645371.1214
  12708279.56346   9921624.28042  24978236.7894                   24978237.6054
 -28408725.37947 -22126579.68745  22058328.9774                   22058324.9614
 11  8 15  3  6  0.0000000  0  8G25G12G26G05G15G29G21G02
 -12699321.69148  -9865765.03946  21764404.8524                   21764405.5124
 -17907263.15647 -13919482.30545  22313715.6174                   22313713.4964
  -1151108.56647   -872429.66844  22669090.0784                   22669088.5204
 -23086181.92248 -17951614.74246  20795167.7814                   20795165.6484
   6614347.88747   5179843.28144  23547134.3594                   23547132.7304
  -8369371.23448  -6486466.11746  21625209.2424                   21625207.6524
  12617916.87546   9851211.94142  24961040.9694                   24961042.1134
 -28397480.85247 -22117817.68745  22060468.6644                   22060464.4734
 11  8 15  3  6 30.0000000  0  8G25G12G26G05G15G29G21G02
 -12698207.04348  -9864896.47746  21764616.7194                   21764617.5904
 -17856518.86747 -13879941.31645  22323372.3834                   22323370.1524
  -1269842.10547   -964949.23044  22646495.8754                   22646494.3444
 -23066540.26648 -17936309.55546  20798905.3204                   20798902.7114
   6484449.30147   5078623.68044  23522415.0474                   23522413.6644
  -8475119.12948  -6568867.03946  21605086.0084                   21605084.2384
  12527563.87546   9780807.14142  24943846.6884                   24943848.2774
 -28386137.91848 -22108979.00845  22062626.8524                   22062623.1844
 11  8 15  3  7  0.0000000  0  8G25G12G26G05G15G29G21G02
 -12696581.96148  -9863630.15646  21764925.9774                   21764926.7074
 -17805511.80947 -13840195.56245  22333078.6414                   22333076.6054
  -1388292.34847  -1057248.05545  22623955.2424                   22623953.9694
 -23046491.66448 -17920687.26246  20802720.5394                   20802717.8594
   6354588.92647   4977433.82844  23497703.7114                   23497701.5944
  -8580650.35248  -6651099.11346  21585004.1564                   21585002.6134
  12437220.66846   9710409.91042  24926655.4454                   24926656.7544
 -28374695.86348 -22100063.09845  22064804.5394                   22064800.0944
 11  8 15  3  7 30.0000000  0  8G25G12G26G05G15G29G21G02
 -12694453.79748  -9861971.83246  21765331.2114                   21765331.6644
 -17754250.01647 -13800251.32045  22342833.8284                   22342831.3164
  -1506460.84447  -1149327.35945  22601468.7424                   22601467.2974
 -23026043.44148 -17904753.56646  20806611.7734                   20806609.0354
   6224764.21547   4876271.78944  23472998.6024                   23472997.2974
  -8685968.05948  -6733164.81646  21564962.5784                   21564960.9264
  12346881.02045   9640015.49642  24909465.0084                   24909465.3874
 -28363160.10247 -22091074.17245  22066999.7344                   22066995.3874
 11  8 15  3  8  0.0000000  0  8G25G12G26G05G15G29G21G02
 -12691820.23448  -9859919.69546  21765831.9614                   21765832.9184
 -17702732.60547 -13760107.88745  22352636.6484                   22352634.4414
  -1624339.72347  -1241180.97344  22579036.7504                   22579035.8674
 -23005193.93748 -17888507.19946  20810578.9384                   20810576.6844
   6094982.04347   4775142.87544  23448301.9304                   23448300.6764
  -8791065.55948  -6815058.93446  21544963.4064                   21544961.5594
  12256548.72746   9569626.79342  24892274.8204                   24892276.0704
 -28351525.82447 -22082008.49245  22069213.4454                   22069209.5314
 11  8 15  3  8 30.0000000  0  8G25G12G26G05G15G29G21G02
 -12688676.13748  -9857469.75446  21766430.1954                   21766431.4534
 -17650955.52747 -13719762.12145  22362489.5944                   22362487.6764
  -1741918.32047  -1332800.63745  22556662.2274                   22556661.1294
 -22983938.50448 -17871944.51246  20814623.7974                   20814621.4804
   5965253.32447   4674055.61344  23423614.8524                   23423613.6374
  -8895933.73448  -6896774.34846  21525007.5784                   21525005.6644
  12166230.43846   9499248.98042  24875087.4454                   24875088.7664
 -28339786.17247 -22072860.70745  22071447.6254                   22071443.1524
 11  8 15  3  9  0.0000000  0  8G25G12G26G05G15G29G21G02
 -12685026.83648  -9854626.13346  21767124.9774                   21767125.5944
 -17598924.96547 -13679218.84045  22372390.4304                   22372388.3444
  -1859196.07847  -1424185.87144  22534345.4304                   22534343.9964
 -22962282.44948 -17855069.66046  20818744.5704                   20818742.7194
   5835577.30147   4573009.41044  23398939.0554                   23398937.6174
  -9000573.28948  -6978311.61746  21505095.6024                   21505093.4734
  12075922.15646   9428878.96943  24857903.0394                   24857903.2304
 -28327943.96147 -22063632.99645  22073700.8984                   22073697.1644
 11  8 15  3  9 30.0000000  0  8G25G12G26G05G15G29G21G02
 -12680880.49248  -9851395.21146  21767913.8524                   21767914.8834
 -17546650.16847 -13638485.23445  22382337.8834                   22382336.0394
  -1976175.59047  -1515338.73844  22512084.8834                   22512083.3634
 -22940234.50048 -17837889.42246  20822940.3834                   20822938.0784
   5705950.55546   4472001.60544  23374271.2584                   23374270.5824
  -9104988.01248  -7059673.68746  21485225.6094                   21485223.7704
  11985617.56646   9358511.90642  24840718.0004                   24840718.7274
 -28316005.20748 -22054330.05145  22075972.7974                   22075969.0594
 11  8 15  3 10  0.0000000  0  8G25G12G26G05G15G29G21G02
 -12676228.68748  -9847770.41846  21768799.0004                   21768799.9184
 -17494123.76247 -13597555.58245  22392334.2584                   22392331.8444
  -2092842.71547  -1606248.19945  22489883.6724                   22489882.3134
 -22917786.75048 -17820397.65646  20827211.8914                   20827209.4104
   5576386.87546   4371042.96144  23349616.3914                   23349615.4184
  -9209165.44148  -7140850.87146  21465401.5084                   21465399.4924
  11895326.07846   9288154.98443  24823536.3054                   24823535.8364
 -28303959.31648 -22044943.62945  22078264.8914                   22078260.9924
 11  8 15  3 10 30.0000000  0  8G25G12G26G05G15G29G21G02
 -12671075.89848  -9843755.25046  21769779.5314                   21769780.3404
 -17441351.18447 -13556434.10245  22402375.7814                   22402373.6454
  -2209195.99647  -1696913.09845  22467742.3444                   22467740.9144
 -22894943.46548 -17802597.68746  20831558.8054                   20831556.8324
   5446886.73047   4270133.81344  23324973.3594                   23324972.0904
  -9313105.57848  -7221843.13346  21445622.4064                   21445620.3524
  11805045.03946   9217806.19543  24806356.1414                   24806355.8914
 -28291808.42248 -22035475.37545  22080577.3834                   22080573.2304
 11  8 15  3 11  0.0000000  0  8G25G12G26G05G15G29G21G02
 -12665425.94548  -9839352.68046  21770854.7114                   21770855.4734
 -17388337.23447 -13515124.53945  22412463.9844                   22412461.9614
  -2325233.80147  -1787332.18745  22445661.1804                   22445659.9264
 -22871709.14148 -17784493.00446  20835979.9844                   20835977.7774
   5317451.38347   4169275.15644  23300342.5164                   23300341.8714
  -9416807.89148  -7302650.09446  21425888.2194                   21425886.4654
  11714771.78146   9147463.46543  24789178.0004                   24789177.2074
 -28279554.30548 -22025926.70745  22082909.4144                   22082904.9574
 11  8 15  3 11 30.0000000  0  8G25G12G26G05G15G29G21G02
 -12659290.43748  -9834571.75846  21772022.5004                   21772022.7424
 -17335094.24247 -13473636.50045  22422596.1334                   22422593.7074
  -2440962.06647  -1877510.08645  22423639.1884                   22423637.6254
 -22848095.60548 -17766092.84046  20840473.7584                   20840471.3914
   5188074.19147   4068461.80144  23275723.2814                   23275721.3794
  -9520279.47348  -7383277.24646  21406198.5234                   21406196.1414
  11624496.70346   9077119.35243  24771999.0234                   24771998.0124
 -28267205.85548 -22016304.52345  22085259.0944                   22085255.3134
 11  8 15  3 12  0.0000000  0  8G25G12G26G05G15G29G21G02
 -12652666.71148  -9829410.40646  21773282.5474                   21773283.2074
 -17281621.06247 -13431969.10245  22432771.8674                   22432769.3484
  -2556371.94147  -1967439.89545  22401677.0004                   22401675.4614
 -22824100.51248 -17747395.35246  20845039.8284                   20845037.5434
   5058763.07847   3967699.93444  23251116.1484                   23251114.4414
  -9623513.44148  -7463719.25846  21386553.4844                   21386551.5234
  11534224.11746   9006777.17243  24754820.4384                   24754820.1094
 -28254758.14548 -22006604.98445  22087627.5634                   22087623.3594
 11  8 15  3 12 30.0000000  0  8G25G12G26G05G15G29G21G02
 -12645556.30948  -9823869.84446  21774636.0554                   21774636.7774
 -17227919.95747 -13390124.09045  22442990.7034                   22442988.7074
  -2671459.34047  -2057118.40245  22379776.4844                   22379775.4844
 -22799725.31248 -17728401.68746  20849678.4224                   20849675.8364
   4929521.60547   3866992.32844  23226522.2114                   23226521.1254
  -9726506.59448  -7543973.60546  21366954.5004                   21366952.5124
  11443954.09446   8936436.96143  24737641.9924                   24737642.2344
 -28242210.48448 -21996827.56245  22090015.3834                   22090011.1454
 11  8 15  3 13  0.0000000  0  8G25G12G26G05G15G29G21G02
 -12637958.83248  -9817949.71946  21776081.5084                   21776082.0664
 -17173991.40247 -13348101.83645  22453252.7344                   22453250.7624
  -2786218.12947  -2146540.86345  22357938.8444                   22357937.3674
 -22774970.35248 -17709112.09846  20854389.0704                   20854386.6684
   4800354.95747   3766343.02744  23201942.3364                   23201941.1374
  -9829254.03948  -7624036.49246  21347402.1884                   21347400.3094
  11353688.19946   8866100.02043  24720465.4844                   24720464.2974
 -28229560.09448 -21986970.08645  22092422.8914                   22092418.3204
 11  8 15  3 13 30.0000000  0  8G25G12G26G05G15G29G21G02
 -12629880.26648  -9811654.73446  21777618.9224                   21777619.5274
 -17119842.27347 -13305907.73445  22463557.2734                   22463555.0314
  -2900648.46547  -2235707.40245  22336163.3444                   22336162.3594
 -22749841.70348 -17689531.32846  20859170.9384                   20859168.6294
   4671262.98447   3665751.90644  23177377.0004                   23177375.5044
  -9931757.52748  -7703909.30546  21327896.3444                   21327894.6564
  11263422.22746   8795762.97743  24703287.3134                   24703287.8134
 -28216810.37548 -21977035.23045  22094849.0474                   22094844.7624
 11  8 15  3 14  0.0000000  0  8G25G12G26G05G15G29G21G02
 -12621315.61748  -9804980.98446  21779248.9224                   21779249.5164
 -17065468.26647 -13263538.38745  22473904.4144                   22473902.3364
  -3014739.51247  -2324609.53545  22314453.0164                   22314451.5664
 -22724334.50848 -17669655.58246  20864024.8054                   20864022.2034
   4542255.24647   3565226.42644  23152827.2274                   23152826.2154
 -10034007.55948  -7783584.60246  21308438.8914                   21308437.0004
  11173162.99246   8725431.17643  24686112.2274                   24686112.1374
 -28203953.96548 -21967017.23845  22097295.2584                   22097291.4884
 11  8 15  3 14 30.0000000  0  8G25G12G26G05G15G29G21G02
 -12612276.57848  -9797937.57846  21780968.8054                   21780969.1604
 -17010882.05147 -13221003.69545  22484291.7734                   22484289.5234
  -3128496.88747  -2413251.68045  22292805.1884                   22292804.2194
 -22698460.49248 -17649494.00446  20868948.4694                   20868946.2464
   4413325.83647   3464761.99644  23128293.1024                   23128291.6644
 -10136011.33648  -7863068.02746  21289027.9454                   21289026.2854
  11082900.41046   8655096.79343  24668936.2974                   24668935.5164
 -28191000.25447 -21956923.43445  22099760.0084                   22099756.2424
 11  8 15  3 15  0.0000000  0  8G25G12G26G05G15G29G21G02
 -12602751.28948  -9790515.27346  21782781.7734                   21782781.8914
 -16956072.62947 -13178295.07445  22494721.3444                   22494719.7274
  -3241903.16447  -2501620.19945  22271224.4144                   22271223.9884
 -22672208.13348 -17629037.62146  20873943.8754                   20873941.6094
   4284491.76647   3364371.84044  23103776.5864                   23103775.0124
 -10237752.19948  -7942346.56646  21269667.1804                   21269665.5704
  10992648.18046   8584770.46543  24651761.5394                   24651761.2624
 -28177934.86747 -21946742.59845  22102246.4384                   22102242.2344
 11  8 15  3 15 30.0000000  0  8G25G12G26G05G15G29G21G02
 -12592743.36348  -9782716.89546  21784685.9304                   21784686.0394
 -16901044.57447 -13135416.09445  22505193.3594                   22505191.0864
  -3354955.76647  -2589713.14145  22249711.6644                   22249710.7464
 -22645581.29748 -17608289.42246  20879010.8984                   20879008.6524
   4155754.65247   3264057.26245  23079279.3134                   23079277.2814
 -10339229.18448  -8021419.49646  21250356.3594                   21250355.0164
  10902404.46546   8514450.79343  24634588.0864                   24634588.4064
 -28164759.10248 -21936475.74645  22104753.4534                   22104749.5314
 11  8 15  3 16  0.0000000  0  8G25G12G26G05G15G29G21G02
 -11006837.34048  -8546945.97346  22086473.9774                   22086474.2704
 -15270384.66847 -11864772.03545  22815497.3204                   22815495.3204
  -1892229.40247  -1449926.34845  22528059.2034                   22528058.1024
 -21043165.38348 -16359653.64546  21183940.7734                   21183938.4224
   5602539.96147   4391422.47744  23354592.7034                   23354591.0554
  -8865018.85548  -6872684.12546  21530890.0164                   21530888.0704
  12387589.35946   9671737.82443  24917210.4144                   24917209.9024
 -26576054.57447 -20698524.17245  22407074.4384                   22407070.2154
 11  8 15  3 16 30.0000000  0  8G25G12G26G05G15G29G21G02
 -10995896.58648  -8538420.71546  22088555.5864                   22088555.8554
 -15214953.87547 -11821579.23445  22826045.3914                   22826043.4884
  -2004589.90647  -1537479.96145  22506677.8834                   22506676.0824
 -21015822.32448 -16338347.35946  21189143.7734                   21189141.5864
   5473980.22347   4291246.09844  23330129.0234                   23330126.8594
  -8965987.02748  -6951360.57446  21511676.0394                   21511674.4964
  12297334.99246   9601409.82843  24900034.7274                   24900035.2114
 -26562682.00848 -20688103.98045  22409619.2194                   22409614.6994
 11  8 15  3 17  0.0000000  0  8G25G12G26G05G15G29G21G02
 -10984490.31248  -8529532.72346  22090726.1564                   22090726.6254
 -15159323.87547 -11778231.21545  22836630.8984                   22836629.4064
  -2116596.14147  -1624757.50845  22485363.2344                   22485362.3674
 -20988122.34048 -16316762.94946  21194415.1174                   21194412.6564
   5345516.09447   4191144.23844  23305682.5314                   23305681.5044
  -9066694.66448  -7029834.02046  21492512.0634                   21492510.1454
  12207077.18046   9531079.15643  24882859.5164                   24882859.4924
 -26549208.29748 -20677604.98845  22412182.7194                   22412178.4774
 11  8 15  3 17 30.0000000  0  8G25G12G26G05G15G29G21G02
 -10972619.98048  -8520283.11346  22092985.2734                   22092985.5354
 -15103496.83247 -11734729.64145  22847254.7734                   22847253.1174
  -2228243.83247  -1711755.67645  22464117.6644                   22464116.8364
 -20960066.98448 -16294901.62546  21199753.7734                   21199751.3484
   5217151.77047   4091120.14544  23281255.6884                   23281254.2974
  -9167138.68048  -7108102.03946  21473398.0704                   21473396.2304
  12116816.21946   9460746.05543  24865683.6174                   24865682.8444
 -26535632.35948 -20667026.32845  22414766.2664                   22414762.2274
 11  8 15  3 18  0.0000000  0  8G25G12G26G05G15G29G21G02
 -10960276.27748  -8510664.64846  22095334.1174                   22095334.5044
 -15047464.24247 -11691067.90645  22857917.4064                   22857915.9924
  -2339517.78947  -1798462.60245  22442942.7814                   22442941.5164
 -20931646.99648 -16272756.18046  21205161.6724                   21205159.4964
   5088901.93847   3991185.25444  23256850.9144                   23256849.1764
  -9267305.07848  -7186153.74246  21454337.1024                   21454335.2544
  12026563.32046   9390419.18443  24848509.0704                   24848508.1644
 -26521942.06648 -20656358.55945  22417371.5634                   22417367.6844
 11  8 15  3 18 30.0000000  0  8G25G12G26G05G15G29G21G02
 -10947474.21948  -8500689.02046  22097770.1334                   22097770.6994
 -14991241.76247 -11647258.18745  22868616.2584                   22868614.1524
  -2450426.88347  -1884885.21945  22421837.6724                   22421836.2664
 -20902877.36348 -16250338.27746  21210636.5554                   21210634.1724
   4960756.80147   3891331.96145  23232465.2194                   23232463.7734
  -9367204.08248  -7263997.08646  21435326.8134                   21435325.1054
  11936305.29346   9320088.36743  24831333.1884                   24831332.5164
 -26508150.02348 -20645611.50445  22419996.2504                   22419991.8634
 11  8 15  3 19  0.0000000  0  8G25G12G26G05G15G29G21G02
 -10934204.39848  -8490348.89846  22100295.2664                   22100295.8054
 -14934820.82847 -11603293.83645  22879352.7194                   22879351.2704
  -2560955.93747  -1971011.69145  22400804.5554                   22400803.5664
 -20873748.89848 -16227640.77046  21216179.2584                   21216177.2544
   4832731.29347   3791571.87145  23208103.3204                   23208101.3204
  -9466821.52748  -7341621.03546  21416370.2344                   21416368.6564
  11846053.52046   9249762.43443  24814158.6254                   24814157.7774
 -26494244.12548 -20634775.72745  22422642.3834                   22422638.2854
 11  8 15  3 19 30.0000000  0  8G25G12G26G05G15G29G21G02
 -10920485.39548  -8479658.77346  22102905.7344                   22102906.2974
 -14878220.59847 -11559189.77045  22890123.7194                   22890121.7154
  -2671117.56647  -2056851.87545  22379841.3914                   22379839.9024
 -20844280.42248 -16204678.30546  21221787.1174                   21221784.6294
   4704812.20747   3691894.71145  23183760.8134                   23183759.1454
  -9566171.39848  -7419036.48846  21397464.7814                   21397462.6564
  11755791.07246   9179428.11543  24796982.3594                   24796980.7464
 -26480240.28548 -20623863.63745  22425307.1884                   22425303.2304
 11  8 15  3 20  0.0000000  0  8G25G12G26G05G15G29G21G02
 -10906310.57848  -8468613.46946  22105603.0944                   22105603.6524
 -14821435.12147 -11514941.34845  22900929.6804                   22900927.5004
  -2780898.98847  -2142395.78945  22358950.5394                   22358949.6294
 -20814464.89148 -16181445.41446  21227461.1094                   21227458.4734
   4577011.82447   3592310.04745  23159441.6484                   23159439.4144
  -9665242.27048  -7496234.53546  21378612.2274                   21378610.2384
  11665526.62946   9109092.32842  24779804.8134                   24779804.6454
 -26466129.09047 -20612867.88745  22427992.8134                   22427988.3134
 11  8 15  3 20 30.0000000  0  8G25G12G26G05G15G29G21G02
 -10891667.02348  -8457202.91446  22108389.9384                   22108390.5434
 -14764452.22747 -11470539.10245  22911773.0704                   22911770.9184
  -2890281.39847  -2227628.77745  22338136.0474                   22338134.4144
 -20784289.73848 -16157932.30546  21233202.9384                   21233200.8554
   4449348.44147   3492832.14145  23135147.6334                   23135145.8134
  -9764016.50848  -7573201.45346  21359816.1174                   21359814.1094
  11575275.15246   9038766.59843  24762631.6174                   24762630.2304
 -26451894.75448 -20601776.19145  22430701.3674                   22430697.2854
 11  8 15  3 21  0.0000000  0  8G25G12G26G05G15G29G21G02
 -10876586.32448  -8445451.72346  22111259.8444                   22111260.0474
 -14707304.26647 -11426008.23045  22922648.0704                   22922646.0234
  -2999290.35547  -2312570.76245  22317392.3204                   22317391.0044
 -20753786.49648 -16134163.53146  21239007.4844                   21239004.8054
   4321796.06647   3393440.74245  23110875.2584                   23110873.4304
  -9862520.70348  -7649957.93446  21341071.7664                   21341069.3404
  11485006.82846   8968427.71143  24745453.7034                   24745452.4224
 -26437566.39848 -20590611.23445  22433427.4774                   22433423.4614
 11  8 15  3 21 30.0000000  0  8G25G12G26G05G15G29G21G02
 -10861065.64148  -8433357.69146  22114213.3674                   22114213.8284
 -14649988.84447 -11381346.85945  22933554.9844                   22933552.5784
  -3107916.86747  -2397214.75045  22296721.2664                   22296720.1414
 -20722952.46948 -16110137.00446  21244875.1954                   21244872.9104
   4194363.07047   3294142.36345  23086625.3364                   23086623.1884
  -9960747.38348  -7726498.18446  21322379.0704                   21322377.2234
  11394726.60246   8898079.60543  24728273.4304                   24728272.7734
 -26423138.21147 -20579368.48445  22436173.2894                   22436169.2424
 11  8 15  3 22  0.0000000  0  8G25G12G26G05G15G29G21G02
 -10845103.03948  -8420919.30146  22117250.8204                   22117251.2304
 -14592504.61347 -11336553.96945  22944493.8364                   22944492.1134
  -3216153.28147  -2481554.75045  22276124.1954                   22276123.1884
 -20691785.43748 -16085850.99646  21250806.1024                   21250803.5124
   4067056.82047   3194942.74245  23062399.8524                   23062397.7504
 -10058689.85948  -7802816.96946  21303741.5234                   21303739.2304
  11304438.50446   8827725.34843  24711092.0004                   24711090.6484
 -26408605.84048 -20568044.53945  22438938.8134                   22438934.6684
 11  8 15  3 22 30.0000000  0  8G25G12G26G05G15G29G21G02
 -10828696.40648  -8408134.92246  22120373.0784                   22120373.7464
 -14534850.18047 -11291628.45345  22955465.4064                   22955463.2894
  -3323991.15247  -2565584.19945  22255603.4614                   22255602.1644
 -20660283.37148 -16061303.92246  21256800.6334                   21256797.8714
   3939885.07447   3095847.93044  23038199.7974                   23038197.8324
 -10156341.05148  -7878908.77346  21285158.9774                   21285156.8834
  11214146.50846   8757368.05143  24693910.2504                   24693909.1374
 -26393964.18047 -20556635.43745  22441724.8754                   22441720.9844
 11  8 15  3 23  0.0000000  0  9G18G25G12G26G05G15G29G21G02
  15575364.89856  12160272.04752  24726303.5234                   24726302.2384
 -10811847.59048  -8395005.98046  22123579.0784                   22123579.8054
 -14477027.83647 -11246572.09445  22966467.7584                   22966466.0234
  -3431426.59847  -2649300.07045  22235159.1484                   22235157.8554
 -20628448.16048 -16036497.25046  21262858.3984                   21262856.1764
   3812851.44147   2996860.74245  23014025.9064                   23014023.8094
 -10253698.09848  -7954771.37146  21266632.8754                   21266630.6374
  11123850.37146   8687007.51243  24676727.8984                   24676726.1994
 -26379212.14847 -20545140.32045  22444531.9454                   22444528.1484
 11  8 15  3 23 30.0000000  0  9G18G25G12G26G05G15G29G21G02
  15452728.24646  12064711.04742  24702966.3914                   24702965.9414
 -10794567.72347  -8381541.14846  22126867.2344                   22126868.1214
 -14419049.05547 -11201393.84045  22977500.5394                   22977499.6564
  -3538464.62147  -2732706.27745  22214790.4224                   22214788.9964
 -20596290.83248 -16011439.59446  21268977.8674                   21268975.8094
   3685950.50047   2897976.95745  22989877.3284                   22989875.0164
 -10350767.18748  -8030409.59046  21248160.8914                   21248158.8054
  11033541.29746   8616636.90643  24659541.8834                   24659540.0434
 -26364358.08647 -20533565.70745  22447358.9844                   22447355.0474
 11  8 15  3 24  0.0000000  0  9G18G25G12G26G05G15G29G21G02
  15330249.53946  11969273.16442  24679659.1724                   24679659.1644
 -10776865.48048  -8367747.20346  22130236.1414                   22130236.8404
 -14360923.44547 -11156101.18745  22988562.2034                   22988560.4414
  -3645107.74647  -2815804.77045  22194497.0234                   22194495.2384
 -20563820.24248 -15986137.83246  21275156.7424                   21275154.4614
   3559179.29347   2799194.25444  22965753.1024                   22965751.6334
 -10447552.01648  -8105826.31246  21229743.3914                   21229741.4344
  10943212.68446   8546251.07443  24642352.8204                   24642351.2074
 -26349407.98047 -20521916.27045  22450203.2664                   22450199.1844
 11  8 15  3 24 30.0000000  0  9G18G25G12G26G05G15G29G21G02
  15207952.91846  11873977.12942  24656387.5704                   24656387.0514
 -10758721.14848  -8353608.78146  22133688.8204                   22133689.3954
 -14302631.85947 -11110679.19545  22999654.4304                   22999652.6954
  -3751330.22347  -2898575.48445  22174283.3204                   22174281.7974
 -20531016.24648 -15960576.26646  21281399.0554                   21281396.9494
   3432562.82447   2700532.12544  22941659.0004                   22941657.1764
 -10544027.88348  -8181002.27346  21211384.9454                   21211382.4964
  10852886.46746   8475867.11343  24625164.6804                   24625163.0594
 -26334339.07847 -20510174.25845  22453070.9534                   22453067.0784
 11  8 15  3 25  0.0000000  0  9G18G25G12G26G05G15G29G21G02
  15085824.25046  11778812.00043  24633146.0634                   24633146.5124
 -10740151.71948  -8339139.10546  22137222.2974                   22137223.4184
 -14244191.78147 -11065141.48445  23010775.4304                   23010773.8164
  -3857143.16048  -2981027.07445  22154147.7734                   22154146.0664
 -20497895.80148 -15934768.12546  21287701.6804                   21287699.3444
   3306090.06647   2601981.97344  22917591.9774                   22917590.2664
 -10640207.23048  -8255947.18746  21193082.3674                   21193080.6254
  10762547.75446   8405473.39543  24607974.0004                   24607971.5554
 -26319165.52747 -20498350.71545  22455958.3204                   22455954.2194
 11  8 15  3 25 30.0000000  0  9G18G25G12G26G05G15G29G21G02
  14963859.17246  11683774.34043  24609937.2664                   24609937.0824
 -10721165.94148  -8324345.00046  22140835.3054                   22140836.0824
 -14185612.18447 -11019495.06645  23021922.5944                   23021920.8954
  -3962548.94148  -3063161.39145  22134089.9924                   22134088.3054
 -20464467.53148 -15908720.12146  21294062.8284                   21294060.8244
   3179757.66447   2503541.18044  22893552.4064                   22893550.1884
 -10736093.79748  -8330663.95346  21174835.4844                   21174833.4774
  10672189.69546   8335064.61343  24590778.7734                   24590777.3014
 -26303893.28947 -20486450.26245  22458864.7114                   22458860.2154
 11  8 15  3 26  0.0000000  0  9G18G25G12G26G05G15G29G21G02
  14842065.63346  11588870.35243  24586761.0164                   24586760.3164
 -10701759.93448  -8309223.44946  22144527.8674                   22144528.6174
 -14126889.98447 -10973737.53545  23033097.3284                   23033095.0744
  -4067537.85548  -3144970.88345  22114110.8594                   22114109.2304
 -20430727.65648 -15882429.30546  21300483.3754                   21300480.9304
   3053575.53147   2405217.49245  22869540.5864                   22869538.1094
 -10831678.52348  -8405145.51646  21156646.3754                   21156644.4844
  10581818.25046   8264645.43043  24573582.2974                   24573580.7384
 -26288515.52347 -20474467.59445  22461790.8204                   22461786.8674
 11  8 15  3 26 30.0000000  0  9G18G25G12G26G05G15G29G21G02
  14720446.51646  11494102.25043  24563617.0944                   24563616.8244
 -10681934.52048  -8293775.09446  22148300.9144                   22148301.5944
 -14068026.42247 -10927869.82845  23044298.6564                   23044296.8484
  -4172104.60948  -3226451.41045  22094212.3204                   22094211.1174
 -20396676.76648 -15855896.14146  21306963.3284                   21306960.9494
   2927548.47747   2307014.64845  22845557.9454                   22845556.0984
 -10926957.45748  -8479388.80146  21138515.4844                   21138513.2344
  10491435.09446   8194217.10943  24556382.7664                   24556380.6844
 -26273030.01247 -20462400.97345  22464737.5004                   22464733.7034
 11  8 15  3 27  0.0000000  0  9G18G25G12G26G05G15G29G21G02
  14599014.59846  11399480.01243  24540509.6484                   24540508.9024
 -10661680.44948  -8277992.69946  22152154.9304                   22152155.6804
 -14009012.41447 -10881884.90645  23055528.8834                   23055526.6134
  -4276233.78147  -3307590.96945  22074397.0704                   22074395.9494
 -20362305.50448 -15829113.34846  21313503.9694                   21313501.5594
   2801691.44147   2208944.26645  22821608.2814                   22821606.2234
 -11021916.23448  -8553382.62546  21120445.4694                   21120443.1414
  10401051.12546   8123788.14143  24539183.0234                   24539181.3754
 -26257424.72747 -20450241.02745  22467707.4534                   22467703.2894
 11  8 15  3 27 30.0000000  0  9G18G25G12G26G05G15G29G21G02
  14477756.35546  11304993.10943  24517435.4064                   24517434.2664
 -10641015.53548  -8261890.18446  22156087.6024                   22156088.0274
 -13949866.57847 -10835797.23845  23066784.0864                   23066781.8324
  -4379937.35248  -3388398.89845  22054663.5234                   22054661.5784
 -20327631.55148 -15802094.69146  21320102.2344                   21320099.5824
   2675992.30147   2110996.93045  22797688.6094                   22797686.7194
 -11116567.71148  -8627136.97746  21102434.0004                   21102431.5274
  10310651.07046   8053346.64143  24521980.9384                   24521978.2504
 -26241714.27347 -20437999.10945  22470696.7894                   22470692.8754
 11  8 15  3 28  0.0000000  0  9G18G25G12G26G05G15G29G21G02
  14356674.62546  11210643.75443  24494393.6884                   24494393.4064
 -10619940.67648  -8245468.20346  22160097.7194                   22160098.6454
 -13890590.25847 -10789607.87144  23078063.6564                   23078060.9574
  -4483209.90648  -3468870.96145  22035010.9924                   22035009.8984
 -20292655.28548 -15774840.45346  21326757.7504                   21326755.4924
   2550455.81347   2013176.36745  22773799.2034                   22773797.7194
 -11210908.02348  -8700648.86346  21084481.6024                   21084479.2854
  10220236.06347   7982893.52043  24504775.0864                   24504772.9804
 -26225896.75447 -20425673.77745  22473707.1564                   22473702.8134
 11  8 15  3 28 30.0000000  0  9G18G25G12G26G05G15G29G21G02
  14235773.65646  11116435.26643  24471387.3054                   24471385.9804
 -10598455.44948  -8228726.49646  22164186.2424                   22164187.0824
 -13831183.16847 -10743316.64144  23089368.5784                   23089366.2304
  -4586045.13347  -3549002.26245  22015442.0164                   22015440.6214
 -20257376.40648 -15747350.43046  21333471.2894                   21333468.7114
   2425088.53147   1915487.63745  22749943.1954                   22749941.4534
 -11304931.77348  -8773914.08646  21066589.3914                   21066587.1454
  10129808.59447   7912430.62143  24487566.7584                   24487565.5474
 -26209968.66047 -20413262.29745  22476737.8594                   22476734.0904
 11  8 15  3 29  0.0000000  0  9G18G25G12G26G05G15G29G21G02
  14115061.72346  11022374.04743  24448415.8054                   24448415.8054
 -10576555.85548  -8211661.88346  22168353.5554                   22168354.7274
 -13771641.94147 -10696920.88744  23100698.9694                   23100696.5004
  -4688432.73047  -3628784.75045  21995958.6334                   21995956.7304
 -20221790.69948 -15719621.31646  21340243.0394                   21340240.7464
   2299899.85247   1817938.09045  22726120.4614                   22726118.6454
 -11398629.76648  -8846925.48046  21048759.1094                   21048756.4104
  10039375.12146   7841963.09843  24470357.4694                   24470356.1094
 -26193922.81247 -20400759.06645  22479791.5784                   22479787.5744
 11  8 15  3 29 30.0000000  0  9G18G25G12G26G05G15G29G21G02
  13994537.96546  10928459.50443  24425481.0634                   24425480.5904
 -10554246.10948  -8194277.67646  22172599.0314                   22172599.6684
 -13711970.84447 -10650423.93745  23112053.5944                   23112051.9064
  -4790370.88747  -3708217.03145  21976560.0164                   21976558.6844
 -20185902.23448 -15691656.28546  21347072.4454                   21347069.9844
   2174891.30547   1720528.89845  22702331.9614                   22702330.0944
 -11492001.26248  -8919682.44946  21030990.8674                   21030988.6604
   9948933.71546   7771489.37943  24453147.1564                   24453145.5944
 -26177760.53547 -20388165.10545  22482867.4844                   22482863.6484
 11  8 15  3 30  0.0000000  0  9G18G25G12G26G05G15G29G21G02
  13874201.25846  10834690.64543  24402582.2274                   24402580.7934
 -10531531.75048  -8176578.18746  22176921.6414                   22176922.1724
 -13652175.98047 -10603830.57444  23123432.3134                   23123430.6454
  -4891859.16048  -3787298.77345  21957247.4924                   21957246.1214
 -20149716.14548 -15663459.33246  21353958.2504                   21353955.8594
   2050063.21547   1623260.28945  22678578.0084                   22678575.8204
 -11585046.22748  -8992184.98446  21013284.8524                   21013282.8164
   9858481.19146   7701007.00443  24435935.2894                   24435933.5864
 -26161484.43747 -20375482.44945  22485964.5234                   22485960.3404
 11  8 15  3 30 30.0000000  0  9G18G25G12G26G05G15G29G21G02
  13754059.30146  10741073.62942  24379719.3444                   24379718.9264
 -10508408.85248  -8158560.34446  22181321.7894                   22181322.7034
 -13592253.71947 -10557137.92644  23134834.6254                   23134832.9734
  -4992887.34447  -3866021.97745  21938022.6254                   21938021.2194
 -20113228.40248 -15635027.33246  21360901.6644                   21360899.4494
   1925425.51247   1526140.00045  22654860.0864                   22654858.1994
 -11677756.62148  -9064426.81246  20995642.8134                   20995640.5394
   9768023.53946   7630520.61743  24418721.3204                   24418719.3244
 -26145087.46147 -20362705.60545  22489084.5234                   22489080.1884
 11  8 15  3 31  0.0000000  0  9G18G25G12G26G05G15G29G21G02
  13634104.61346  10647602.57042  24356891.8524                   24356892.5354
 -10484888.42648  -8140232.75046  22185797.7584                   22185798.0434
 -13532215.71147 -10510355.08645  23146260.2974                   23146258.3204
  -5093460.42647  -3944390.53545  21918883.7424                   21918882.4734
 -20076449.65648 -15606368.57046  21367900.1414                   21367897.9694
   1800972.84447   1429163.84445  22631177.3754                   22631175.5704
 -11770137.98848  -9136412.25046  20978063.3524                   20978060.9534
   9677552.10546   7560023.49243  24401504.8444                   24401503.0664
 -26128577.40647 -20349840.65645  22492226.2894                   22492222.4414
 11  8 15  3 31 30.0000000  0  9G18G25G12G26G05G15G29G21G02
  13514320.91446  10554264.72742  24334098.3444                   24334099.1024
 -10460990.85248  -8121611.27745  22190344.7664                   22190345.9884
 -13472082.24647 -10463497.86745  23157702.9694                   23157701.2504
  -5193592.77048  -4022415.70345  21899829.9384                   21899827.8674
 -20039400.05948 -15577498.75846  21374951.1484                   21374948.5004
   1676690.69147   1332320.51645  22607527.4614                   22607525.5634
 -11862205.59048  -9208153.21546  20960543.2344                   20960541.4614
   9587048.71146   7489501.48843  24384282.2344                   24384280.7034
 -26111971.72747 -20336901.20745  22495386.1724                   22495381.9384
 11  8 15  3 32  0.0000000  0  9G18G25G12G26G05G15G29G21G02
  13394719.28946  10461068.70743  24311338.8524                   24311339.1764
 -10436709.06648  -8102690.39846  22194966.0704                   22194966.2464
 -13411846.67247 -10416561.07845  23169165.7664                   23169163.9104
  -5293271.14148  -4100087.08245  21880860.9304                   21880859.9414
 -20002072.27748 -15548412.17646  21382054.0314                   21382051.7734
   1552591.95347   1235620.11345  22583912.2424                   22583910.1684
 -11953947.25448  -9279640.18746  20943085.7034                   20943083.1954
   9496523.13346   7418962.17643  24367055.4384                   24367054.2194
 -26095259.97347 -20323879.09045  22498566.4534                   22498562.5124
 11  8 15  3 32 30.0000000  0  9G18G25G12G26G05G15G29G21G02
  13275311.31346  10368023.58243  24288616.3134                   24288616.3754
 -10412035.34448  -8083464.12146  22199660.8674                   22199661.5204
 -13351501.61747 -10369538.97745  23180649.2424                   23180647.1724
  -5392481.71947  -4177393.96545  21861981.8754                   21861980.1684
 -19964458.35548 -15519102.62946  21389211.5944                   21389209.0704
   1428690.43047   1139073.36745  22560334.6484                   22560332.7624
 -12045350.30948  -9350863.31246  20925691.9924                   20925689.5124
   9405985.07046   7348413.14143  24349827.6954                   24349825.1764
 -26078431.70347 -20310766.19145  22501768.9064                   22501764.8094
 11  8 15  3 33  0.0000000  0  9G18G25G12G26G05G15G29G21G02
  13156096.48846  10275129.01643  24265930.9534                   24265930.5944
 -10386974.26648  -8063936.02345  22204430.1024                   22204430.7664
 -13291051.96547 -10322435.36745  23192152.4384                   23192150.5044
  -5491223.27047  -4254335.35545  21843192.0704                   21843190.5204
 -19926562.46548 -15489573.35946  21396422.8594                   21396420.3554
   1304987.23047   1042681.18045  22536794.9844                   22536792.9534
 -12136414.04348  -9421822.03946  20908363.0704                   20908360.6684
   9315432.36746   7277852.72343  24332595.5164                   24332593.8834
 -26061488.09847 -20297563.40245  22504993.0164                   22504989.5354
 11  8 15  3 33 30.0000000  0  9G18G25G12G26G05G15G29G21G02
  13037079.57846  10182388.66443  24243282.9144                   24243281.7584
 -10361525.07848  -8044105.48845  22209272.9454                   22209273.2154
 -13230497.19947 -10275249.85245  23203675.3204                   23203673.5394
  -5589488.78547  -4330905.80545  21824492.9534                   21824491.2894
 -19888383.74648 -15459823.70746  21403688.1174                   21403685.8014
   1181489.16047    946448.82445  22513293.9144                   22513292.0594
 -12227132.50848  -9492511.71546  20891100.0474                   20891097.8914
   9224868.07846   7207283.20743  24315361.0704                   24315360.0704
 -26044425.34847 -20284267.79345  22508240.6414                   22508236.0204
 11  8 15  3 34  0.0000000  0  9G18G25G12G26G05G15G29G21G02
  12918250.03147  10089794.32843  24220670.1804                   24220669.2194
 -10335701.91448  -8023983.55945  22214186.6564                   22214187.6054
 -13169851.76247 -10227993.69145  23215215.5554                   23215214.1174
  -5687286.40247  -4407111.64845  21805882.4144                   21805880.4694
 -19849935.78548 -15429864.26246  21411004.1564                   21411002.1374
   1058187.94547    850369.86345  22489830.8524                   22489828.6764
 -12317514.71948  -9562939.38346  20873901.0234                   20873898.3914
   9134280.43046   7136695.58243  24298123.2974                   24298121.8634
 -26027254.37547 -20270887.84445  22511507.8444                   22511503.6564
 11  8 15  3 34 30.0000000  0  9G18G25G12G26G05G15G29G21G02
  12799618.90646   9997354.56643  24198095.3524                   24198094.3484
 -10309497.82048  -8003564.79745  22219173.0634                   22219173.9774
 -13109108.56247 -10180661.33644  23226774.6954                   23226773.4104
  -5784602.77347  -4482942.49645  21787363.6024                   21787361.7894
 -19811211.22348 -15399689.28546  21418373.6484                   21418371.1414
    935096.61747    754454.52345  22466407.1334                   22466405.3524
 -12407549.18448  -9633096.08246  20856768.0944                   20856765.5944
   9043679.03546   7066097.20343  24280881.9774                   24280880.2034
 -26009965.10947 -20257415.71545  22514797.5554                   22514793.7154
 11  8 15  3 35  0.0000000  0  9G18G25G12G26G05G15G29G21G02
  12681181.54346   9905065.81343  24175557.3674                   24175556.1604
 -10282921.30547  -7982855.84445  22224230.4844                   22224231.1294
 -13048276.57047 -10133259.82044  23238350.8754                   23238349.1334
  -5881440.66447  -4558400.50845  21768935.8594                   21768934.1914
 -19772218.39548 -15369305.26246  21425793.4924                   21425790.9654
    812212.39147    658700.59845  22443022.9774                   22443020.9024
 -12497238.87148  -9702984.12146  20839700.1254                   20839698.3164
   8953057.46546   6995483.09443  24263638.0084                   24263635.4804
 -25992562.53547 -20243855.30545  22518109.0554                   22518105.5124
 11  8 15  3 35 30.0000000  0  9G18G25G12G26G05G15G29G21G02
  12562935.30546   9812925.97743  24153056.0784                   24153054.6134
 -10255979.16047  -7961861.97745  22229357.6644                   22229358.1684
 -12987362.81247 -10085794.57044  23249942.0704                   23249939.9614
  -5977800.57447  -4633486.05945  21750599.2894                   21750597.3594
 -19732963.52748 -15338717.05546  21433263.2114                   21433261.3094
    689534.64547    563107.66445  22419677.7274                   22419676.2384
 -12586585.44148  -9772604.80946  20822698.0704                   20822695.6724
   8862412.00847   6924850.37943  24246388.3284                   24246386.1564
 -25975050.59447 -20230209.65645  22521442.2344                   22521438.0274
 11  8 15  3 36  0.0000000  0  9G18G25G12G26G05G15G29G21G02
  12444891.53146   9720943.91443  24130593.0554                   24130591.7664
 -10228663.81647  -7940577.29745  22234555.4694                   22234556.0864
 -12926360.09847 -10038260.01244  23261550.5634                   23261548.9224
  -6073668.89847  -4708188.57445  21732356.1024                   21732354.2304
 -19693438.96148 -15307918.69146  21440785.0084                   21440782.5124
    567076.81647    467686.09045  22396375.1644                   22396373.3754
 -12675576.08648  -9841948.14146  20805763.8284                   20805761.7774
   8771751.91446   6854206.25043  24229135.7424                   24229133.8594
 -25957418.49247 -20216470.39545  22524797.1884                   22524793.1054
 11  8 15  3 36 30.0000000  0  9G18G25G12G26G05G15G29G21G02
  12327046.90646   9629117.02743  24108167.6484                   24108166.7194
 -10200982.29748  -7919007.29345  22239822.8984                   22239823.3674
 -12865275.26247  -9990661.46944  23273175.0634                   23273172.8714
  -6169046.71147  -4782508.85245  21714205.9384                   21714204.2734
 -19653651.37948 -15276915.37146  21448356.4534                   21448354.1334
    444837.69547    372434.91845  22373113.8364                   22373112.1954
 -12764213.00448  -9911015.85546  20788896.9454                   20788894.4144
   8681073.03146   6783547.49643  24211879.8204                   24211878.7464
 -25939669.90247 -20202640.36345  22528174.3914                   22528170.2774
 11  8 15  3 37  0.0000000  0  9G18G25G12G26G05G15G29G21G02
  12209396.67246   9537441.59043  24085778.7584                   24085777.9694
 -10172943.64548  -7897159.00845  22245158.8914                   22245159.3204
 -12804117.91447  -9943006.42244  23284812.5234                   23284810.7034
  -6263937.02747  -4856449.26645  21696149.0784                   21696146.9494
 -19613608.99248 -15245713.50446  21455975.9694                   21455973.8874
    322814.14847    277351.72745  22349893.7424                   22349891.5554
 -12852499.78948  -9979810.73446  20772096.5474                   20772094.2194
   8590368.29747   6712868.57843  24194619.4384                   24194617.7894
 -25921810.83647 -20188724.25845  22531572.9924                   22531569.2114
 11  8 15  3 37 30.0000000  0  9G18G25G12G26G05G15G29G21G02
  12091954.52046   9445928.31643  24063430.5394                   24063429.5594
 -10144538.09447  -7875024.82445  22250564.0704                   22250564.9064
 -12742877.89847  -9895286.93044  23296466.0944                   23296464.5164
  -6358323.97747  -4929997.46145  21678187.2034                   21678185.9414
 -19573301.88348 -15214305.37146  21463645.8914                   21463643.7504
    201021.63347    182448.54345  22326717.1724                   22326715.1174
 -12940421.39848 -10048321.06646  20755365.5944                   20755362.9964
   8499650.41446   6642179.40643  24177356.3914                   24177354.7584
 -25903827.85947 -20174711.56245  22534995.3444                   22534991.2464
 11  8 15  3 38  0.0000000  0  9G18G25G12G26G05G15G29G21G02
  11974715.30546   9354573.18843  24041120.5474                   24041119.9574
 -10115775.23847  -7852612.22745  22256037.2344                   22256038.7424
 -12681565.44147  -9847511.00444  23308134.0864                   23308132.0744
  -6452211.00847  -5003156.10245  21660321.6174                   21660320.0434
 -19532739.05148 -15182697.96546  21471365.3834                   21471362.5514
     79456.84847     87722.78945  22303583.7424                   22303582.3674
 -13027982.49648 -10116550.47746  20738703.2034                   20738700.8014
   8408912.39847   6571474.55943  24160089.6484                   24160087.7154
 -25885727.59447 -20160607.48445  22538439.3364                   22538435.5394
 11  8 15  3 38 30.0000000  0  9G18G25G12G26G05G15G29G21G02
  11857671.86746   9263370.59443  24018847.6414                   24018847.1954
 -10086665.27747  -7829929.14545  22261576.9534                   22261577.3914
 -12620190.77347  -9799686.59844  23319813.1094                   23319811.4024
  -6545602.40647  -5075928.53545  21642549.6334                   21642547.8714
 -19491930.41448 -15150899.02346  21479130.6334                   21479127.8444
    -41884.29747     -6828.71945  22280493.9534                   22280491.4344
 -13115188.22348 -10184502.97746  20722108.3134                   20722106.1174
   8318146.21546   6500747.75843  24142816.9454                   24142815.9414
 -25867517.05147 -20146417.50445  22541904.8984                   22541900.9574
 11  8 15  3 39  0.0000000  0  9G18G25G12G26G05G15G29G21G02
  11740830.52346   9172325.46943  23996613.8054                   23996613.1414
 -10057206.09447  -7806973.95345  22267183.1484                   22267183.7814
 -12558751.69947  -9751812.00845  23331504.8674                   23331502.8634
  -6638489.96147  -5148308.36745  21624874.0084                   21624871.8674
 -19450873.40648 -15118906.53946  21486943.6564                   21486941.0314
   -162993.48847   -101199.51645  22257447.3984                   22257445.0864
 -13202030.96148 -10252172.62146  20705582.8674                   20705580.3714
   8227356.79746   6430002.85943  24125540.4454                   24125538.8674
 -25849190.55547 -20132137.13745  22545392.1884                   22545388.5004
 11  8 15  3 39 30.0000000  0  9G18G25G12G26G05G15G29G21G02
  13199621.91846  10309046.11743  24274212.4384                   24274212.0004
  -8451976.03947  -6556145.34445  22572648.0314                   22572648.9104
 -10921827.71547  -8476286.84845  23643001.0394                   23642999.2894
  -5155441.92647  -3992686.45745  21907088.5394                   21907086.1254
 -17834146.23048 -13859119.13346  21794596.6094                   21794593.9884
   1291561.57447   1032220.00445  22534239.8914                   22534238.0274
 -11713080.03948  -9091951.10546  20988920.9614                   20988918.3364
   9711972.33646   7586846.22743  24408053.2814                   24408051.8054
 -24255322.92247 -18890162.39145  22848695.3594                   22848691.3364
 11  8 15  3 40  0.0000000  0  9G18G25G12G26G05G15G29G21G02
  13083202.47346  10218329.76243  24252058.3594                   24252058.3714
  -8421812.92248  -6532641.62545  22578387.6024                   22578388.8164
 -10860254.79747  -8428307.96144  23654717.4774                   23654716.0004
  -5247298.25447  -4064262.74245  21889608.6334                   21889606.6334
 -17792585.53948 -13826734.16846  21802505.1094                   21802502.9734
   1170939.03147    938228.44145  22511285.6024                   22511284.4694
 -11799176.16048  -9159038.96946  20972537.1334                   20972535.1604
   9621149.29746   7516075.10943  24390770.0474                   24390768.2194
 -24236749.30547 -18875689.46145  22852229.6724                   22852226.0554
